[[{"header":{"parameterUnit":"m.s-1","parameterCategory":1,"la1":30.6,"la2":29.2853,"lo1":-89.7004,"lo2":-87.6739,"dy":0.0162,"dx":0.0183,"nx":112,"ny":82,"refTime":"2023-06-10T18:00:00:Z","depth":0,"parameterNumber":2,"parameterNumberName":"U-component_of_WINDS"},"data":[0.0,0.0,0.0,0.0,0.0,0.0,0.0,0.0,0.0,0.0,0.0,0.0,0.0,0.0,0.0,0.0,0.0,0.0,0.0,0.0,0.0,0.0,0.0,0.0,0.0,0.0,0.0,0.0,0.0,0.0,0.0,0.0,0.0,0.0,0.0,0.0,0.0,0.0,0.0,0.0,0.0,0.0,0.0,0.0,0.0,0.0,0.0,0.0,0.0,0.0,0.0,0.0,0.0,0.0,0.0,0.0,0.0,0.0,0.0,0.0,0.0,0.0,0.0,0.0,0.0,0.0,0.0,0.0,0.0,0.0,0.0,0.0,0.0,0.0,0.0,0.0,0.0,0.0,0.0,0.0,0.0,0.0,0.0,0.0,0.0,0.0,0.0,0.0,0.0,0.0,-2.9163,-3.1789,-3.4511,-3.6121,-3.6121,-3.4715,-3.2965,-3.1018,0.0,0.0,0.0,0.0,0.0,0.0,0.0,0.0,0.0,0.0,0.0,0.0,0.0,0.0,0.0,0.0,0.0,0.0,0.0,0.0,0.0,0.0,0.0,0.0,0.0,0.0,0.0,0.0,0.0,0.0,0.0,0.0,0.0,0.0,0.0,0.0,0.0,0.0,0.0,0.0,0.0,0.0,0.0,0.0,0.0,0.0,0.0,0.0,0.0,0.0,0.0,0.0,0.0,0.0,0.0,0.0,0.0,0.0,0.0,0.0,0.0,0.0,0.0,0.0,0.0,0.0,0.0,0.0,0.0,0.0,0.0,0.0,0.0,0.0,0.0,0.0,0.0,0.0,0.0,0.0,0.0,0.0,0.0,0.0,0.0,0.0,0.0,0.0,0.0,0.0,0.0,0.0,0.0,0.0,0.0,0.0,0.0,0.0,0.0,0.0,0.0,0.0,0.0,0.0,-2.9617,-3.3788,-3.5706,-3.6681,-3.6681,-3.5786,-3.3939,-3.0995,0.0,0.0,0.0,0.0,0.0,0.0,0.0,0.0,0.0,0.0,0.0,0.0,0.0,0.0,0.0,0.0,0.0,0.0,0.0,0.0,0.0,0.0,0.0,0.0,0.0,0.0,0.0,0.0,0.0,0.0,0.0,0.0,0.0,0.0,0.0,0.0,0.0,0.0,0.0,0.0,0.0,0.0,0.0,0.0,0.0,0.0,0.0,0.0,0.0,0.0,0.0,0.0,0.0,0.0,0.0,0.0,0.0,0.0,0.0,0.0,0.0,0.0,0.0,0.0,0.0,0.0,0.0,0.0,0.0,0.0,0.0,0.0,0.0,0.0,0.0,0.0,0.0,0.0,0.0,0.0,0.0,0.0,0.0,0.0,0.0,0.0,0.0,0.0,0.0,0.0,0.0,0.0,0.0,0.0,0.0,0.0,0.0,0.0,0.0,0.0,0.0,0.0,0.0,-3.0512,-3.272,-3.553,-3.6674,-3.7219,-3.7219,-3.6073,-3.4357,-3.2036,-2.898,0.0,0.0,0.0,0.0,0.0,0.0,0.0,0.0,0.0,0.0,0.0,0.0,0.0,0.0,0.0,0.0,0.0,0.0,0.0,0.0,0.0,0.0,0.0,0.0,0.0,0.0,0.0,0.0,0.0,0.0,0.0,0.0,0.0,0.0,0.0,0.0,0.0,0.0,0.0,0.0,0.0,0.0,0.0,0.0,0.0,0.0,0.0,0.0,0.0,0.0,0.0,0.0,0.0,0.0,0.0,0.0,0.0,0.0,0.0,0.0,0.0,0.0,0.0,0.0,0.0,0.0,0.0,0.0,0.0,0.0,0.0,0.0,0.0,0.0,0.0,0.0,0.0,0.0,0.0,0.0,0.0,0.0,0.0,0.0,0.0,0.0,0.0,0.0,0.0,0.0,0.0,0.0,0.0,0.0,0.0,0.0,0.0,0.0,0.0,0.0,0.0,0.0,-3.3305,-3.515,-3.6548,-3.722,-3.754,-3.7521,-3.6061,-3.446,-3.2862,-2.9882,0.0,0.0,0.0,0.0,0.0,0.0,0.0,0.0,0.0,0.0,0.0,0.0,0.0,0.0,0.0,0.0,0.0,0.0,0.0,0.0,0.0,0.0,0.0,0.0,0.0,0.0,0.0,0.0,0.0,0.0,0.0,0.0,0.0,0.0,0.0,0.0,0.0,0.0,0.0,0.0,0.0,0.0,0.0,0.0,0.0,0.0,0.0,0.0,0.0,0.0,0.0,0.0,0.0,0.0,0.0,0.0,0.0,0.0,0.0,0.0,0.0,0.0,0.0,0.0,0.0,0.0,0.0,0.0,0.0,0.0,0.0,0.0,0.0,0.0,0.0,0.0,0.0,0.0,0.0,0.0,0.0,0.0,0.0,0.0,0.0,0.0,0.0,0.0,0.0,0.0,0.0,0.0,0.0,0.0,0.0,0.0,0.0,0.0,0.0,0.0,0.0,0.0,-3.3085,-3.4932,-3.6291,-3.7004,-3.7392,-3.7334,-3.5917,-3.434,-3.2712,-2.9715,0.0,0.0,0.0,0.0,0.0,0.0,0.0,0.0,0.0,0.0,0.0,0.0,0.0,0.0,0.0,0.0,0.0,0.0,0.0,0.0,0.0,0.0,0.0,0.0,0.0,0.0,0.0,0.0,0.0,0.0,0.0,0.0,0.0,0.0,0.0,0.0,0.0,0.0,0.0,0.0,0.0,0.0,0.0,0.0,0.0,0.0,0.0,0.0,0.0,0.0,0.0,0.0,0.0,0.0,0.0,0.0,0.0,0.0,0.0,0.0,0.0,0.0,0.0,0.0,0.0,0.0,0.0,0.0,0.0,0.0,0.0,0.0,0.0,0.0,0.0,0.0,0.0,0.0,0.0,0.0,0.0,0.0,0.0,0.0,0.0,0.0,0.0,0.0,0.0,0.0,0.0,0.0,0.0,0.0,0.0,0.0,0.0,0.0,0.0,0.0,0.0,0.0,-3.3978,-3.5466,0.0,-3.714,-3.7185,-3.7203,-3.5772,-3.4217,-3.2645,0.0,0.0,0.0,0.0,0.0,0.0,0.0,0.0,0.0,0.0,0.0,0.0,0.0,0.0,0.0,0.0,0.0,0.0,0.0,0.0,0.0,0.0,0.0,0.0,0.0,0.0,0.0,0.0,0.0,0.0,0.0,0.0,0.0,0.0,0.0,0.0,0.0,0.0,0.0,0.0,0.0,0.0,0.0,0.0,0.0,0.0,0.0,0.0,0.0,0.0,0.0,0.0,0.0,0.0,0.0,0.0,0.0,0.0,0.0,0.0,0.0,0.0,0.0,0.0,0.0,0.0,0.0,0.0,0.0,0.0,0.0,0.0,0.0,0.0,0.0,0.0,0.0,0.0,0.0,0.0,0.0,0.0,0.0,0.0,0.0,0.0,0.0,0.0,0.0,0.0,0.0,0.0,0.0,0.0,0.0,0.0,0.0,0.0,0.0,0.0,0.0,0.0,-3.29,-3.4634,-3.6061,0.0,-3.7376,-3.74,-3.7321,-3.6166,-3.4777,-3.3231,0.0,0.0,0.0,0.0,0.0,0.0,0.0,0.0,0.0,0.0,0.0,0.0,0.0,0.0,0.0,0.0,0.0,0.0,0.0,0.0,0.0,0.0,0.0,0.0,0.0,0.0,0.0,0.0,0.0,0.0,0.0,0.0,0.0,0.0,0.0,0.0,0.0,0.0,0.0,0.0,0.0,0.0,0.0,0.0,0.0,0.0,0.0,0.0,0.0,0.0,0.0,0.0,0.0,0.0,0.0,0.0,0.0,0.0,0.0,0.0,0.0,0.0,0.0,0.0,0.0,0.0,0.0,0.0,0.0,0.0,0.0,0.0,0.0,0.0,0.0,0.0,0.0,0.0,0.0,0.0,0.0,0.0,0.0,0.0,0.0,0.0,0.0,0.0,0.0,0.0,0.0,0.0,0.0,0.0,0.0,0.0,0.0,0.0,0.0,0.0,0.0,0.0,-3.2657,-3.4954,-3.6557,-3.6956,-3.7672,-3.8047,-3.7833,-3.7202,-3.6142,0.0,0.0,0.0,0.0,0.0,0.0,0.0,0.0,0.0,0.0,0.0,0.0,0.0,0.0,0.0,0.0,0.0,0.0,0.0,0.0,0.0,0.0,0.0,0.0,0.0,0.0,0.0,0.0,0.0,0.0,0.0,0.0,0.0,0.0,0.0,0.0,0.0,0.0,0.0,0.0,0.0,0.0,0.0,0.0,0.0,0.0,0.0,0.0,0.0,0.0,0.0,0.0,0.0,0.0,0.0,0.0,0.0,0.0,0.0,0.0,0.0,0.0,0.0,0.0,0.0,0.0,0.0,0.0,0.0,0.0,0.0,0.0,0.0,0.0,0.0,0.0,0.0,0.0,0.0,0.0,0.0,0.0,0.0,0.0,0.0,0.0,0.0,0.0,0.0,0.0,0.0,0.0,0.0,0.0,0.0,0.0,0.0,0.0,0.0,0.0,0.0,0.0,0.0,-3.3186,-3.5401,-3.7013,-3.7621,-3.8273,-3.8641,-3.8599,-3.792,-3.6864,-3.5292,0.0,0.0,0.0,0.0,0.0,0.0,0.0,0.0,0.0,0.0,0.0,0.0,0.0,0.0,0.0,0.0,0.0,0.0,0.0,0.0,0.0,0.0,0.0,0.0,0.0,0.0,0.0,0.0,0.0,0.0,0.0,0.0,0.0,0.0,0.0,0.0,0.0,0.0,0.0,0.0,0.0,0.0,0.0,0.0,0.0,0.0,0.0,0.0,0.0,0.0,0.0,0.0,0.0,0.0,0.0,0.0,0.0,0.0,0.0,0.0,0.0,0.0,0.0,0.0,0.0,0.0,0.0,0.0,0.0,0.0,0.0,0.0,0.0,0.0,0.0,0.0,0.0,0.0,0.0,0.0,0.0,0.0,0.0,0.0,0.0,0.0,0.0,0.0,0.0,0.0,0.0,0.0,0.0,0.0,0.0,0.0,0.0,0.0,0.0,0.0,0.0,0.0,-3.3794,-3.5987,-3.758,-3.8258,-3.8921,-3.9267,-3.9205,-3.8807,-3.8044,-3.6832,0.0,0.0,0.0,0.0,0.0,0.0,0.0,0.0,0.0,0.0,0.0,0.0,0.0,0.0,0.0,0.0,0.0,0.0,0.0,0.0,0.0,0.0,0.0,0.0,0.0,0.0,0.0,0.0,0.0,0.0,0.0,0.0,0.0,0.0,0.0,0.0,0.0,0.0,0.0,0.0,0.0,0.0,0.0,0.0,0.0,0.0,0.0,0.0,0.0,0.0,0.0,0.0,0.0,0.0,0.0,0.0,0.0,0.0,0.0,0.0,0.0,0.0,0.0,0.0,0.0,0.0,0.0,0.0,0.0,0.0,0.0,0.0,0.0,0.0,0.0,0.0,0.0,0.0,0.0,0.0,0.0,0.0,0.0,0.0,0.0,0.0,0.0,0.0,0.0,0.0,0.0,0.0,0.0,0.0,0.0,0.0,0.0,0.0,0.0,0.0,0.0,0.0,-3.4386,-3.6631,-3.8251,-3.878,-3.9524,-3.9911,-3.9755,-3.9772,-3.948,-3.8739,0.0,0.0,0.0,0.0,0.0,0.0,0.0,0.0,0.0,0.0,0.0,0.0,0.0,0.0,0.0,0.0,0.0,0.0,0.0,0.0,0.0,0.0,0.0,0.0,0.0,0.0,0.0,0.0,0.0,0.0,0.0,0.0,0.0,0.0,0.0,0.0,0.0,0.0,0.0,0.0,0.0,0.0,0.0,0.0,0.0,0.0,0.0,0.0,0.0,0.0,0.0,0.0,0.0,0.0,0.0,0.0,0.0,0.0,0.0,0.0,-2.2989,0.0,0.0,0.0,0.0,0.0,0.0,0.0,0.0,0.0,0.0,0.0,0.0,0.0,0.0,0.0,0.0,0.0,0.0,0.0,0.0,0.0,0.0,0.0,0.0,0.0,0.0,0.0,0.0,0.0,0.0,0.0,0.0,0.0,0.0,0.0,0.0,0.0,0.0,0.0,0.0,0.0,-3.4748,-3.7041,-3.8681,-3.9191,-3.9945,-4.0374,-4.0326,-4.0343,-4.0018,-3.9281,-3.8157,0.0,0.0,0.0,0.0,0.0,0.0,0.0,0.0,0.0,0.0,0.0,0.0,0.0,0.0,0.0,0.0,0.0,0.0,0.0,0.0,0.0,0.0,0.0,0.0,0.0,0.0,0.0,0.0,0.0,0.0,0.0,0.0,0.0,0.0,0.0,0.0,0.0,0.0,0.0,0.0,0.0,0.0,0.0,0.0,0.0,0.0,0.0,0.0,0.0,0.0,0.0,0.0,0.0,0.0,0.0,0.0,0.0,0.0,0.0,0.0,-2.4256,0.0,0.0,0.0,0.0,0.0,0.0,0.0,0.0,0.0,0.0,0.0,0.0,0.0,0.0,0.0,0.0,0.0,0.0,0.0,0.0,0.0,0.0,0.0,0.0,0.0,0.0,0.0,0.0,0.0,0.0,0.0,0.0,0.0,0.0,0.0,0.0,0.0,0.0,0.0,0.0,-3.5872,-3.7779,-3.9363,-4.0331,-4.0793,-4.1169,-4.1527,-4.1511,-4.1137,-4.0404,-3.9589,0.0,0.0,0.0,0.0,0.0,0.0,0.0,0.0,0.0,0.0,0.0,0.0,0.0,0.0,0.0,0.0,0.0,0.0,0.0,0.0,0.0,0.0,0.0,0.0,0.0,0.0,0.0,0.0,0.0,0.0,0.0,0.0,0.0,0.0,0.0,0.0,0.0,0.0,0.0,0.0,0.0,0.0,0.0,0.0,0.0,0.0,0.0,0.0,0.0,0.0,0.0,0.0,0.0,-2.6894,-2.7624,-2.7624,-2.7985,-2.8273,-2.8351,-2.7102,-2.617,-2.5658,-2.6519,0.0,0.0,0.0,0.0,0.0,0.0,0.0,0.0,0.0,0.0,0.0,0.0,0.0,0.0,0.0,0.0,0.0,0.0,0.0,0.0,0.0,0.0,0.0,0.0,-3.1978,-3.1545,0.0,0.0,0.0,0.0,0.0,0.0,0.0,0.0,0.0,0.0,0.0,0.0,-3.7055,-3.8623,-4.0095,-4.1546,-4.1699,-4.1955,-4.2551,-4.2515,-4.2207,-4.1579,-4.0782,-3.9681,0.0,0.0,0.0,0.0,0.0,0.0,0.0,0.0,0.0,0.0,0.0,0.0,0.0,0.0,0.0,0.0,0.0,0.0,0.0,0.0,0.0,0.0,0.0,0.0,0.0,0.0,0.0,0.0,0.0,0.0,0.0,0.0,-1.725,-1.7624,0.0,0.0,0.0,0.0,0.0,0.0,0.0,0.0,0.0,0.0,0.0,0.0,0.0,-2.4923,-2.4643,-2.6674,-2.7665,-2.7588,-2.8631,-2.9149,-2.931,-2.9577,-2.9735,-2.9772,-2.9771,0.0,-2.8419,-2.9108,0.0,0.0,0.0,0.0,0.0,0.0,0.0,0.0,0.0,0.0,0.0,0.0,0.0,0.0,0.0,0.0,0.0,0.0,0.0,0.0,0.0,0.0,-3.179,-3.3998,-3.4686,-3.4774,0.0,-3.28,-3.1237,-3.0622,-3.0717,0.0,0.0,0.0,0.0,0.0,0.0,0.0,-3.7602,-3.9217,-4.0713,-4.2035,-4.2204,-4.2238,-4.2323,-4.2339,-4.2306,-4.2204,-4.1457,-4.0679,-3.9868,-3.7669,0.0,0.0,0.0,0.0,0.0,0.0,0.0,0.0,0.0,0.0,0.0,0.0,0.0,0.0,0.0,0.0,0.0,0.0,0.0,0.0,0.0,0.0,0.0,0.0,0.0,0.0,0.0,0.0,0.0,-1.6943,-1.756,-1.8478,-1.8976,-1.9237,0.0,0.0,0.0,0.0,0.0,0.0,0.0,0.0,0.0,-2.4328,-2.618,-2.711,-2.6959,-2.8542,-2.9286,-2.9315,-3.0547,-3.121,-3.1426,-3.1959,-3.2296,-3.2394,-3.2507,-3.2336,-3.2004,-3.1187,-3.0639,-3.0239,0.0,0.0,0.0,0.0,-2.7619,-2.7574,-2.747,-2.7813,0.0,-2.8326,0.0,0.0,0.0,0.0,0.0,0.0,0.0,0.0,0.0,0.0,-3.3571,-3.5016,-3.5466,-3.561,-3.5626,-3.495,-3.4083,0.0,-3.3359,-3.3592,-3.3677,0.0,0.0,0.0,0.0,-3.7469,-3.8888,-4.0375,-4.1692,-4.2811,-4.282,-4.2989,-4.3411,-4.3334,-4.3166,-4.2854,-4.2129,-4.1386,-4.0764,-3.8988,-3.7313,0.0,0.0,0.0,0.0,0.0,0.0,0.0,0.0,0.0,0.0,0.0,0.0,0.0,0.0,0.0,0.0,0.0,0.0,0.0,0.0,0.0,0.0,0.0,0.0,0.0,0.0,0.0,0.0,-1.7535,-1.8231,-1.9502,-2.0153,-2.042,0.0,0.0,0.0,0.0,0.0,0.0,-2.4642,-2.5625,-2.6258,-2.65,-2.8062,-2.8896,-2.8872,-3.0205,-3.0875,-3.0947,-3.2257,-3.299,-3.3154,-3.3757,-3.4089,-3.4193,-3.4268,-3.4434,-3.4524,-3.2946,-3.2346,-3.2509,-3.2509,-3.2089,-3.1405,-3.0737,-3.05,-3.0449,-3.0271,-3.0326,-3.0479,-3.0479,0.0,-3.0097,-2.9394,0.0,0.0,0.0,0.0,-3.1597,-3.3248,-3.4258,-3.5047,-3.5855,-3.6182,-3.635,-3.635,-3.6516,-3.6421,0.0,-3.5546,-3.5921,-3.6033,0.0,0.0,0.0,0.0,-3.9512,-4.032,-4.153,-4.2677,-4.3512,-4.3502,-4.3665,-4.4202,-4.4155,-4.392,-4.348,-4.261,-4.1907,-4.1456,-3.9884,-3.8379,-3.7047,0.0,0.0,0.0,0.0,0.0,0.0,0.0,0.0,0.0,0.0,0.0,0.0,0.0,0.0,0.0,0.0,0.0,0.0,0.0,0.0,0.0,0.0,0.0,0.0,0.0,0.0,0.0,0.0,0.0,-2.1067,-2.218,0.0,0.0,0.0,0.0,-2.404,-2.4675,-2.5653,-2.7024,-2.7661,-2.8272,-2.8891,-2.9655,-3.0095,-3.0208,-3.1661,-3.2511,-3.2688,-3.3546,-3.3984,-3.4147,-3.4178,-3.4193,-3.4193,-3.4401,-3.4755,-3.5095,-3.4346,-3.4056,-3.4099,-3.4071,-3.3541,-3.2816,-3.2989,-3.2901,-3.2713,-3.2713,-3.3122,-3.3681,-3.3681,-3.3213,-3.2591,-3.1925,-3.1713,0.0,0.0,-3.2944,-3.3556,-3.5027,-3.5814,-3.6485,-3.7148,-3.7573,-3.7822,-3.7822,-3.7953,-3.7705,0.0,-3.6996,-3.7752,-3.7752,0.0,-3.9215,-3.9249,-4.0004,-4.0879,-4.1703,-4.2584,-4.3396,-4.4021,-4.4202,-4.4219,-4.4097,-4.4097,-4.4097,-4.4047,-4.2841,-4.2088,-4.2055,-4.0104,-3.8584,-3.7646,-3.6182,0.0,0.0,0.0,0.0,0.0,0.0,0.0,0.0,0.0,0.0,0.0,0.0,0.0,0.0,0.0,0.0,0.0,0.0,0.0,0.0,0.0,0.0,0.0,0.0,0.0,0.0,0.0,0.0,-2.2485,-2.3299,0.0,-2.4882,-2.5171,-2.5667,-2.6586,-2.685,-2.7506,-2.8575,-2.9203,-2.9718,-3.0163,-3.124,-3.1867,-3.204,-3.2989,-3.3546,-3.368,-3.4409,-3.4866,-3.5077,-3.5953,-3.6337,-3.6368,-3.6876,-3.689,-3.6612,-3.6304,-3.5875,-3.5492,-3.5508,-3.5232,-3.4865,-3.4364,-3.4137,-3.4,-3.3472,-3.3472,-3.3653,-3.3653,-3.3502,-3.3216,-3.2841,-3.3141,-3.3682,-3.4373,-3.5105,-3.6012,-3.7121,-3.7732,-3.8168,-3.8543,-3.8776,-3.8959,-3.8959,-3.9141,-3.9237,-3.8723,-3.8886,-3.9257,-3.9788,-4.0275,-4.0552,-4.0552,-4.1276,-4.2009,-4.2422,-4.3146,-4.3772,-4.408,-4.4056,-4.3998,-4.4015,-4.3864,-4.3606,-4.3256,-4.2361,-4.1648,-4.1255,-4.0118,-3.8875,-3.7616,-3.6965,-3.5468,0.0,0.0,0.0,0.0,0.0,0.0,0.0,0.0,0.0,0.0,0.0,0.0,0.0,0.0,0.0,0.0,0.0,0.0,0.0,0.0,0.0,0.0,0.0,0.0,0.0,0.0,-2.1792,-2.38,-2.4587,-2.5423,-2.6581,-2.6914,-2.7483,-2.841,-2.87,-2.9174,-2.9903,-3.0507,-3.114,-3.1703,-3.2528,-3.3105,-3.3508,-3.4105,-3.4485,-3.462,-3.5294,-3.5799,-3.6184,-3.7092,-3.7631,-3.7861,-3.8323,-3.8262,-3.7846,-3.7686,-3.7296,-3.6725,-3.6252,-3.5958,-3.5737,-3.5157,-3.4991,-3.4868,-3.4385,-3.4173,-3.4173,-3.4173,-3.4259,-3.4375,-3.4218,-3.4679,-3.5368,-3.5814,-3.6514,-3.7268,-3.8055,-3.8492,-3.8898,-3.9107,-3.9298,-3.9456,-3.9456,-3.9752,-4.0062,-4.0302,-4.0361,-4.0512,-4.1118,-4.1557,-4.1822,-4.1822,-4.2409,-4.2899,-4.3032,-4.3539,-4.3898,-4.3923,-4.3881,-4.3898,-4.3822,-4.3704,-4.3429,-4.3066,-4.2409,-4.1788,-4.1109,-4.0447,-3.9359,-3.7786,-3.6754,-3.5333,-3.3541,0.0,0.0,0.0,0.0,0.0,0.0,0.0,0.0,0.0,0.0,0.0,0.0,0.0,0.0,0.0,0.0,0.0,0.0,0.0,0.0,0.0,0.0,0.0,-2.0419,-2.1519,-2.3018,-2.4951,-2.6143,-2.723,-2.8197,-2.8554,-2.8963,-2.9461,-3.0223,-3.0749,-3.1065,-3.1718,-3.2501,-3.3532,-3.3376,-3.3698,-3.4549,-3.5032,-3.537,-3.5582,-3.6199,-3.6861,-3.7507,-3.7538,-3.7923,-3.8539,-3.8554,-3.8554,-3.8539,-3.8539,-3.8341,-3.7886,-3.634,-3.5649,-3.5564,-3.5549,-3.5534,-3.5534,-3.5534,-3.5549,-3.5564,-3.5564,-3.5851,-3.6223,-3.6223,-3.6532,-3.681,-3.681,-3.7104,-3.7479,-3.7699,-3.8172,-3.8585,-3.8812,-3.9121,-3.9376,-3.9376,-3.9723,-4.027,-4.0958,-4.1413,-4.1659,-4.1659,-4.2472,-4.3113,-4.3113,-4.3372,0.0,-4.3628,-4.3763,-4.3839,-4.3628,-4.3763,-4.3822,-4.3628,-4.3628,-4.3611,-4.3595,-4.3016,-4.2415,-4.1693,-4.1092,-3.9937,-3.8195,-3.5542,-3.3809,-3.3032,0.0,0.0,0.0,0.0,0.0,0.0,0.0,0.0,0.0,0.0,0.0,0.0,0.0,0.0,0.0,0.0,0.0,0.0,0.0,0.0,0.0,0.0,-2.1156,-2.1202,-2.2489,-2.4151,-2.6046,-2.7188,-2.8321,-2.9571,-3.028,-3.0815,-3.1268,-3.1602,-3.213,-3.29,-3.3116,-3.3645,-3.4499,-3.4953,-3.5326,-3.5571,-3.6195,-3.6521,-3.6613,-3.7266,-3.7623,-3.765,-3.8704,-3.9195,-3.9262,-3.9754,-3.9693,-3.9247,-3.9247,-3.8769,-3.7977,-3.7531,-3.7164,-3.6821,-3.6387,-3.6222,-3.6222,-3.6222,-3.6507,-3.6813,-3.6692,-3.6758,-3.6823,-3.6546,-3.6987,-3.7487,-3.743,-3.8071,-3.8871,-3.8942,-3.9419,-3.997,-4.0053,-4.0375,-4.0774,-4.0774,-4.1149,-4.1581,-4.1789,-4.2217,-4.2545,-4.2545,-4.286,-4.3174,-4.3312,-4.3509,0.0,-4.3628,-4.3628,-4.3628,-4.3628,-4.3628,-4.3628,-4.3628,-4.3628,-4.3396,-4.2866,-4.2593,-4.2105,-4.1378,-4.0578,-3.9325,-3.7557,-3.6275,-3.5142,0.0,0.0,0.0,0.0,0.0,0.0,0.0,0.0,0.0,0.0,0.0,0.0,0.0,0.0,0.0,0.0,0.0,0.0,0.0,0.0,0.0,0.0,-2.0917,-2.2309,-2.3092,-2.4067,-2.5397,-2.7207,-2.8269,-2.9336,-3.0555,-3.1248,-3.1838,-3.2287,-3.277,-3.3388,-3.4046,-3.4288,-3.4798,-3.5587,-3.5927,-3.6385,-3.6964,-3.7294,-3.7576,-3.7873,-3.8247,-3.8527,-3.8709,-3.9501,-3.988,0.0,-4.0355,-4.0309,-3.9939,-3.9939,-3.952,0.0,0.0,0.0,0.0,0.0,-3.6881,-3.6881,-3.6881,-3.7037,-3.7282,-3.7159,-3.7212,-3.7208,-3.7009,-3.7448,-3.7945,-3.796,-3.8517,-3.9177,-3.9337,-3.9839,-4.0331,-4.0401,-4.0799,-4.1205,-4.1323,-4.172,-4.2254,-4.2671,-4.3071,0.0,-4.3935,-4.3846,-4.3711,-4.3833,-4.4219,-4.4522,-4.4522,-4.4257,-4.4075,-4.4075,-4.3794,-4.3628,-4.3628,-4.3628,0.0,0.0,0.0,-4.2374,-4.1559,-4.0721,0.0,0.0,0.0,-3.691,-3.5983,0.0,0.0,0.0,-3.3139,-3.2883,0.0,0.0,0.0,0.0,0.0,0.0,0.0,0.0,0.0,0.0,0.0,0.0,0.0,0.0,0.0,0.0,-2.2225,-2.3831,-2.5475,-2.6076,-2.6856,-2.8474,-2.9456,-3.0343,-3.1218,-3.1864,-3.2422,-3.2857,-3.3786,-3.446,-3.4717,0.0,0.0,0.0,0.0,-3.7081,-3.8323,-3.82,-3.8482,-3.9122,-3.92,-3.956,-4.0153,-4.0002,-4.0225,-4.0799,-4.0593,-4.0524,-4.0524,-4.0524,-4.0447,-4.0261,-3.8789,-3.7888,-3.7524,-3.7524,-3.7524,-3.7524,-3.7524,0.0,0.0,-3.7297,-3.7414,-3.7667,-3.7594,-3.7915,-3.8277,-3.8516,-3.8723,-3.8943,-3.9337,-3.9711,-4.0097,-4.0368,-4.0801,-4.1294,-4.1476,-4.1958,-4.2655,-4.3606,-4.4025,-4.4444,-4.5401,-4.5036,-4.4607,-4.4653,-4.5322,-4.5798,-4.5798,-4.5218,-4.4804,-4.4804,0.0,0.0,-4.3817,-4.3734,-4.3624,-4.3504,-4.3421,-4.2922,-4.1988,-4.1232,-4.0388,-3.9483,-3.9205,-3.8738,-3.788,-3.7761,-3.8017,-3.8555,-3.6182,-3.5096,0.0,0.0,0.0,0.0,0.0,0.0,0.0,0.0,0.0,0.0,0.0,0.0,0.0,0.0,0.0,-2.2312,-2.3651,-2.5196,-2.6864,-2.8068,-2.8972,-2.9549,-3.0377,-3.1261,-3.2104,-3.2633,-3.3011,-3.333,-3.4192,-3.4952,-3.5527,-3.623,-3.6892,-3.7462,-3.7959,-3.8267,-3.8446,-3.8982,-3.9314,-3.9456,0.0,0.0,-4.0253,-4.0649,-4.0826,-4.0799,-4.0593,-4.0524,-4.0524,-4.0524,-4.0723,-4.0995,-3.9834,-3.8888,-3.8197,-3.8197,-3.8197,-3.8197,-3.8002,-3.8288,-3.8646,-3.8355,-3.837,-3.8532,-3.8325,-3.8473,0.0,-3.8723,-3.9031,-3.9265,-3.9352,-3.9854,-4.0414,-4.0949,-4.1496,-4.2122,-4.2877,-4.34,-4.392,-4.4479,-4.4838,-4.5144,-4.5546,-4.5447,-4.5412,-4.552,-4.5698,-4.5798,-4.5798,-4.5665,-4.5582,-4.5582,-4.545,-4.5305,-4.5164,-4.4653,-4.4261,-4.406,-4.3395,-4.2574,-4.172,-4.1496,-4.0954,-3.9927,-3.985,-3.962,-3.917,-3.9108,-3.9171,-3.9266,-3.7918,-3.7482,0.0,0.0,0.0,0.0,0.0,0.0,0.0,0.0,0.0,0.0,0.0,-2.0741,-2.1774,0.0,-2.328,-2.4006,-2.5367,-2.6821,-2.8405,-2.9788,-3.0668,-3.0881,-3.1504,-3.213,-3.2796,-3.3187,-3.3646,-3.4206,-3.5069,-3.583,-3.6522,-3.7415,-3.8035,-3.8344,-3.8817,-3.9233,-3.955,-3.9882,-4.0214,-4.0546,-4.0909,-4.1018,-4.0952,-4.1064,-4.1221,-4.1448,-4.1202,-4.1247,-4.1571,-4.1571,-4.1628,-4.1744,-4.1176,-4.0414,-3.9493,-3.9092,-3.8901,-3.8916,-3.8773,-3.8909,-3.9104,-3.8885,-3.8797,-3.8797,-3.8649,-3.8723,-3.8855,-3.9031,-3.9265,-3.9424,-3.964,-4.0238,-4.0928,-4.1336,-4.2014,-4.2833,-4.3526,-4.3949,-4.4468,-4.5439,-4.5718,-4.6028,-4.673,-4.6779,-4.6728,-4.6411,-4.6659,-4.6891,-4.6891,-4.6576,-4.6344,-4.6344,-4.5934,-4.5577,-4.5513,-4.4746,-4.4227,-4.4101,-4.3228,-4.2534,-4.2116,-4.2099,-4.1814,-4.1195,-4.1179,-4.107,-4.0705,-4.0705,-4.0626,-4.0514,-3.9813,-3.9396,0.0,0.0,0.0,0.0,0.0,0.0,0.0,-2.0656,-2.072,-2.143,-2.1667,-2.2167,-2.3579,-2.4191,-2.4816,-2.5918,-2.7157,-2.8517,-3.0007,-3.1249,-3.2149,-3.2353,-3.2625,-3.3096,-3.3641,-3.385,-3.4362,-3.5191,-3.6023,-3.6805,-3.7429,-3.8476,-3.9054,-3.9138,-3.9547,-3.9993,-4.0593,-4.0735,-4.1067,-4.1588,-4.1588,-4.1667,-4.1794,-4.1424,-4.1663,-4.2287,-4.1913,-4.2109,-4.269,-4.2813,-4.2786,-4.2698,-4.2609,-4.2053,-4.1124,-4.0257,-3.9871,-3.9841,-3.9649,-3.9444,-3.9268,-3.9076,-3.8943,-3.887,-3.887,-3.8943,-3.9017,-3.9337,-3.9586,-3.982,-4.0193,-4.0909,-4.1659,-4.1996,-4.2714,-4.349,-4.4262,-4.45,-4.5002,-4.6272,-4.6602,-4.6914,-4.777,-4.8001,-4.7802,-4.7206,-4.762,-4.8001,-4.8001,-4.7487,-4.7106,-4.7042,-4.6368,-4.5812,-4.56,-4.4836,-4.4203,-4.3943,-4.3232,-4.278,-4.2634,-4.2634,-4.2571,-4.2381,-4.2381,-4.227,-4.1898,-4.1898,-4.1817,-4.1573,-4.1374,-4.08,-2.2921,-2.2044,-2.1207,-2.0901,-2.0885,-2.1099,0.0,-2.1869,-2.2283,-2.3487,-2.3958,-2.451,-2.5781,-2.628,-2.6901,-2.8136,-2.8865,-2.994,-3.1734,-3.2558,-3.3242,-3.3937,-3.3882,-3.4089,-3.4904,-3.5004,-3.5311,-3.6071,-3.6821,-3.7406,-3.8003,-3.8734,-3.9338,-3.9734,-4.0293,-4.0642,-4.0609,-4.1178,-4.1525,-4.1588,-4.1588,-4.1936,-4.2568,-4.2197,-4.2349,-4.3005,-4.2623,-4.2613,-4.2937,-4.3541,-4.3862,-4.392,-4.3611,-4.3402,-4.319,-4.2088,-4.1608,-4.1354,-4.0531,-4.0173,-3.9862,-3.9062,-3.8943,-3.9104,-3.9104,-3.9322,-3.961,-3.961,-4.0334,-4.1092,-4.1163,-4.1827,-4.2648,-4.3453,-4.3873,-4.4382,-4.5627,-4.5968,-4.6266,-4.6968,-4.7272,-4.7439,-4.7704,-4.7853,-4.7968,-4.7885,-4.7951,-4.8001,-4.8001,-4.7934,-4.7803,-4.7655,-4.7507,-4.7062,-4.6093,-4.5763,-4.5046,-4.3783,-4.3638,-4.3298,-4.2666,-4.2634,-4.2571,-4.2381,-4.2381,-4.227,-4.1898,-4.1898,-4.1817,-4.1588,-4.1738,-4.147,-2.1841,-2.1287,-2.0996,-2.164,-2.1939,-2.2305,-2.3193,-2.3681,-2.415,-2.5168,-2.5792,-2.6462,-2.74,-2.7871,-2.8506,-2.9592,-3.0449,-3.139,-3.2675,-3.3535,-3.4169,-3.4513,-3.4497,-3.4726,-3.5361,-3.534,-3.5795,-3.6896,-3.7199,-3.7697,-3.8711,-3.9333,-3.9872,-4.0388,-4.0943,-4.1243,-4.1178,-4.1446,-4.181,-4.2236,-4.2236,-4.26,-4.3295,-4.2833,-4.2925,-4.3376,-4.3793,-4.3979,-4.4068,-4.4511,-4.4725,-4.4709,-4.4471,-4.4381,-4.4167,-4.2602,-4.191,-4.179,-4.1428,-4.1264,-4.1144,-4.0621,-4.0531,-4.0606,-4.0606,-4.0768,-4.0915,-4.1134,-4.1565,-4.1939,-4.2027,-4.259,-4.3322,-4.3909,-4.4429,-4.5081,-4.6001,-4.6262,-4.6474,-4.7115,-4.7251,-4.7403,-4.7521,-4.7671,-4.7671,-4.7671,-4.7869,-4.8001,-4.8001,-4.7935,-4.7721,-4.7454,-4.7386,-4.7188,-4.6591,-4.6118,-4.5386,-4.4399,-4.3945,-4.3395,-4.2666,-4.2634,-4.2571,-4.2508,-4.2508,-4.2381,-4.2206,-4.2061,-4.1931,-4.1752,-4.1833,-4.1804,-2.0783,-2.0715,-2.1024,-2.2261,-2.2904,-2.3537,-2.4716,-2.5315,-2.5912,-2.6777,-2.748,-2.8148,-2.8748,-2.9134,-2.9742,-3.0824,-3.1653,-3.2588,-3.381,-3.4626,-3.5053,-3.5053,-3.5331,-3.5662,-3.5992,-3.5889,-3.6375,-3.7688,-3.7903,-3.84,-3.9452,-4.0011,-4.0529,-4.1119,-4.1482,-4.167,-4.167,-4.186,-4.2208,-4.2746,-4.2884,-4.3327,-4.4006,-4.3827,-4.3899,-4.4118,-4.4673,-4.5039,-4.5114,-4.5204,-4.5294,-4.5368,-4.5114,-4.4964,-4.4765,-4.3271,-4.268,-4.259,-4.2408,-4.2347,-4.2242,-4.1881,-4.1745,-4.1745,-4.1745,-4.182,-4.1895,-4.2206,-4.2475,-4.2702,-4.2863,-4.3356,-4.3997,-4.4398,-4.4861,-4.5426,-4.612,-4.6262,-4.6474,-4.703,-4.7183,-4.7251,-4.7403,-4.747,-4.7486,-4.7486,-4.7671,-4.7869,-4.7869,-4.7721,-4.7437,-4.7251,-4.7183,-4.703,-4.6876,-4.6407,-4.5807,-4.5111,-4.4577,-4.3881,-4.2974,-4.2925,-4.2828,-4.2634,-4.2634,-4.2508,-4.2381,-4.2174,-4.1996,-4.1898,-4.1833,-4.1833,-2.0221,-2.0631,-2.125,-2.2495,-2.3594,-2.4673,-2.5847,-2.668,-2.7395,-2.8323,-2.8965,-2.9451,-2.9881,-3.0087,-3.0664,-3.2105,-3.2426,-3.3258,-3.5432,-3.5861,-3.5976,-3.5976,-3.6605,-3.7052,0.0,-3.6916,-3.7301,-3.8486,-3.9251,-3.9794,-4.0224,-4.0764,-4.1342,-4.1851,-4.1898,-4.1898,-4.1898,-4.255,-4.2884,-4.2916,-4.3427,-4.4038,-4.4717,-4.5195,-4.5321,-4.5188,-4.5204,-4.5294,-4.5515,-4.5515,-4.5589,-4.5735,-4.5368,-4.522,-4.5129,-4.4692,-4.4373,-4.4129,-4.3471,-4.3107,-4.2849,-4.2196,-4.1999,-4.1999,-4.1999,-4.2132,-4.2279,-4.2279,-4.2886,-4.3541,-4.3541,-4.4048,-4.4708,-4.5098,-4.5204,-4.5426,-4.612,-4.6262,-4.6404,-4.6823,-4.703,-4.7183,-4.7183,-4.7403,-4.7486,-4.7486,-4.7486,-4.7554,-4.7554,-4.7335,-4.7183,-4.7183,-4.703,-4.6892,-4.6876,-4.686,-4.6536,-4.5824,-4.5759,-4.5111,-4.3735,-4.3686,-4.3346,-4.2587,-4.2634,-4.2508,-4.2381,-4.2174,-4.1996,-4.1898,-4.167,-4.1588,-2.1317,-2.2169,-2.3241,-2.4546,-2.5502,-2.6352,-2.7309,-2.7936,-2.8544,-2.9345,-2.9761,-3.0081,-3.0426,-3.0526,-3.1007,-3.2375,-3.2607,-3.3458,-3.5758,-3.6122,-3.6305,-3.6804,-3.7087,0.0,0.0,0.0,0.0,-3.8794,-3.9397,-3.9901,-4.0377,-4.0949,-4.1469,-4.2045,-4.2061,-4.2285,-4.2764,-4.2855,-4.3361,-4.4299,-4.4835,-4.5151,-4.5227,-4.5405,-4.5368,-4.522,-4.5368,-4.5442,-4.5515,-4.5662,-4.5735,-4.5735,-4.5368,-4.522,-4.5145,-4.4739,-4.4648,-4.4617,-4.4326,-4.4097,-4.3975,-4.3609,-4.3472,-4.332,-4.332,-4.3381,-4.3457,-4.3609,-4.3913,-4.4233,-4.4233,-4.4402,-4.4739,-4.5129,-4.522,-4.5368,-4.6024,-4.6223,-4.6404,-4.6668,-4.6876,-4.6961,-4.6807,-4.6892,-4.6876,-4.6876,-4.7251,-4.747,-4.7335,-4.7251,-4.7183,-4.703,-4.6961,-4.6876,-4.6876,-4.6876,-4.6585,-4.5856,-4.5807,-4.5176,-4.3767,-4.3719,-4.3362,-4.2587,-4.2634,-4.2571,-4.2508,-4.2238,-4.2061,-4.1996,-4.172,-4.1588,-2.2884,-2.3822,-2.4924,-2.6193,-2.7056,-2.7705,-2.8449,-2.8889,-2.938,-2.9941,-3.0199,-3.0368,-3.0568,-3.0568,-3.1049,-3.2403,-3.2867,-3.3839,-3.6205,-3.6754,-3.7103,-3.7586,-3.7852,-3.815,0.0,0.0,0.0,-3.9386,-3.9942,-4.0449,-4.0929,-4.1442,-4.2027,-4.2558,-4.2574,-4.2911,-4.3549,-4.3655,-4.4236,-4.5255,-4.5658,-4.5735,-4.5589,-4.5589,-4.5515,-4.5442,-4.5515,-4.5589,-4.5589,-4.5735,-4.5807,-4.5735,-4.5442,-4.5294,-4.5294,-4.4889,-4.4799,-4.4874,-4.4648,-4.4663,-4.4648,-4.4358,-4.4205,-4.405,-4.3988,-4.3988,-4.405,-4.4205,-4.4358,-4.4511,-4.4572,-4.4648,-4.4814,-4.5129,-4.522,-4.5442,-4.5968,-4.6168,-4.6278,-4.6458,-4.6598,-4.6598,-4.6528,-4.6458,-4.6528,-4.6582,-4.6961,-4.7183,-4.7098,-4.7098,-4.703,-4.6876,-4.6876,-4.6876,-4.6876,-4.6876,-4.6682,-4.6212,-4.618,-4.5565,-4.4156,-4.4091,-4.3638,-4.265,-4.2634,-4.2634,-4.2634,-4.2302,-4.2174,-4.2109,-4.1801,-4.1736,-2.4775,-2.5524,-2.6238,-2.7455,-2.8143,-2.8716,-2.9198,-2.9547,-2.977,-3.0103,-3.0274,-3.0359,-3.0359,-3.0392,-3.0886,-3.227,-3.3143,-3.4459,-3.6804,-3.7748,-3.8228,-3.8261,-3.8891,-3.9268,-3.9089,-3.9693,0.0,-4.017,0.0,-4.1402,-4.1776,-4.2307,-4.2847,-4.3476,-4.3492,-4.3764,-4.4269,-4.4989,-4.5483,-4.5807,-4.5807,-4.5807,-4.5807,-4.5807,-4.5807,-4.5807,-4.5807,-4.5807,-4.5807,-4.5807,-4.5807,-4.5807,-4.5589,-4.5515,-4.5442,-4.5039,-4.4874,-4.4874,-4.4648,-4.4723,-4.4799,-4.4435,-4.4281,-4.4281,-4.4065,-4.3988,-4.4065,-4.4205,-4.4281,-4.4358,-4.4572,-4.4723,-4.4964,-4.5145,-4.5368,-4.5589,-4.6024,-4.6112,-4.6168,-4.6278,-4.6262,-4.6262,-4.6262,-4.6262,-4.6333,-4.6528,-4.6582,-4.6652,-4.6876,-4.6876,-4.6876,-4.6876,-4.6876,-4.6876,-4.6876,-4.6876,-4.6876,-4.6876,-4.6876,-4.6261,-4.4852,-4.4787,-4.4107,-4.2666,-4.2634,-4.2634,-4.2634,-4.2445,-4.2318,-4.2109,-4.1947,-4.1898,-2.6012,-2.6905,-2.785,-2.8576,-2.909,-2.9441,-2.9633,-2.971,-2.9726,-2.9853,-2.9853,-2.9853,-2.9941,-3.0484,-3.1258,-3.2266,-3.365,-3.5197,-3.7003,-3.7986,-3.8602,-3.8994,-3.962,-3.9941,-3.9663,-4.0352,0.0,0.0,-4.1612,-4.1689,-4.1808,-4.2307,-4.2831,-4.3427,-4.346,-4.3907,-4.5005,-4.5601,-4.585,-4.5807,-4.5807,-4.5807,-4.5807,-4.5807,-4.5807,-4.5807,-4.5807,-4.5807,-4.5807,-4.5807,-4.5807,-4.5807,-4.5589,-4.5515,-4.5442,-4.5039,-4.4964,-4.5055,-4.4739,-4.4648,-4.4648,-4.4358,-4.4205,-4.4065,-4.3847,-4.391,-4.3988,-4.4065,-4.4281,-4.4572,-4.4799,-4.4874,-4.4964,-4.5368,-4.5442,-4.5589,-4.5807,-4.5952,-4.6112,-4.6168,-4.6168,-4.6168,-4.6168,-4.6168,-4.6168,-4.6223,-4.6474,-4.6652,-4.6876,-4.6876,-4.6876,-4.6876,-4.6876,-4.6876,-4.6876,-4.6876,-4.6876,-4.6876,-4.6876,-4.6261,-4.4852,-4.4787,-4.4107,-4.2666,-4.2634,-4.2634,-4.2634,-4.2445,-4.2381,-4.2318,-4.2125,-4.2061,-2.7139,-2.7834,-2.8496,-2.8997,-2.9305,-2.9531,-2.956,-2.9515,-2.9425,-2.9348,-2.9212,-2.9166,-2.9287,-2.9774,-3.0583,-3.1911,-3.3563,-3.5267,-3.687,-3.8083,-3.8844,-3.9152,-3.9721,-4.0114,-4.0172,-4.0874,-4.1515,0.0,-4.1971,-4.1999,-4.2281,-4.2469,-4.2976,-4.3878,-4.3762,-4.4385,-4.5617,-4.5818,-4.588,-4.5807,-4.5807,-4.5807,-4.5807,-4.5807,-4.5735,-4.5662,0.0,-4.5662,-4.5662,-4.5662,-4.5735,-4.5807,-4.5589,-4.5515,-4.5442,-4.5039,-4.4889,-4.4889,-4.4587,-4.4435,-4.4281,-4.422,-4.4065,-4.3847,-4.3581,-4.3675,-4.391,-4.3988,-4.4205,-4.4496,-4.4799,-4.4964,-4.5114,-4.5515,-4.5735,-4.5807,-4.6008,-4.608,-4.6168,-4.6112,-4.604,-4.5968,-4.5968,-4.5968,-4.5968,-4.6112,-4.6278,-4.6528,-4.6738,-4.6876,-4.6876,-4.6876,-4.6876,-4.6876,-4.6876,-4.6876,-4.6876,-4.6876,-4.6876,-4.6261,-4.4852,-4.4787,-4.4107,-4.2666,-4.2634,-4.2634,-4.2634,-4.2508,-4.2445,-4.2381,-4.2302,-4.2238,-2.8039,-2.8301,-2.8559,-2.8936,-2.9167,-2.9243,-2.9198,-2.909,-2.8904,-2.8513,-2.8401,-2.8384,-2.8435,-2.8716,-2.9533,-3.1278,-3.3145,-3.4939,-3.645,-3.7933,-3.887,-3.8914,-3.9542,-4.0123,-4.0404,-4.1302,-4.1892,-4.2061,-4.2019,-4.226,-4.2805,-4.2634,-4.3106,-4.4391,-4.4413,-4.491,-4.6024,-4.588,-4.5807,-4.5807,-4.5713,-4.5608,-4.5593,-4.5514,-4.5441,-4.53,-4.5206,0.0,-4.5426,-4.5348,-4.551,-4.5735,-4.5515,-4.5442,-4.5442,-4.5039,-4.4799,-4.4572,-4.4358,-4.4143,-4.3988,-4.3988,-4.3832,-4.369,-4.3423,-4.3503,-4.3754,-4.3988,-4.4205,-4.4435,-4.4799,-4.5129,-4.5368,-4.5735,-4.5952,-4.6168,-4.6262,-4.6262,-4.6278,-4.6112,-4.5968,-4.5807,-4.5807,-4.5807,-4.588,-4.604,-4.6223,-4.6404,-4.6582,-4.6807,-4.6892,-4.6961,-4.6864,-4.6815,-4.6815,-4.6815,-4.6815,-4.6815,-4.6896,-4.6329,-4.4852,-4.4787,-4.4107,-4.2666,-4.2634,-4.2634,-4.2634,-4.2634,-4.2571,-4.2445,-4.2445,-4.2445,-2.7925,-2.8091,-2.8271,-2.8685,-2.8873,-2.8967,-2.8826,-2.8606,-2.8198,-2.7311,-2.7467,-2.7644,-2.7215,-2.833,-2.9555,-3.0371,-3.2611,-3.4593,-3.5507,-3.7124,-3.8257,-3.8495,-3.9599,-4.0324,-4.0119,-4.1307,0.0,0.0,-4.2125,-4.2109,-4.2238,-4.2238,-4.2781,-4.4018,-4.5056,-4.5627,-4.588,-4.5807,-4.5807,-4.5807,-4.5079,-4.4739,-4.4724,-4.3999,-4.3903,-4.4403,-4.3841,0.0,-4.5173,-4.4684,-4.4778,-4.5294,-4.5294,-4.522,-4.522,-4.4964,-4.4799,-4.4572,-4.4358,-4.4143,-4.3988,-4.3847,-4.3769,-4.369,-4.3596,-4.3754,-4.3988,-4.4205,-4.4511,-4.4874,-4.5055,-4.5442,-4.5735,-4.5952,-4.6152,-4.6278,-4.6262,-4.6262,-4.6278,-4.6112,-4.604,-4.5968,-4.5807,-4.5807,-4.588,-4.604,-4.6223,-4.6404,-4.6582,-4.6807,-4.6961,-4.7098,-4.6562,-4.6287,-4.6503,-4.6503,-4.642,-4.6287,-4.6841,-4.6464,-4.4852,-4.4787,-4.4107,-4.2666,-4.2634,-4.2634,-4.2634,-4.2634,-4.2571,-4.2571,-4.2571,-4.2571,-2.759,-2.776,-2.7944,-2.8414,-2.8573,-2.8605,-2.8573,-2.8073,-2.7418,-2.6617,-2.6629,-2.6713,-2.6436,-2.7515,-2.8752,-2.9537,-3.1605,-3.3409,-3.4249,-3.6157,-3.742,-3.748,-3.906,-3.9984,-3.9659,-4.0976,-4.1785,-4.1604,0.0,-4.1785,-4.2109,-4.2698,-4.3508,-4.4351,-4.527,-4.5807,-4.5807,-4.5807,-4.5807,-4.5807,-4.4897,-4.4479,-4.4479,-4.3934,-4.3894,-4.4206,-4.4133,0.0,-4.5188,-4.4771,-4.4834,-4.522,-4.5055,-4.5039,-4.5039,-4.4814,-4.4663,-4.4435,-4.4358,-4.4143,-4.3988,-4.391,-4.3832,-4.3832,-4.3832,-4.3988,-4.4205,-4.4435,-4.4648,-4.4949,-4.5442,-4.5662,-4.5864,-4.6278,-4.6474,-4.6615,-4.6615,-4.6528,-4.6474,-4.6349,-4.6294,-4.6152,-4.608,-4.6064,-4.608,-4.6223,-4.6333,-4.64,-4.6185,-4.6342,-4.6545,-4.6613,-4.6044,-4.5702,-4.5832,-4.5848,-4.5767,-4.5702,-4.5946,-4.5587,-4.4415,-4.4302,-4.3719,-4.265,-4.2634,-4.2634,-4.2634,-4.2634,-4.2634,-4.2634,-4.2634,-4.2634,-2.7167,-2.7386,-2.7625,-2.8201,-2.8299,-2.825,-2.825,-2.7507,-2.6624,-2.5987,-2.5775,-2.566,-2.5515,-2.6465,-2.7615,-2.8514,-3.0355,-3.2013,-3.2945,-3.5061,-3.6485,-3.6473,-3.8375,0.0,-3.9234,-4.0604,0.0,-4.1117,0.0,0.0,-4.1916,-4.3218,-4.4098,-4.448,-4.5349,-4.5807,-4.5807,-4.5807,-4.5807,-4.5807,-4.4897,-4.4479,-4.4479,-4.4122,-4.405,-4.4206,-4.4278,0.0,0.0,-4.4495,-4.4542,-4.4911,-4.4732,-4.4657,-4.4673,-4.4447,-4.4204,-4.3853,-4.3853,-4.3869,-4.3837,-4.3837,-4.3944,-4.3988,-4.4065,-4.4205,-4.4358,-4.4587,-4.4799,-4.5114,-4.5646,-4.588,-4.6008,-4.6528,-4.6807,-4.6876,-4.6876,-4.6807,-4.6652,-4.6582,-4.6458,-4.6333,-4.6333,-4.6262,-4.6333,-4.6333,-4.6528,-4.641,-4.5937,-4.5911,-4.5881,-4.5718,-4.5358,-4.5095,-4.5159,-4.5159,-4.5159,-4.5095,-4.5081,-4.4772,-4.4023,-4.3783,-4.3362,-4.2587,-4.2634,-4.2634,-4.2634,-4.2634,-4.2634,-4.2634,-4.2634,-4.2634,-2.6776,-2.7144,-2.7386,-2.7905,-2.7955,-2.7855,-2.7855,-2.7051,-2.6002,-2.5038,-2.4838,-2.463,-2.4024,-2.5263,-2.6461,-2.6931,-2.89,-3.0778,-3.1873,-3.3913,-3.5436,-3.5904,0.0,0.0,-3.8898,-4.0224,-4.1102,-4.1117,0.0,0.0,-4.139,-4.2879,-4.3753,-4.3816,-4.5112,-4.5807,-4.5807,-4.5807,-4.5807,-4.5807,-4.4897,-4.4479,-4.4463,-4.3693,-4.3613,-4.4128,-4.2895,0.0,0.0,-4.288,-4.3114,-4.4164,-4.4018,-4.396,-4.3991,-4.3753,-4.3205,-4.2463,-4.2463,-4.286,-4.3364,-4.3364,-4.364,-4.405,-4.4205,-4.4281,-4.4358,-4.4723,-4.5039,-4.5294,-4.5662,-4.6008,-4.6333,-4.6738,-4.6892,-4.6876,-4.6876,-4.6892,-4.6807,-4.6668,-4.6582,-4.6528,-4.6333,-4.6262,-4.6333,-4.6512,-4.6582,-4.6479,-4.6123,-4.5685,-4.516,-4.4598,-4.4529,-4.4558,-4.4726,-4.4743,-4.4681,-4.4496,-4.4995,-4.4916,-4.4023,-4.3783,-4.3362,-4.2587,-4.2634,-4.2634,-4.2634,-4.2634,-4.2634,-4.2634,-4.2634,-4.2634,-2.606,-2.6681,-2.7248,-2.7855,-2.7905,-2.767,-2.7312,-2.6419,-2.5379,-2.4288,-2.4028,-2.3908,-2.3636,-2.4872,-2.6044,-2.6391,-2.8351,-3.0016,-3.054,-3.289,-3.4596,-3.4755,-3.7141,0.0,0.0,0.0,-4.0555,0.0,0.0,0.0,-4.0799,-4.2144,-4.3277,-4.4181,-4.4788,-4.5365,-4.5807,-4.5807,-4.5807,-4.5807,-4.4897,-4.4479,-4.4479,-4.3997,-4.4013,-4.4304,-4.3653,0.0,0.0,-4.3169,-4.302,-4.3519,-4.3376,-4.3319,-4.3262,-4.3174,-4.2875,-4.2441,-4.2441,-4.2625,-4.299,-4.3464,-4.3787,-4.4004,-4.4388,-4.4587,-4.4739,-4.4964,-4.522,-4.5515,-4.6008,-4.6404,-4.6684,-4.6892,-4.6876,-4.6876,-4.6876,-4.6876,-4.6876,-4.6807,-4.6807,-4.6738,-4.6684,-4.6684,-4.6668,-4.6738,-4.6366,-4.5986,-4.5636,-4.5031,-4.4437,-4.3943,-4.3938,-4.3922,-4.4042,-4.4042,-4.3982,-4.3922,-4.3941,-4.385,-4.3448,-4.3181,-4.2925,-4.2634,-4.2634,-4.2634,-4.2634,-4.2634,-4.2634,-4.2634,-4.2634,-4.2634,-2.5488,-2.6229,-2.6894,-2.7695,-2.764,-2.7255,-2.6774,-2.5738,-2.4586,-2.3774,-2.3388,-2.3165,-2.3212,-2.4451,-2.5581,-2.5879,-2.7936,-2.951,-2.9765,-3.2118,-3.3817,-3.3894,0.0,-3.7881,0.0,-3.9413,-4.0137,0.0,0.0,0.0,-4.047,-4.1603,-4.2707,-4.3764,-4.4299,-4.4914,-4.5435,-4.564,-4.5807,-4.5807,-4.5173,-4.4865,-4.4865,-4.4721,-4.4721,-4.4834,-4.425,0.0,0.0,-4.302,-4.277,-4.2958,-4.2817,-4.2676,-4.259,-4.2463,-4.2227,-4.2001,-4.2073,-4.2196,-4.2474,-4.3371,-4.38,-4.408,-4.4613,-4.4889,-4.5039,-4.5204,-4.5499,-4.5864,-4.6262,-4.6598,-4.6876,-4.6876,-4.6876,-4.6876,-4.6876,-4.6876,-4.6876,-4.6876,-4.6876,-4.6876,-4.6876,-4.6876,-4.6811,-4.6601,-4.6199,-4.5683,-4.5047,-4.4538,-4.4118,-4.3635,-4.3628,-4.3628,-4.3628,-4.3628,-4.3628,-4.3628,-4.3372,-4.3174,-4.3113,-4.2821,-4.2634,-4.2634,-4.2634,-4.2634,-4.2634,-4.2634,-4.2634,-4.2634,-4.2634,-4.2634,-2.5142,-2.5792,-2.6256,-2.736,-2.7016,-2.6426,-2.6426,-2.4985,-2.3702,-2.3545,-2.2904,-2.2431,-2.2569,-2.377,-2.4829,-2.5217,-2.7417,-2.9277,-2.9711,-3.157,-3.302,0.0,0.0,-3.6455,-3.7586,-3.9067,0.0,0.0,0.0,0.0,-4.0307,-4.124,-4.1891,-4.2115,-4.3686,-4.4495,-4.4495,-4.5403,-4.5807,-4.5807,-4.5807,-4.5807,-4.5807,-4.5792,-4.5792,0.0,0.0,0.0,0.0,-4.1987,-4.1846,-4.2627,-4.2046,-4.1961,-4.2031,-4.1727,-4.1155,-4.0555,-4.0746,-4.1264,-4.193,-4.2825,-4.3582,-4.4268,-4.5001,-4.522,-4.522,-4.5442,-4.5848,-4.6333,-4.6512,-4.6738,-4.6876,-4.6876,-4.6876,-4.6876,-4.6876,-4.6876,-4.6876,-4.6876,-4.6876,-4.6876,-4.6876,-4.6876,-4.6633,-4.5921,-4.5958,-4.5636,-4.439,-4.4335,-4.4179,-4.3651,-4.3628,-4.3628,-4.3628,-4.3628,-4.3628,-4.3628,-4.3492,-4.3312,-4.3113,-4.2945,-4.2837,-4.2634,-4.2634,-4.2634,-4.2634,-4.2634,-4.2634,-4.2634,-4.2634,-4.2634,-2.4032,-2.4722,-2.5261,-2.6005,-2.5901,-2.5523,-2.505,-2.4309,-2.3511,-2.2987,-2.2559,-2.2451,-2.297,-2.3897,-2.4811,-2.5628,-2.7645,-2.9222,0.0,0.0,0.0,-3.3516,-3.5703,-3.7669,0.0,0.0,0.0,0.0,0.0,0.0,-4.1419,-4.1566,-4.1696,-4.1876,-4.3114,-4.3977,-4.4479,-4.5388,-4.5807,-4.5807,-4.5807,-4.5807,-4.5807,-4.5807,-4.5807,0.0,0.0,0.0,0.0,-4.2438,-4.1868,-4.1565,-4.1429,-4.1277,-4.1193,-4.1071,-4.0793,-4.0524,-4.073,-4.0938,-4.1379,-4.281,-4.3467,-4.3874,-4.5227,-4.5515,-4.5515,-4.5807,-4.6207,-4.6528,-4.6582,-4.6738,-4.6876,-4.6876,-4.6876,-4.6876,-4.6876,-4.6876,-4.6876,-4.6876,-4.6876,-4.673,-4.6228,-4.6147,-4.5905,-4.5208,-4.4756,-4.4415,-4.4197,-4.383,-4.3558,-4.3585,-4.3628,-4.3628,-4.3628,-4.3628,-4.3628,-4.3628,-4.3492,-4.3372,-4.3312,-4.3113,-4.2945,-4.2837,-4.2837,-4.2775,-4.2634,-4.2634,-4.2571,-4.2445,-4.2571,-4.2571,-2.3012,-2.3803,-2.451,-2.5191,-2.5121,-2.4732,-2.4305,-2.3734,-2.3166,-2.2686,-2.2555,-2.2696,-2.3268,-2.4177,-2.5106,-2.5935,-2.7777,-2.9222,0.0,0.0,0.0,-3.4158,0.0,0.0,0.0,0.0,0.0,0.0,0.0,0.0,-4.1984,-4.1897,-4.1832,-4.1712,-4.2435,-4.3013,-4.3466,-4.4636,-4.5195,-4.5268,-4.5536,-4.5735,-4.5807,-4.5807,-4.5807,0.0,0.0,0.0,0.0,-4.2604,-4.1794,-4.1117,-4.0966,-4.0814,-4.0799,-4.073,-4.0662,-4.0662,-4.0814,-4.0935,-4.1289,-4.3079,-4.4022,-4.4693,-4.5667,-4.588,-4.5807,-4.6152,-4.6474,-4.6598,-4.6668,-4.6807,-4.6876,-4.6876,-4.6876,-4.6876,-4.6876,-4.6876,-4.6876,-4.6876,-4.6666,-4.6326,-4.5888,-4.5597,-4.5192,-4.4496,-4.4075,-4.3813,-4.3755,-4.3453,-4.3295,-4.3568,-4.3628,-4.3628,-4.3628,-4.3628,-4.3628,-4.3628,-4.3509,-4.3432,-4.3372,-4.3312,-4.3129,-4.3007,-4.2899,-4.2837,-4.2696,-4.2634,-4.2571,-4.2508,-4.2571,-4.2508,0.0,-2.2948,-2.3764,-2.4703,-2.4458,-2.4019,-2.4019,-2.3276,0.0,-2.2615,-2.2866,-2.3209,-2.3507,-2.4569,-2.5595,-2.6226,-2.7904,-2.9252,0.0,-3.142,0.0,0.0,-3.6686,0.0,0.0,0.0,0.0,0.0,0.0,0.0,-4.2166,-4.2239,-4.2153,-4.1684,-4.1743,-4.1736,-4.1806,-4.337,-4.4231,-4.4495,-4.5138,-4.5541,-4.5807,-4.5807,-4.5807,0.0,0.0,0.0,0.0,-4.2435,-4.1694,-4.1034,-4.0677,-4.0662,-4.0799,-4.0593,-4.0662,-4.0867,-4.1034,-4.1221,-4.161,-4.3436,-4.4979,-4.6119,-4.6253,-4.6175,-4.6239,-4.6528,-4.6582,-4.6652,-4.6876,-4.6876,-4.6876,-4.6876,-4.6876,-4.6876,-4.6876,-4.6876,-4.686,-4.6811,-4.6261,-4.5775,-4.5678,-4.5127,-4.4464,-4.3735,-4.3782,-4.3712,-4.3133,-4.3251,-4.3432,-4.3568,-4.3568,-4.3628,-4.3628,-4.3628,-4.3628,-4.3628,-4.3628,-4.3552,-4.3432,-4.3432,-4.3312,-4.3113,-4.2945,-4.2899,-4.2899,-4.2696,-4.2571,-4.2571,-4.2571,-4.2508,-2.0049,0.0,-2.2209,-2.3129,-2.3144,-2.2982,0.0,-2.2775,-2.2463,-2.2463,-2.2819,-2.3301,-2.4007,-2.4832,-2.5816,-2.7137,-2.8247,-2.9325,-3.0497,0.0,0.0,-3.6716,-3.7225,0.0,0.0,0.0,0.0,0.0,0.0,-4.2861,-4.3285,-4.3031,-4.2758,-4.268,-4.1748,-4.1413,-4.1821,-4.2903,-4.3747,-4.4278,-4.4434,-4.4851,-4.5589,-4.5589,-4.5589,0.0,0.0,0.0,-4.2972,-4.2171,-4.1488,-4.0867,-4.0799,-4.0882,-4.1034,-4.0966,-4.0966,-4.1102,-4.1339,-4.1522,-4.1825,-4.3556,-4.4377,-4.4829,-4.5527,-4.6127,-4.6528,-4.6598,-4.6738,-4.6807,-4.6892,-4.6876,-4.6876,-4.6876,-4.6876,-4.6876,-4.6876,-4.6876,-4.6714,-4.6164,-4.5921,-4.5467,-4.4383,-4.4075,-4.3719,-4.299,-4.2893,-4.2954,-4.2978,-4.3068,-4.3235,-4.3449,-4.3568,-4.3628,-4.3628,-4.3628,-4.3628,-4.3628,-4.3628,-4.3568,-4.3568,-4.3568,-4.3492,-4.3312,-4.3023,-4.2899,-4.2899,-4.2696,-4.2571,-4.2445,-4.2445,-4.2381,-1.9155,-2.0301,-2.1549,-2.2128,-2.2415,-2.2615,-2.2675,-2.2523,-2.2417,-2.2417,-2.3011,-2.3695,-2.4198,-2.5109,-2.6246,-2.7465,-2.8645,0.0,0.0,0.0,-3.4866,-3.7044,0.0,0.0,0.0,0.0,0.0,0.0,0.0,-4.2904,-4.366,-4.3119,-4.2895,-4.2986,-4.1984,-4.1568,-4.1843,-4.2386,-4.3071,-4.3956,-4.4208,-4.4771,-4.5515,-4.5368,-4.5269,0.0,0.0,0.0,-4.2364,-4.2047,-4.1472,-4.0799,-4.0882,-4.1034,-4.1117,-4.1117,-4.1169,-4.1355,-4.1538,-4.2008,-4.2618,-4.3584,-4.4115,-4.457,-4.5107,-4.5704,-4.6237,-4.6237,-4.6565,-4.6876,-4.6876,-4.6807,-4.6738,-4.6738,-4.6668,-4.6684,-4.6738,-4.6496,-4.6225,-4.5888,-4.5289,-4.4593,-4.3848,-4.3427,-4.3087,-4.2682,-4.2634,-4.2696,-4.2899,-4.3007,-4.3174,-4.3372,-4.3509,-4.3628,-4.3628,-4.3628,-4.3628,-4.3628,-4.3628,-4.3628,-4.3628,-4.3628,-4.3492,-4.3251,-4.3068,-4.2945,-4.2759,-4.2634,-4.2571,-4.2508,-4.2445,-4.2302,-1.8659,-1.9932,-2.1145,-2.1465,-2.2008,-2.2537,-2.2683,-2.2605,-2.2494,-2.264,-2.3491,-2.4258,-2.441,-2.5536,0.0,0.0,0.0,0.0,-3.3721,-3.4147,-3.4949,-3.7015,0.0,0.0,0.0,0.0,0.0,0.0,0.0,-4.2734,-4.3566,-4.3117,-4.2893,-4.3061,-4.2455,-4.2151,-4.2242,-4.2075,-4.2541,-4.3571,-4.4156,-4.4796,-4.5442,-4.522,-4.4919,-4.4407,0.0,0.0,-4.1821,-4.1837,-4.1448,-4.0867,-4.1034,-4.1169,-4.1169,-4.1169,-4.1355,-4.1654,-4.172,-4.246,-4.3412,-4.3525,-4.3945,-4.448,-4.4593,-4.503,-4.55,-4.5613,-4.6245,-4.6876,-4.6876,-4.6738,-4.6582,-4.6582,-4.6308,-4.6173,-4.6368,-4.589,-4.5443,-4.5449,-4.4528,-4.367,-4.3573,-4.3039,-4.2634,-4.2634,-4.2634,-4.2634,-4.2837,-4.3007,-4.3113,-4.3312,-4.3492,-4.3568,-4.3628,-4.3628,-4.3628,-4.3628,-4.3628,-4.3628,-4.3628,-4.3568,-4.3432,-4.3174,-4.3113,-4.2929,-4.2634,-4.2634,-4.2634,-4.2571,-4.2445,-4.2238,-1.7991,-1.9014,-2.0172,-2.1131,-2.1629,-2.2122,-2.2989,-2.3005,-2.3014,-2.3709,-2.4385,-2.4892,-2.5048,-2.6054,-2.7158,0.0,0.0,-3.2313,0.0,0.0,0.0,0.0,0.0,0.0,0.0,0.0,0.0,0.0,0.0,-4.2656,-4.3299,-4.3491,-4.3524,-4.3618,-4.3107,-4.3092,-4.3669,-4.2515,-4.2362,-4.3363,-4.3455,-4.4108,-4.522,-4.5039,-4.4682,-4.4231,0.0,-4.2525,-4.161,-4.1202,-4.1044,-4.1034,-4.1205,-4.139,-4.1522,-4.1522,-4.167,-4.1882,-4.219,-4.2462,-4.2846,-4.346,-4.3315,-4.3071,-4.3686,-4.3945,-4.4156,-4.4771,-4.5872,-4.6876,-4.6668,-4.6582,-4.6598,-4.6404,-4.5885,-4.5453,-4.5523,-4.503,-4.4506,-4.3992,-4.3751,-4.3508,-4.2909,-4.2636,-4.2634,-4.2634,-4.2634,-4.2634,-4.2634,-4.2821,-4.3023,-4.3113,-4.3312,-4.3509,-4.3568,-4.3628,-4.3628,-4.3628,-4.3628,-4.3628,-4.3628,-4.3492,-4.3388,-4.3372,-4.3084,-4.2899,-4.2837,-4.2696,-4.2634,-4.2571,-4.2302,-4.2109,-1.7666,-1.8567,-1.9624,-2.021,-2.1305,-2.2408,-2.2881,-2.3367,-2.3885,-2.4229,-2.5049,-2.5744,0.0,0.0,-2.7748,-2.9345,0.0,-3.3378,0.0,0.0,0.0,0.0,0.0,0.0,0.0,0.0,0.0,0.0,0.0,0.0,-4.2947,-4.3416,-4.3603,-4.3317,-4.3076,-4.3138,-4.3441,-4.2819,-4.2925,-4.3823,-4.3823,-4.4295,-4.5204,-4.4576,-4.4106,-4.3709,0.0,-4.2,-4.1295,-4.1127,-4.1138,-4.1205,-4.139,-4.1604,-4.1801,-4.1996,-4.2061,-4.2206,-4.2445,-4.2571,-4.2682,-4.3022,-4.2909,-4.2682,-4.3022,-4.3395,-4.3783,-4.4107,-4.5225,-4.6322,-4.6555,-4.6239,-4.5827,-4.5633,-4.5021,-4.4458,-4.458,-4.4173,-4.373,-4.3556,-4.3299,-4.3022,-4.2682,-4.2634,-4.2634,-4.2634,-4.2571,-4.2508,-4.2508,-4.2634,-4.2759,-4.2805,-4.3052,-4.3235,-4.3295,-4.3312,-4.3432,-4.3568,-4.3628,-4.3628,-4.3628,-4.3492,-4.3372,-4.3235,-4.3023,-4.2837,-4.2775,-4.2634,-4.2634,-4.2571,-4.2238,-4.2109,-1.7406,-1.8309,-1.9256,-1.9436,-2.0989,-2.2574,-2.2963,-2.3818,-2.4614,-2.4957,-2.5809,-2.6455,0.0,-2.7266,0.0,-3.0799,-3.261,0.0,0.0,0.0,0.0,0.0,0.0,0.0,0.0,0.0,0.0,0.0,0.0,0.0,-4.2348,-4.2952,-4.3136,-4.2773,-4.2834,-4.2909,-4.2909,-4.2909,-4.3319,-4.4052,-4.4052,-4.4264,-4.4705,-4.394,-4.3448,-4.3144,-4.2388,-4.171,-4.1117,-4.1272,-4.1323,-4.1323,-4.1588,-4.1801,-4.1947,-4.2254,-4.2381,-4.2445,-4.2571,-4.2634,-4.2634,-4.2634,-4.2634,-4.2634,-4.2634,-4.3022,-4.3492,-4.3606,-4.443,-4.5349,-4.5906,-4.5507,-4.4968,-4.476,-4.4044,-4.3469,-4.3659,-4.332,-4.2973,-4.3169,-4.2832,-4.2634,-4.2634,-4.2634,-4.2571,-4.2571,-4.2445,-4.2381,-4.2318,-4.2445,-4.2508,-4.2571,-4.2805,-4.299,-4.3052,-4.3052,-4.319,-4.3509,-4.3568,-4.3568,-4.3628,-4.3432,-4.3251,-4.3113,-4.2945,-4.2759,-4.2634,-4.2634,-4.2634,-4.2571,-4.2238,-4.2109,-1.7157,-1.8092,-1.9087,-1.9256,-2.0668,-2.2295,-2.3676,-2.4351,-2.5051,-2.6289,-2.6734,-2.6936,0.0,-2.8249,-2.9967,-3.1963,0.0,0.0,0.0,0.0,0.0,0.0,0.0,0.0,0.0,0.0,0.0,0.0,0.0,0.0,-4.149,-4.1881,-4.2121,-4.206,-4.2444,-4.2606,-4.2606,-4.2606,-4.2855,-4.3349,-4.3349,-4.331,-4.3254,-4.2993,-4.2762,-4.2485,-4.22,-4.171,-4.1117,-4.1272,-4.1323,-4.1323,-4.1752,-4.1947,-4.2109,-4.2318,-4.2381,-4.2445,-4.2571,-4.2634,-4.2634,-4.2634,-4.2634,-4.2634,-4.2634,-4.2666,-4.2797,-4.3364,-4.3572,-4.3798,-4.4273,-4.4197,-4.4045,-4.3854,-4.3263,-4.2758,-4.2758,-4.2455,-4.2189,-4.2189,-4.2413,-4.2634,-4.2634,-4.2634,-4.2571,-4.2445,-4.2381,-4.2318,-4.2174,-4.2109,-4.2238,-4.2381,-4.2445,-4.2571,-4.2899,-4.2899,-4.3084,-4.3372,-4.3432,-4.3492,-4.3568,-4.3295,-4.3096,-4.3113,-4.2821,-4.2634,-4.2634,-4.2634,-4.2634,-4.2571,-4.2238,-4.2109,-1.7286,-1.8055,-1.8947,-1.9668,-2.0964,-2.2418,-2.3607,-2.4811,-2.5928,-2.6818,-2.7645,-2.8392,-2.9018,0.0,-3.1332,-3.2653,0.0,0.0,0.0,0.0,0.0,0.0,0.0,0.0,0.0,0.0,0.0,0.0,0.0,0.0,0.0,-4.1519,-4.1713,-4.1595,-4.174,-4.1827,-4.1986,-4.1986,-4.2109,-4.2283,-4.2698,-4.2963,-4.3098,-4.2607,-4.2419,-4.2527,-4.2055,-4.1641,-4.1406,-4.1456,-4.1538,-4.1686,-4.2077,-4.2254,-4.2318,-4.2445,-4.2508,-4.2508,-4.2571,-4.2634,-4.2634,-4.2634,-4.2634,-4.2634,-4.2634,-4.2571,-4.2493,-4.2719,-4.2687,-4.2764,-4.3799,-4.3699,-4.3313,-4.3142,-4.2521,-4.2082,-4.2164,-4.2139,-4.2109,-4.2238,-4.2445,-4.2634,-4.2634,-4.2634,-4.2571,-4.2445,-4.2302,-4.219,-4.2012,-4.1947,-4.2012,-4.2077,-4.219,-4.2318,-4.2571,-4.2587,-4.2696,-4.3084,-4.3251,-4.3432,-4.3568,-4.3372,-4.3235,-4.3113,-4.2883,-4.2696,-4.2634,-4.2634,-4.2634,-4.2571,-4.2238,-4.2109,-1.7339,-1.8202,-1.92,-1.999,-2.1414,-2.2842,-2.3699,-2.5071,-2.6334,-2.7128,-2.8199,-2.9321,-3.0444,0.0,0.0,0.0,0.0,0.0,0.0,0.0,0.0,0.0,0.0,0.0,0.0,0.0,0.0,0.0,0.0,0.0,0.0,-4.087,-4.1061,-4.0909,-4.102,-4.1106,-4.1263,-4.1263,-4.1263,-4.1263,-4.1724,-4.2153,-4.2459,-4.2044,-4.2045,-4.2315,-4.1892,-4.167,-4.167,-4.172,-4.1866,-4.2077,-4.2318,-4.2445,-4.2445,-4.2571,-4.2634,-4.2634,-4.2634,-4.2634,-4.2634,-4.2634,-4.2634,-4.2571,-4.2571,-4.2445,-4.2381,-4.2254,-4.2093,-4.2121,-4.2992,-4.2865,-4.2516,-4.2481,-4.2034,-4.1736,-4.1947,-4.2061,-4.2254,-4.2381,-4.2445,-4.2571,-4.2571,-4.2492,-4.2381,-4.2254,-4.2125,-4.1996,-4.1817,-4.1817,-4.1817,-4.1817,-4.1866,-4.2045,-4.2302,-4.2318,-4.2508,-4.2899,-4.3129,-4.3372,-4.3509,-4.3449,-4.3312,-4.3096,-4.2945,-4.2837,-4.2634,-4.2634,-4.2571,-4.2508,-4.2238,-4.2061,-1.7355,-1.8581,-1.9862,-2.0144,-2.1907,-2.371,-2.4285,-2.5097,-2.6164,-2.7314,-2.8277,-2.9468,-3.1013,-3.2146,0.0,0.0,0.0,0.0,0.0,0.0,0.0,0.0,0.0,0.0,0.0,0.0,0.0,0.0,0.0,0.0,0.0,-3.9783,-4.0011,-4.0011,-4.0331,-4.0524,-4.0524,-4.0524,-4.0524,-4.0524,-4.0524,-4.0746,-4.1102,-4.1272,-4.139,-4.1588,-4.1817,-4.1898,-4.1898,-4.2061,-4.2238,-4.2381,-4.2381,-4.2508,-4.2634,-4.2634,-4.2634,-4.2634,-4.2634,-4.2634,-4.2634,-4.2634,-4.2634,-4.2571,-4.2445,-4.2381,-4.2334,-4.1963,-4.1898,-4.1833,-4.167,-4.1588,-4.167,-4.1833,-4.1898,-4.1963,-4.2045,-4.2254,-4.2381,-4.2381,-4.2381,-4.2381,-4.2381,-4.2238,-4.2061,-4.1898,-4.1898,-4.1833,-4.1654,-4.1588,-4.1588,-4.1588,-4.1588,-4.172,-4.2029,-4.2093,-4.2302,-4.2821,-4.2974,-4.3157,-4.3372,-4.3372,-4.3312,-4.3113,-4.2945,-4.2837,-4.2634,-4.2634,-4.2508,-4.2381,-4.2174,-4.1996,-1.8351,-1.9052,0.0,-2.0989,0.0,0.0,-2.4444,-2.5358,-2.6451,-2.8205,-2.935,-3.0472,-3.2098,-3.2978,0.0,0.0,0.0,0.0,0.0,0.0,0.0,0.0,0.0,0.0,0.0,0.0,0.0,0.0,0.0,0.0,0.0,-3.9696,-3.991,-4.0207,-4.0331,-4.0401,-4.0524,-4.0524,-4.0524,-4.0524,-4.083,-4.0966,-4.1102,-4.1272,-4.1472,-4.1833,-4.1996,-4.2061,-4.2061,-4.2254,-4.2381,-4.2381,-4.2508,-4.2571,-4.2634,-4.2634,-4.2634,-4.2634,-4.2634,-4.2634,-4.2634,-4.2634,-4.2508,-4.2445,-4.2381,-4.227,-4.2028,-4.1914,-4.1817,-4.167,-4.1588,-4.1588,-4.167,-4.1833,-4.1898,-4.1963,-4.2254,-4.2381,-4.2445,-4.2508,-4.2445,-4.2381,-4.2381,-4.2238,-4.2061,-4.1898,-4.1898,-4.1833,-4.1654,-4.1588,-4.1588,-4.1588,-4.1588,-4.153,-4.139,-4.1405,-4.1369,-4.1221,-4.1488,-4.2064,-4.3141,-4.3432,-4.3388,-4.2945,-4.299,-4.2867,-4.2634,-4.2634,-4.2508,-4.2381,-4.2174,-4.1996,-1.8386,-1.9262,0.0,-2.1569,-2.2616,-2.3776,-2.5328,0.0,0.0,0.0,-2.9935,-3.099,-3.2549,-3.3479,0.0,0.0,0.0,0.0,0.0,0.0,0.0,0.0,0.0,0.0,0.0,0.0,0.0,0.0,0.0,0.0,0.0,-3.9824,-4.0051,-4.0277,-4.0331,-4.0401,-4.0524,-4.0524,-4.0524,-4.0524,-4.0814,-4.1018,-4.1153,-4.1406,-4.1686,-4.1898,-4.2125,-4.2238,-4.2302,-4.2445,-4.2508,-4.2508,-4.2571,-4.2634,-4.2634,-4.2634,-4.2634,-4.2634,-4.2634,-4.2634,-4.2571,-4.2571,-4.2445,-4.2381,-4.227,-4.2077,-4.1898,-4.1817,-4.167,-4.1588,-4.1588,-4.1588,-4.167,-4.1833,-4.1898,-4.1963,-4.2334,-4.2381,-4.2445,-4.2508,-4.2381,-4.2254,-4.2206,-4.2061,-4.1851,-4.1817,-4.1752,-4.1752,-4.1588,-4.1588,-4.1654,-4.1736,-4.1482,-4.1278,-4.1196,-4.0908,-4.0739,-4.0588,-4.0867,-4.1377,-4.2245,-4.2515,-4.2588,-4.2476,-4.2505,-4.259,-4.2634,-4.2571,-4.2445,-4.2254,-4.2125,-4.1804,-1.7938,-1.9238,-2.0676,-2.1822,-2.3091,0.0,-2.6602,-2.7627,-2.8427,-2.9585,0.0,-3.1189,-3.2549,-3.3841,0.0,0.0,0.0,0.0,0.0,0.0,0.0,0.0,0.0,0.0,0.0,0.0,0.0,0.0,0.0,0.0,0.0,-4.0121,-4.0347,-4.0347,-4.047,-4.0524,-4.0524,-4.0524,-4.0524,-4.0524,-4.073,-4.0987,-4.1323,-4.1686,-4.1898,-4.1963,-4.227,-4.2508,-4.2634,-4.2634,-4.2634,-4.2634,-4.2634,-4.2634,-4.2634,-4.2634,-4.2634,-4.2634,-4.2634,-4.2634,-4.2571,-4.2445,-4.2381,-4.2318,-4.2028,-4.1898,-4.1833,-4.167,-4.1588,-4.1588,-4.1588,-4.1588,-4.167,-4.1833,-4.1898,-4.1963,-4.2318,-4.2381,-4.2381,-4.2381,-4.2254,-4.2061,-4.1898,-4.1736,-4.1588,-4.1588,-4.1588,-4.1588,-4.1588,-4.1588,-4.167,-4.1898,-4.1278,-4.0944,-4.116,-4.0595,-4.028,-4.0479,-4.0713,-4.0803,-4.0778,-4.1074,-4.1378,-4.1694,-4.1727,-4.1947,-4.2537,-4.2348,-4.2221,-4.2013,-4.1852,-4.1357,-1.8666,-1.9627,0.0,0.0,-2.337,-2.4909,-2.693,-2.7896,-2.8605,-2.9589,-3.0684,-3.173,-3.2739,0.0,0.0,0.0,0.0,0.0,0.0,0.0,0.0,0.0,0.0,0.0,0.0,0.0,0.0,0.0,0.0,0.0,-4.0121,-4.0261,-4.0347,-4.0455,-4.0455,-4.0524,-4.0524,-4.0662,-4.073,0.0,-4.1055,-4.1256,-4.1323,-4.1686,-4.2077,-4.2445,-4.2508,-4.2571,-4.2634,-4.2634,-4.2634,-4.2634,-4.2634,-4.2634,-4.2634,-4.2634,-4.2634,-4.2634,-4.2634,-4.2634,-4.2571,-4.2445,-4.2302,-4.2109,-4.1963,-4.1817,-4.167,-4.1588,-4.1588,-4.1588,-4.1588,-4.1588,-4.1588,-4.167,-4.1817,-4.1963,-4.2125,-4.2174,-4.2174,-4.2174,-4.2061,-4.1963,-4.1898,-4.1736,-4.1588,-4.1588,-4.1588,-4.1588,-4.1588,-4.1752,-4.1833,-4.1898,-4.1406,-4.0878,-4.0562,-3.9957,-3.9428,-3.9048,-3.928,-3.9391,-3.928,-4.0515,-4.1148,-4.0961,-4.0994,-4.1292,-4.1792,-4.1606,-4.1482,-4.1293,-4.1103,-4.0595,-1.8112,0.0,0.0,-2.2368,0.0,-2.5402,-2.6784,-2.7823,-2.8831,-2.9762,-3.0937,-3.2051,0.0,0.0,0.0,0.0,0.0,0.0,0.0,0.0,0.0,0.0,0.0,0.0,0.0,0.0,0.0,0.0,0.0,-4.0051,-4.0277,-4.0331,-4.0401,-4.0524,-4.0524,-4.0524,-4.0662,-4.073,-4.0867,-4.095,-4.1205,-4.1456,-4.172,-4.1866,-4.2206,-4.2634,-4.2634,-4.2634,-4.2634,-4.2634,-4.2634,-4.2634,-4.2634,-4.2634,-4.2634,-4.2634,-4.2634,-4.2634,-4.2634,-4.2634,-4.2571,-4.2302,-4.219,-4.2045,-4.1801,-4.167,-4.1588,-4.1588,-4.1588,-4.1588,-4.1588,-4.1588,-4.1588,-4.1588,-4.167,-4.1817,-4.1947,-4.1996,-4.1996,-4.1996,-4.1963,-4.1898,-4.1752,-4.167,-4.1588,-4.1588,-4.1588,-4.1588,-4.1588,-4.1752,-4.1963,-4.2141,-4.1339,-4.0752,-4.0621,-3.9699,-3.903,-3.8799,-3.8914,-3.9023,-3.904,-3.9693,-4.0082,-4.0228,-4.0203,-4.0442,-4.0958,-4.0804,-4.0619,-4.0449,-4.0245,-3.9739,-1.722,0.0,-2.0749,-2.2857,-2.4486,0.0,-2.6586,-2.778,-2.8916,-2.998,-3.1156,0.0,0.0,0.0,0.0,0.0,0.0,0.0,0.0,0.0,0.0,0.0,0.0,0.0,0.0,0.0,0.0,0.0,0.0,-3.9971,-4.0163,-4.0286,-4.0401,-4.0524,-4.0524,-4.0593,-4.0799,-4.0799,-4.095,-4.1169,-4.1272,-4.1588,-4.2061,-4.2109,-4.2302,-4.2634,-4.2634,-4.2634,-4.2634,-4.2634,-4.2634,-4.2634,-4.2634,-4.2634,-4.2634,-4.2634,-4.2634,-4.2634,-4.2634,-4.2571,-4.2492,-4.2174,-4.2109,-4.1996,-4.172,-4.1588,-4.1588,-4.1588,-4.1588,-4.1588,-4.1588,-4.1588,-4.1588,-4.1588,-4.1588,-4.167,-4.1817,-4.1833,-4.1833,-4.1833,-4.1833,-4.1817,-4.1654,-4.1588,-4.1588,-4.1588,-4.1588,-4.1588,-4.167,-4.1817,-4.2077,-4.2381,-4.131,-4.0648,-4.0983,-3.964,-3.886,-3.8969,-3.9023,-3.9148,-3.9272,-3.8985,-3.9044,-3.9569,-3.9397,-3.958,-4.0112,-3.9898,-3.9777,-3.9624,-3.9407,-3.8965,-1.7231,0.0,-2.2515,0.0,-2.4691,-2.5893,0.0,0.0,-2.8818,0.0,0.0,0.0,0.0,0.0,0.0,0.0,0.0,0.0,0.0,0.0,0.0,0.0,0.0,0.0,0.0,0.0,0.0,0.0,-3.8488,-3.8815,-3.9564,-3.9647,-3.9924,-4.0509,-4.0524,-4.0593,-4.0799,-4.095,-4.1153,-4.1256,-4.1456,-4.167,-4.1898,-4.2061,-4.2302,-4.2634,-4.2634,-4.2634,-4.2634,-4.2634,-4.2634,-4.2634,-4.2634,-4.2634,-4.2634,-4.2634,-4.2634,-4.2634,-4.2634,-4.2508,-4.2381,-4.2174,-4.1996,-4.1898,-4.167,-4.1588,-4.1588,-4.1588,-4.1588,-4.1588,-4.1588,-4.1588,-4.1588,-4.1588,-4.1588,-4.1588,-4.1654,-4.1654,-4.1654,-4.1654,-4.1654,-4.1654,-4.1588,-4.1588,-4.1588,-4.1588,-4.1588,-4.167,-4.1833,-4.1996,-4.2174,-4.2571,-4.1415,-4.0733,-4.0983,-3.9752,-3.8969,-3.9023,-3.9148,-3.9272,-3.9272,-3.9094,-3.8964,-3.8897,-3.869,-3.882,-3.9339,-3.9177,-3.9074,-3.8909,-3.8711,-3.827,-1.8089,-2.0204,-2.2135,0.0,-2.4398,-2.5766,-2.6357,0.0,-2.9184,0.0,0.0,0.0,0.0,0.0,0.0,0.0,0.0,0.0,0.0,0.0,0.0,0.0,0.0,0.0,0.0,0.0,0.0,0.0,-3.8279,-3.8565,-3.8939,-3.8954,-3.9093,-3.9385,-3.94,-3.9519,-3.9784,-3.9866,-4.0047,-4.0291,-4.0355,-4.0499,-4.0722,-4.0879,-4.1483,-4.2508,-4.2571,-4.2634,-4.2634,-4.2634,-4.2391,-4.2035,-4.2035,-4.1792,-4.1436,-4.1329,-4.1572,-4.1832,-4.1786,-4.198,-4.2174,-4.2077,-4.1963,-4.1833,-4.167,-4.1588,-4.1588,-4.1588,-4.1588,-4.1588,-4.1588,-4.1588,-4.1588,-4.1588,-4.1588,-4.1588,-4.1588,-4.1588,-4.1588,-4.1588,-4.1588,-4.1588,-4.1588,-4.1588,-4.1654,-4.1752,-4.1752,-4.1817,-4.2012,-4.2254,-4.2346,-4.2145,-4.1471,-4.0877,-4.0654,-3.9759,-3.9148,-3.9148,-3.9272,-3.9272,-3.9272,-3.9094,-3.8914,-3.8805,-3.86,-3.848,-3.8483,-3.8382,-3.828,-3.8058,-3.7998,-3.7765,0.0,0.0,-2.1569,-2.2469,-2.3978,-2.5391,0.0,0.0,0.0,0.0,0.0,0.0,0.0,0.0,0.0,0.0,0.0,0.0,0.0,0.0,0.0,0.0,0.0,0.0,0.0,0.0,0.0,0.0,-3.792,-3.8077,-3.8311,-3.8246,-3.8338,-3.8573,-3.8508,-3.8639,-3.8947,-3.9011,-3.9187,-3.944,-3.9503,-3.9581,-3.9675,-3.9829,-4.059,-4.1724,-4.1959,-4.2083,-4.2083,-4.2083,-4.1776,-4.129,-4.129,-4.0966,-4.0496,-4.0349,-4.0627,-4.1061,-4.086,-4.1149,-4.155,-4.1629,-4.1628,-4.1595,-4.1607,-4.1588,-4.1588,-4.1588,-4.1588,-4.1588,-4.1588,-4.1588,-4.1588,-4.1588,-4.1588,-4.1588,-4.1588,-4.1588,-4.1588,-4.1588,-4.1654,-4.167,-4.167,-4.172,-4.1801,-4.1947,-4.1963,-4.1948,-4.1933,-4.2155,-4.2145,-4.1629,-4.1205,-4.0793,-4.0431,-3.9702,-3.9272,-3.9272,-3.9272,-3.9272,-3.9272,-3.9148,-3.8969,-3.8805,-3.8711,-3.8448,-3.7992,-3.7934,-3.7759,-3.7539,-3.7539,-3.748,0.0,-1.9951,0.0,-2.2755,-2.3664,0.0,0.0,0.0,0.0,0.0,0.0,0.0,0.0,0.0,0.0,0.0,0.0,0.0,0.0,0.0,0.0,0.0,0.0,0.0,0.0,0.0,0.0,0.0,-3.6599,-3.6939,-3.7698,-3.7617,-3.7926,-3.8735,-3.8589,-3.8573,-3.8834,-3.9139,-3.9266,-3.9314,-3.944,-3.944,-3.933,-3.9659,-3.9847,-3.9973,-4.043,-4.061,-4.061,-4.061,-4.0577,-4.0545,-4.0545,-4.0529,-4.0496,-4.0349,-4.0321,-4.0353,-4.0171,-4.0064,-4.0006,-4.0642,-4.0753,-4.0767,-4.1399,-4.1588,-4.1588,-4.1588,-4.1588,-4.1588,-4.1588,-4.1588,-4.1588,-4.1588,-4.1588,-4.1588,-4.1588,-4.1588,-4.1588,-4.1588,-4.1752,-4.1898,-4.1898,-4.1996,-4.2109,-4.2109,-4.2109,-4.1933,-4.1385,-4.1491,-4.1399,-4.1056,-4.0508,-4.0232,-4.0382,-3.9702,-3.9272,-3.9272,-3.9272,-3.9272,-3.9272,-3.9272,-3.9148,-3.8805,-3.8805,-3.86,-3.8164,-3.7992,-3.7817,-3.77,-3.7539,-3.748,0.0,0.0,0.0,-2.1499,-2.2789,-2.4086,-2.4957,0.0,0.0,0.0,0.0,0.0,0.0,0.0,0.0,0.0,0.0,0.0,0.0,0.0,0.0,0.0,0.0,0.0,0.0,0.0,0.0,0.0,0.0,-3.6662,-3.6893,-3.6846,-3.7032,-3.7278,-3.7215,-3.7341,-3.767,-3.7825,-3.7932,-3.7932,-3.7886,-3.7886,-3.7932,-3.8175,-3.8312,-3.8464,-3.8729,-3.9376,-4.0228,-4.0228,-3.9955,-3.9537,-3.9624,-3.9408,-3.8979,-3.8803,-3.9033,-3.9434,-3.9132,-3.9295,-3.9629,-3.9866,-4.0262,-4.064,-4.0893,-4.1257,-4.1494,-4.1083,-4.0956,-4.0956,-4.0956,-4.0956,-4.1067,-4.1494,-4.167,-4.1817,-4.1817,-4.1817,-4.1817,-4.1817,-4.1947,-4.1996,-4.1996,-4.2061,-4.2109,-4.2238,-4.1916,-4.153,-4.1475,-4.1281,-4.0965,-4.0361,-4.0348,-4.0237,-3.9881,-3.9598,-3.9448,-3.9448,-3.9325,-3.9272,-3.9272,-3.9272,-3.9148,-3.8805,-3.8805,-3.8583,-3.818,-3.7992,-3.7817,-3.77,-3.7539,-3.748,-1.8531,0.0,0.0,0.0,0.0,-2.3083,-2.4116,0.0,0.0,0.0,0.0,0.0,0.0,0.0,0.0,0.0,0.0,0.0,0.0,0.0,0.0,0.0,0.0,0.0,0.0,0.0,0.0,0.0,0.0,0.0,-3.6199,-3.6215,-3.6261,-3.6476,-3.6538,-3.6677,-3.6877,-3.7029,-3.7089,-3.7013,-3.6984,-3.706,-3.715,-3.7238,-3.7433,-3.7642,-3.77,-3.836,-3.9342,-3.9342,-3.907,-3.8638,-3.8723,-3.8509,-3.8049,-3.7876,-3.812,-3.8519,-3.828,-3.846,-3.8871,-3.9092,-3.9503,-3.9945,-4.0166,-4.0546,-4.0798,-4.0356,-4.023,-4.023,-4.023,-4.0419,-4.0767,-4.1512,-4.1817,-4.1898,-4.1963,-4.1963,-4.1963,-4.1963,-4.2061,-4.2174,-4.2174,-4.2238,-4.2221,-4.2122,-4.1687,-4.1265,-4.0934,-4.0743,-4.0345,-3.9607,-3.9946,-4.0034,-3.9534,-3.9501,-3.9501,-3.9501,-3.9379,-3.9272,-3.9272,-3.9218,-3.9094,-3.8805,-3.8766,-3.86,-3.8294,-3.7992,-3.7876,-3.7759,-3.7583,-3.7421,0.0,0.0,0.0,0.0,0.0,0.0,-2.38,0.0,0.0,0.0,0.0,0.0,0.0,0.0,0.0,0.0,0.0,0.0,0.0,0.0,0.0,0.0,0.0,0.0,0.0,0.0,0.0,0.0,-3.477,-3.4812,-3.5639,-3.5566,-3.5768,-3.6445,-3.6631,-3.6693,-3.6708,-3.6923,-3.6877,-3.6723,-3.6877,-3.7015,-3.6999,-3.715,-3.7329,-3.748,-3.748,-3.7658,-3.7876,-3.7876,-3.7876,-3.7876,-3.7876,-3.7876,-3.7876,-3.7759,-3.77,-3.77,-3.7539,-3.748,-3.7591,-3.827,-3.8491,-3.8634,-3.9281,-3.9487,-3.9503,-3.9471,-3.9471,-3.9471,-3.9471,-4.0024,-4.08,-4.1611,-4.1851,-4.19,-4.1997,-4.2045,-4.2061,-4.2093,-4.2238,-4.2381,-4.2349,-4.2476,-4.2359,-4.1646,-4.1517,-4.1031,-3.9654,-3.9716,-3.9591,-3.887,-3.9202,-3.9501,-3.9501,-3.9501,-3.9501,-3.9501,-3.9379,-3.9272,-3.9272,-3.9094,-3.8914,-3.8805,-3.8655,-3.8504,-3.8391,-3.8049,-3.7876,-3.7876,-3.7642,-3.7301,-1.8139,0.0,0.0,0.0,0.0,0.0,0.0,0.0,0.0,0.0,0.0,0.0,0.0,0.0,0.0,0.0,0.0,0.0,0.0,0.0,0.0,0.0,0.0,0.0,0.0,0.0,0.0,0.0,-3.4509,-3.4611,-3.4796,-3.4812,-3.512,-3.5904,-3.6131,-3.6484,-3.7074,-3.7044,-3.6938,-3.6938,-3.6754,-3.6754,-3.7015,-3.706,-3.7241,-3.748,-3.748,-3.7539,-3.7583,-3.7583,-3.7583,-3.7642,-3.77,-3.7759,-3.7759,-3.77,-3.77,-3.77,-3.7539,-3.748,-3.7512,-3.7701,-3.8096,-3.8539,-3.8728,-3.9123,-3.9408,-3.8918,-3.8792,-3.8792,-3.8792,-3.9375,-4.0087,-4.034,-4.0575,-4.0761,-4.0807,-4.0852,-4.1203,-4.2109,-4.2445,-4.2409,-4.1892,-4.1857,-4.1614,-4.0901,-4.0367,-3.9972,-3.9699,-3.9331,-3.9144,-3.9181,-3.9468,-3.9677,-3.9798,-3.9694,-3.9625,-3.9625,-3.9432,-3.9272,-3.9272,-3.9094,-3.8914,-3.8805,-3.8655,-3.8504,-3.8391,-3.8049,-3.7876,-3.7876,-3.7642,-3.7345,-1.7977,-1.8356,-1.8839,-1.9356,0.0,0.0,-2.155,-2.2658,0.0,0.0,0.0,0.0,0.0,0.0,0.0,0.0,0.0,0.0,0.0,0.0,0.0,0.0,0.0,0.0,0.0,-3.3727,-3.3678,-3.378,-3.371,-3.3867,-3.4218,-3.4539,-3.4864,-3.5369,-3.5459,-3.5845,-3.6576,-3.6487,-3.6597,-3.6816,-3.6677,-3.6739,-3.7015,-3.7044,-3.7225,-3.748,-3.748,-3.748,-3.748,-3.748,-3.748,-3.7539,-3.7599,-3.7599,-3.7599,-3.7599,-3.7599,-3.7599,-3.7539,-3.748,-3.748,-3.748,-3.7749,-3.8081,-3.8081,-3.8349,-3.857,-3.8191,-3.8081,-3.8144,-3.8473,-3.8975,-3.9479,-3.992,-4.0184,-4.0305,-4.0349,-4.0437,-4.0739,-4.1459,-4.1682,-4.1598,-4.1193,-4.1128,-4.0885,-4.0173,-3.9794,-3.9478,-3.93,-3.91,-3.9094,-3.9272,-3.9573,-3.9849,-3.9901,-3.9849,-3.9781,-3.9729,-3.9484,-3.9379,-3.9272,-3.904,-3.886,-3.8805,-3.86,-3.8448,-3.8351,-3.8107,-3.7934,-3.7817,-3.7599,-3.7405,-1.8025,-1.8343,-1.8844,-1.9446,-1.9818,0.0,-2.129,-2.1706,-2.2404,0.0,0.0,0.0,0.0,0.0,0.0,0.0,0.0,0.0,0.0,0.0,0.0,0.0,0.0,0.0,-3.3712,-3.3356,-3.3135,-3.3077,-3.2823,-3.2982,-3.373,-3.4363,-3.4706,-3.4784,-3.4784,-3.5054,-3.5577,-3.567,-3.595,-3.6446,-3.6631,-3.68,-3.6999,-3.715,-3.7329,-3.748,-3.748,-3.748,-3.748,-3.748,-3.748,-3.748,-3.748,-3.748,-3.748,-3.748,-3.748,-3.748,-3.748,-3.748,-3.748,-3.748,-3.748,-3.748,-3.7539,-3.7539,-3.7539,-3.7539,-3.7524,-3.7725,-3.8432,-3.8651,-3.887,-3.9842,-4.0063,-4.0107,-4.027,-4.0254,-4.0254,-4.027,-4.0383,-4.0464,-4.0383,-4.0442,-4.0215,-3.9518,-3.952,-3.9349,-3.877,-3.9056,-3.9325,-3.9379,-3.9694,-3.9901,-3.9901,-3.9901,-3.9849,-3.9729,-3.959,-3.9448,-3.9325,-3.8985,-3.8805,-3.8805,-3.856,-3.8351,-3.8237,-3.8164,-3.8008,-3.77,-3.7539,-3.7405,-1.8614,-1.9192,-1.9772,-2.0399,-2.061,0.0,-2.1537,-2.1758,-2.2056,0.0,0.0,0.0,0.0,0.0,0.0,0.0,0.0,0.0,0.0,0.0,0.0,0.0,0.0,0.0,-3.2376,-3.2563,-3.2693,-3.2527,-3.2726,-3.2905,-3.31,-3.3224,-3.3536,-3.4067,-3.4082,-3.441,-3.5038,-3.5481,-3.5763,-3.5858,-3.646,-3.68,-3.6999,-3.715,-3.7329,-3.748,-3.748,-3.748,-3.748,-3.748,-3.748,-3.748,-3.748,-3.748,-3.748,-3.748,-3.748,-3.748,-3.748,-3.748,-3.748,-3.748,-3.748,-3.7539,-3.7658,-3.7642,-3.77,-3.7817,-3.7817,-3.7849,-3.8035,-3.8184,-3.8348,-3.855,-3.8698,-3.8755,-3.8796,-3.8812,-3.8869,-3.8983,-3.9778,-4.0378,-3.9943,-3.9861,-3.9658,-3.9021,-3.8962,-3.904,-3.9127,-3.9218,-3.9432,-3.9746,-3.9849,-3.9935,-4.0037,-3.9935,-3.9901,-3.9849,-3.9642,-3.9501,-3.9448,-3.904,-3.8805,-3.8805,-3.856,-3.8408,-3.8351,-3.8107,-3.7876,-3.77,-3.7539,-3.748,-1.8824,-1.9298,0.0,-2.0181,0.0,0.0,0.0,-2.1321,-2.1653,0.0,0.0,0.0,0.0,0.0,0.0,0.0,0.0,0.0,0.0,0.0,0.0,0.0,0.0,0.0,-3.1428,-3.1573,-3.1716,-3.1716,-3.2148,-3.2473,-3.2594,-3.287,-3.3146,-3.3474,-3.3325,-3.3581,-3.4281,-3.445,-3.496,-3.5716,-3.6117,-3.6596,-3.7105,-3.727,-3.7405,-3.748,-3.748,-3.748,-3.748,-3.748,-3.748,-3.748,-3.748,-3.748,-3.748,-3.748,-3.748,-3.748,-3.748,-3.748,-3.748,-3.748,-3.7539,-3.7583,-3.77,-3.7759,-3.7817,-3.7876,-3.7876,-3.7934,-3.7992,-3.8107,-3.8237,-3.8278,-3.8335,-3.8391,-3.8391,-3.8448,-3.8504,-3.8576,-3.9186,-3.9544,-3.9315,-3.925,-3.9135,-3.887,-3.8914,-3.9094,-3.9272,-3.9484,-3.9694,-3.9901,-3.9935,-4.0037,-4.007,-4.0037,-3.9986,-3.9901,-3.9746,-3.9659,-3.9501,-3.9202,-3.8931,-3.8711,-3.8504,-3.8391,-3.8391,-3.8164,-3.7934,-3.7817,-3.7642,-3.7583,0.0,0.0,0.0,0.0,0.0,-2.0759,0.0,0.0,0.0,0.0,0.0,0.0,0.0,0.0,0.0,0.0,0.0,0.0,0.0,0.0,0.0,0.0,0.0,0.0,0.0,-3.076,-3.0939,-3.1074,-3.1577,-3.199,-3.225,-3.2646,-3.2902,-3.2989,-3.2757,-3.2841,-3.3454,-3.3409,-3.4087,-3.5499,-3.5848,-3.6448,-3.7194,-3.7464,-3.7539,-3.748,-3.7539,-3.7539,-3.748,-3.748,-3.748,-3.748,-3.7539,-3.7539,-3.7539,-3.7539,-3.7539,-3.7539,-3.7539,-3.7539,-3.7539,-3.7539,-3.7658,-3.7833,-3.7833,-3.7876,-3.7992,-3.7992,-3.7992,-3.8049,-3.818,-3.8237,-3.8294,-3.8391,-3.8391,-3.8408,-3.8448,-3.8504,-3.8616,-3.8672,-3.8766,-3.886,-3.886,-3.886,-3.886,-3.8914,-3.9148,-3.9325,-3.9379,-3.9694,-3.9901,-3.9952,-4.0037,-4.007,-4.007,-4.007,-4.0037,-3.9952,-3.9901,-3.9798,-3.9606,-3.9379,-3.9056,-3.8632,-3.8504,-3.8464,-3.8391,-3.8278,-3.8164,-3.7934,-3.7759,-3.7642,0.0,0.0,0.0,0.0,-2.1231,0.0,0.0,0.0,-2.1158,-2.1601,0.0,0.0,0.0,0.0,0.0,0.0,0.0,0.0,0.0,0.0,0.0,0.0,0.0,0.0,0.0,-3.0647,-3.1207,-3.1355,-3.1434,-3.1686,-3.2167,-3.2159,-3.2263,-3.2633,-3.2648,-3.2554,-3.2576,-3.3106,-3.3856,-3.4802,-3.563,-3.6448,-3.7194,-3.7508,-3.7583,-3.7539,-3.7658,-3.7599,-3.748,-3.748,-3.748,-3.7539,-3.7642,-3.77,-3.77,-3.77,-3.77,-3.7642,-3.7539,-3.7599,-3.77,-3.77,-3.7876,-3.8107,-3.8107,-3.8237,-3.8335,-3.8335,-3.8335,-3.8335,-3.8391,-3.8391,-3.8391,-3.8408,-3.8391,-3.8448,-3.856,-3.8576,-3.8672,-3.8931,-3.8969,-3.8969,-3.8969,-3.8969,-3.9023,-3.9218,-3.9379,-3.9537,-3.9625,-3.9798,-3.9952,-4.007,-4.007,-4.007,-4.007,-4.007,-4.007,-4.0087,-3.9952,-3.9901,-3.9849,-3.9484,-3.9056,-3.8632,-3.8576,-3.8504,-3.8391,-3.8391,-3.8278,-3.818,-3.7833,-3.77,0.0,0.0,0.0,0.0,0.0,0.0,-2.1043,0.0,-2.1131,0.0,0.0,0.0,0.0,0.0,0.0,0.0,-2.4066,0.0,0.0,0.0,0.0,0.0,0.0,0.0,0.0,0.0,0.0,0.0,-2.9398,-2.9784,-3.0353,-3.0958,-3.1503,-3.1905,-3.2307,-3.2413,-3.2302,-3.2746,-3.3537,-3.4794,-3.5394,-3.629,-3.7508,-3.77,-3.7759,-3.7759,-3.77,-3.7642,-3.7583,-3.7539,-3.748,-3.7539,-3.7658,-3.77,-3.77,-3.77,-3.7759,-3.7817,-3.7759,-3.7759,-3.7817,-3.7934,-3.8123,-3.8237,-3.8278,-3.8351,-3.8391,-3.8391,-3.8391,-3.8391,-3.8391,-3.8448,-3.852,-3.852,-3.856,-3.8655,-3.8711,-3.8766,-3.8876,-3.8969,-3.9077,-3.9202,-3.9272,-3.9218,-3.9218,-3.9379,-3.9537,-3.9642,-3.9798,-3.9935,-4.0037,-4.007,-4.007,-4.007,-4.007,-4.007,-4.007,-4.007,-3.9986,-3.9849,-3.9781,-3.9484,-3.9164,-3.8821,-3.8672,-3.856,-3.852,-3.8448,-3.8391,-3.8278,-3.8107,-3.7876,-2.0518,0.0,0.0,0.0,0.0,0.0,0.0,0.0,0.0,0.0,0.0,0.0,0.0,0.0,-2.3172,-2.3551,0.0,-2.4142,0.0,0.0,0.0,0.0,0.0,0.0,0.0,0.0,0.0,-2.6855,-2.737,-2.7942,-2.8521,-2.9545,-3.0448,-3.1036,-3.1712,-3.2103,-3.2247,-3.2468,-3.3441,-3.5023,-3.5266,-3.6235,-3.7759,-3.7934,-3.7934,-3.7817,-3.7759,-3.77,-3.7642,-3.7539,-3.748,-3.7539,-3.7599,-3.77,-3.7759,-3.7759,-3.7817,-3.7876,-3.7876,-3.7934,-3.7992,-3.818,-3.8221,-3.8278,-3.8391,-3.8391,-3.8391,-3.8391,-3.8391,-3.8408,-3.8464,-3.852,-3.8616,-3.8672,-3.8711,-3.8805,-3.886,-3.8914,-3.9023,-3.9077,-3.9218,-3.9395,-3.9501,-3.9448,-3.9379,-3.9537,-3.9677,-3.9833,-3.9935,-4.0087,-4.0188,-4.0188,-4.0138,-4.0138,-4.007,-4.007,-4.007,-4.007,-3.9986,-3.9884,-3.9729,-3.952,-3.9255,-3.9023,-3.8821,-3.8672,-3.8616,-3.8504,-3.8464,-3.8391,-3.8294,-3.8049,0.0,0.0,0.0,-2.1548,0.0,0.0,0.0,0.0,-2.1131,0.0,0.0,0.0,0.0,-2.2678,-2.3068,-2.3508,-2.3894,0.0,0.0,0.0,0.0,0.0,0.0,0.0,0.0,0.0,0.0,-2.548,-2.6062,-2.6662,-2.7024,-2.8046,-2.9061,-3.0173,-3.0876,-3.1627,-3.2398,-3.2523,-3.3552,-3.5394,-3.5394,-3.6292,-3.7876,-3.8107,-3.7992,-3.77,-3.7817,-3.7759,-3.7539,-3.748,-3.748,-3.748,-3.748,-3.7642,-3.7876,-3.7876,-3.7876,-3.7876,-3.7876,-3.8049,-3.8237,-3.8351,-3.8391,-3.8391,-3.8391,-3.8391,-3.8391,-3.8391,-3.8391,-3.8464,-3.856,-3.8616,-3.8616,-3.875,-3.8805,-3.886,-3.8969,-3.9023,-3.9077,-3.9272,-3.9379,-3.9501,-3.9501,-3.9501,-3.9537,-3.9677,-3.9935,-4.007,-4.007,-4.032,-4.0436,-4.0305,-4.0288,-4.0238,-4.0121,-4.007,-4.007,-4.007,-4.0087,-3.9986,-3.9729,-3.9677,-3.9451,-3.9023,-3.8969,-3.8876,-3.8616,-3.8576,-3.852,-3.8391,-3.8294,-3.818,0.0,0.0,-2.1868,-2.1632,0.0,0.0,0.0,0.0,0.0,0.0,0.0,0.0,0.0,-2.2618,-2.3024,-2.3348,-2.3378,-2.3361,0.0,0.0,0.0,0.0,0.0,0.0,0.0,0.0,0.0,-2.421,-2.4241,-2.4675,-2.5557,-2.667,-2.7874,-2.9301,-3.0654,-3.1612,-3.2231,-3.2594,-3.3443,-3.4668,-3.5347,-3.623,-3.7416,-3.8068,-3.8221,-3.8049,-3.7934,-3.7817,-3.7658,-3.7539,-3.748,-3.7539,-3.7599,-3.77,-3.7759,-3.7876,-3.8049,-3.8221,-3.8221,-3.8294,-3.8351,-3.8408,-3.8391,-3.8408,-3.852,-3.8504,-3.856,-3.8655,-3.8655,-3.8711,-3.8711,-3.8821,-3.8876,-3.8914,-3.904,-3.9148,-3.9202,-3.9218,-3.9255,-3.9379,-3.9448,-3.959,-3.9833,-3.9884,-3.9935,-3.9986,-4.0138,-4.0238,-4.032,-4.0419,-4.0468,-4.0436,-4.0436,-4.0436,-4.0387,-4.037,-4.0337,-4.0238,-4.0238,-4.0087,-3.9833,-3.9729,-3.9573,-3.9325,-3.9077,-3.8985,-3.8876,-3.8672,-3.856,-3.852,-3.8391,-3.8278,-2.1411,-2.1812,0.0,-2.2163,-2.233,0.0,-2.274,0.0,-2.2374,0.0,0.0,0.0,0.0,0.0,-2.2934,-2.3275,-2.3266,-2.3106,0.0,-2.1926,0.0,0.0,0.0,0.0,0.0,0.0,-2.2818,-2.2785,-2.2826,-2.3223,0.0,0.0,-2.6826,-2.8252,-3.0042,-3.1313,-3.1989,-3.2594,-3.3442,-3.4482,-3.5144,-3.5899,-3.6715,-3.7293,-3.7464,-3.7254,-3.7125,-3.7011,-3.6869,-3.7065,-3.716,-3.7218,-3.7546,-3.7759,-3.7876,-3.7992,-3.8164,-3.8391,-3.8391,-3.8391,-3.8408,-3.8464,-3.8448,-3.8504,-3.8616,-3.8655,-3.8711,-3.875,-3.8805,-3.8805,-3.886,-3.8914,-3.9023,-3.9094,-3.9218,-3.9272,-3.9272,-3.9325,-3.9379,-3.9501,-3.959,-3.9798,-4.0087,-4.0238,-4.0288,-4.0221,-4.0337,-4.0502,-4.0534,-4.0631,-4.0631,-4.0583,-4.0583,-4.0534,-4.0517,-4.0485,-4.0485,-4.0387,-4.0355,-4.0205,-3.9986,-3.9833,-3.9694,-3.9501,-3.9272,-3.9148,-3.9023,-3.8821,-3.8727,-3.8655,-3.86,-3.8504]},{"header":{"parameterUnit":"m.s-1","parameterCategory":1,"la1":30.6,"la2":29.2853,"lo1":-89.7004,"lo2":-87.6739,"dy":0.0162,"dx":0.0183,"nx":112,"ny":82,"refTime":"2023-06-10T18:00:00:Z","depth":0,"parameterNumber":3,"parameterNumberName":"V-component_of_WINDS"},"data":[0.0,0.0,0.0,0.0,0.0,0.0,0.0,0.0,0.0,0.0,0.0,0.0,0.0,0.0,0.0,0.0,0.0,0.0,0.0,0.0,0.0,0.0,0.0,0.0,0.0,0.0,0.0,0.0,0.0,0.0,0.0,0.0,0.0,0.0,0.0,0.0,0.0,0.0,0.0,0.0,0.0,0.0,0.0,0.0,0.0,0.0,0.0,0.0,0.0,0.0,0.0,0.0,0.0,0.0,0.0,0.0,0.0,0.0,0.0,0.0,0.0,0.0,0.0,0.0,0.0,0.0,0.0,0.0,0.0,0.0,0.0,0.0,0.0,0.0,0.0,0.0,0.0,0.0,0.0,0.0,0.0,0.0,0.0,0.0,0.0,0.0,0.0,0.0,0.0,0.0,-0.9476,-1.1101,-1.2989,-1.4137,-1.4137,-1.3762,-1.3403,-1.2848,0.0,0.0,0.0,0.0,0.0,0.0,0.0,0.0,0.0,0.0,0.0,0.0,0.0,0.0,0.0,0.0,0.0,0.0,0.0,0.0,0.0,0.0,0.0,0.0,0.0,0.0,0.0,0.0,0.0,0.0,0.0,0.0,0.0,0.0,0.0,0.0,0.0,0.0,0.0,0.0,0.0,0.0,0.0,0.0,0.0,0.0,0.0,0.0,0.0,0.0,0.0,0.0,0.0,0.0,0.0,0.0,0.0,0.0,0.0,0.0,0.0,0.0,0.0,0.0,0.0,0.0,0.0,0.0,0.0,0.0,0.0,0.0,0.0,0.0,0.0,0.0,0.0,0.0,0.0,0.0,0.0,0.0,0.0,0.0,0.0,0.0,0.0,0.0,0.0,0.0,0.0,0.0,0.0,0.0,0.0,0.0,0.0,0.0,0.0,0.0,0.0,0.0,0.0,0.0,-1.027,-1.297,-1.4336,-1.51,-1.51,-1.4915,-1.4319,-1.3157,0.0,0.0,0.0,0.0,0.0,0.0,0.0,0.0,0.0,0.0,0.0,0.0,0.0,0.0,0.0,0.0,0.0,0.0,0.0,0.0,0.0,0.0,0.0,0.0,0.0,0.0,0.0,0.0,0.0,0.0,0.0,0.0,0.0,0.0,0.0,0.0,0.0,0.0,0.0,0.0,0.0,0.0,0.0,0.0,0.0,0.0,0.0,0.0,0.0,0.0,0.0,0.0,0.0,0.0,0.0,0.0,0.0,0.0,0.0,0.0,0.0,0.0,0.0,0.0,0.0,0.0,0.0,0.0,0.0,0.0,0.0,0.0,0.0,0.0,0.0,0.0,0.0,0.0,0.0,0.0,0.0,0.0,0.0,0.0,0.0,0.0,0.0,0.0,0.0,0.0,0.0,0.0,0.0,0.0,0.0,0.0,0.0,0.0,0.0,0.0,0.0,0.0,0.0,-1.073,-1.2315,-1.4355,-1.5473,-1.6087,-1.6087,-1.5685,-1.5028,-1.4096,-1.2601,0.0,0.0,0.0,0.0,0.0,0.0,0.0,0.0,0.0,0.0,0.0,0.0,0.0,0.0,0.0,0.0,0.0,0.0,0.0,0.0,0.0,0.0,0.0,0.0,0.0,0.0,0.0,0.0,0.0,0.0,0.0,0.0,0.0,0.0,0.0,0.0,0.0,0.0,0.0,0.0,0.0,0.0,0.0,0.0,0.0,0.0,0.0,0.0,0.0,0.0,0.0,0.0,0.0,0.0,0.0,0.0,0.0,0.0,0.0,0.0,0.0,0.0,0.0,0.0,0.0,0.0,0.0,0.0,0.0,0.0,0.0,0.0,0.0,0.0,0.0,0.0,0.0,0.0,0.0,0.0,0.0,0.0,0.0,0.0,0.0,0.0,0.0,0.0,0.0,0.0,0.0,0.0,0.0,0.0,0.0,0.0,0.0,0.0,0.0,0.0,0.0,0.0,-1.2701,-1.4201,-1.542,-1.628,-1.6812,-1.6902,-1.6244,-1.5614,-1.4976,-1.3461,0.0,0.0,0.0,0.0,0.0,0.0,0.0,0.0,0.0,0.0,0.0,0.0,0.0,0.0,0.0,0.0,0.0,0.0,0.0,0.0,0.0,0.0,0.0,0.0,0.0,0.0,0.0,0.0,0.0,0.0,0.0,0.0,0.0,0.0,0.0,0.0,0.0,0.0,0.0,0.0,0.0,0.0,0.0,0.0,0.0,0.0,0.0,0.0,0.0,0.0,0.0,0.0,0.0,0.0,0.0,0.0,0.0,0.0,0.0,0.0,0.0,0.0,0.0,0.0,0.0,0.0,0.0,0.0,0.0,0.0,0.0,0.0,0.0,0.0,0.0,0.0,0.0,0.0,0.0,0.0,0.0,0.0,0.0,0.0,0.0,0.0,0.0,0.0,0.0,0.0,0.0,0.0,0.0,0.0,0.0,0.0,0.0,0.0,0.0,0.0,0.0,0.0,-1.3367,-1.4828,-1.6063,-1.6766,-1.7139,-1.731,-1.6653,-1.5922,-1.5254,-1.3778,0.0,0.0,0.0,0.0,0.0,0.0,0.0,0.0,0.0,0.0,0.0,0.0,0.0,0.0,0.0,0.0,0.0,0.0,0.0,0.0,0.0,0.0,0.0,0.0,0.0,0.0,0.0,0.0,0.0,0.0,0.0,0.0,0.0,0.0,0.0,0.0,0.0,0.0,0.0,0.0,0.0,0.0,0.0,0.0,0.0,0.0,0.0,0.0,0.0,0.0,0.0,0.0,0.0,0.0,0.0,0.0,0.0,0.0,0.0,0.0,0.0,0.0,0.0,0.0,0.0,0.0,0.0,0.0,0.0,0.0,0.0,0.0,0.0,0.0,0.0,0.0,0.0,0.0,0.0,0.0,0.0,0.0,0.0,0.0,0.0,0.0,0.0,0.0,0.0,0.0,0.0,0.0,0.0,0.0,0.0,0.0,0.0,0.0,0.0,0.0,0.0,0.0,-1.4074,-1.5513,0.0,-1.722,-1.7538,-1.7546,-1.6871,-1.6138,-1.5396,0.0,0.0,0.0,0.0,0.0,0.0,0.0,0.0,0.0,0.0,0.0,0.0,0.0,0.0,0.0,0.0,0.0,0.0,0.0,0.0,0.0,0.0,0.0,0.0,0.0,0.0,0.0,0.0,0.0,0.0,0.0,0.0,0.0,0.0,0.0,0.0,0.0,0.0,0.0,0.0,0.0,0.0,0.0,0.0,0.0,0.0,0.0,0.0,0.0,0.0,0.0,0.0,0.0,0.0,0.0,0.0,0.0,0.0,0.0,0.0,0.0,0.0,0.0,0.0,0.0,0.0,0.0,0.0,0.0,0.0,0.0,0.0,0.0,0.0,0.0,0.0,0.0,0.0,0.0,0.0,0.0,0.0,0.0,0.0,0.0,0.0,0.0,0.0,0.0,0.0,0.0,0.0,0.0,0.0,0.0,0.0,0.0,0.0,0.0,0.0,0.0,0.0,-1.346,-1.488,-1.615,0.0,-1.7727,-1.804,-1.8203,-1.7542,-1.6868,-1.6118,0.0,0.0,0.0,0.0,0.0,0.0,0.0,0.0,0.0,0.0,0.0,0.0,0.0,0.0,0.0,0.0,0.0,0.0,0.0,0.0,0.0,0.0,0.0,0.0,0.0,0.0,0.0,0.0,0.0,0.0,0.0,0.0,0.0,0.0,0.0,0.0,0.0,0.0,0.0,0.0,0.0,0.0,0.0,0.0,0.0,0.0,0.0,0.0,0.0,0.0,0.0,0.0,0.0,0.0,0.0,0.0,0.0,0.0,0.0,0.0,0.0,0.0,0.0,0.0,0.0,0.0,0.0,0.0,0.0,0.0,0.0,0.0,0.0,0.0,0.0,0.0,0.0,0.0,0.0,0.0,0.0,0.0,0.0,0.0,0.0,0.0,0.0,0.0,0.0,0.0,0.0,0.0,0.0,0.0,0.0,0.0,0.0,0.0,0.0,0.0,0.0,0.0,-1.4284,-1.5562,-1.6757,-1.7925,-1.8374,-1.8763,-1.9277,-1.8751,-1.8118,0.0,0.0,0.0,0.0,0.0,0.0,0.0,0.0,0.0,0.0,0.0,0.0,0.0,0.0,0.0,0.0,0.0,0.0,0.0,0.0,0.0,0.0,0.0,0.0,0.0,0.0,0.0,0.0,0.0,0.0,0.0,0.0,0.0,0.0,0.0,0.0,0.0,0.0,0.0,0.0,0.0,0.0,0.0,0.0,0.0,0.0,0.0,0.0,0.0,0.0,0.0,0.0,0.0,0.0,0.0,0.0,0.0,0.0,0.0,0.0,0.0,0.0,0.0,0.0,0.0,0.0,0.0,0.0,0.0,0.0,0.0,0.0,0.0,0.0,0.0,0.0,0.0,0.0,0.0,0.0,0.0,0.0,0.0,0.0,0.0,0.0,0.0,0.0,0.0,0.0,0.0,0.0,0.0,0.0,0.0,0.0,0.0,0.0,0.0,0.0,0.0,0.0,0.0,-1.5299,-1.6696,-1.7853,-1.8655,-1.9186,-1.9583,-1.9667,-1.9321,-1.8682,-1.7982,0.0,0.0,0.0,0.0,0.0,0.0,0.0,0.0,0.0,0.0,0.0,0.0,0.0,0.0,0.0,0.0,0.0,0.0,0.0,0.0,0.0,0.0,0.0,0.0,0.0,0.0,0.0,0.0,0.0,0.0,0.0,0.0,0.0,0.0,0.0,0.0,0.0,0.0,0.0,0.0,0.0,0.0,0.0,0.0,0.0,0.0,0.0,0.0,0.0,0.0,0.0,0.0,0.0,0.0,0.0,0.0,0.0,0.0,0.0,0.0,0.0,0.0,0.0,0.0,0.0,0.0,0.0,0.0,0.0,0.0,0.0,0.0,0.0,0.0,0.0,0.0,0.0,0.0,0.0,0.0,0.0,0.0,0.0,0.0,0.0,0.0,0.0,0.0,0.0,0.0,0.0,0.0,0.0,0.0,0.0,0.0,0.0,0.0,0.0,0.0,0.0,0.0,-1.6119,-1.7552,-1.8737,-1.9388,-1.9938,-2.0332,-2.0409,-2.0201,-1.9805,-1.9173,0.0,0.0,0.0,0.0,0.0,0.0,0.0,0.0,0.0,0.0,0.0,0.0,0.0,0.0,0.0,0.0,0.0,0.0,0.0,0.0,0.0,0.0,0.0,0.0,0.0,0.0,0.0,0.0,0.0,0.0,0.0,0.0,0.0,0.0,0.0,0.0,0.0,0.0,0.0,0.0,0.0,0.0,0.0,0.0,0.0,0.0,0.0,0.0,0.0,0.0,0.0,0.0,0.0,0.0,0.0,0.0,0.0,0.0,0.0,0.0,0.0,0.0,0.0,0.0,0.0,0.0,0.0,0.0,0.0,0.0,0.0,0.0,0.0,0.0,0.0,0.0,0.0,0.0,0.0,0.0,0.0,0.0,0.0,0.0,0.0,0.0,0.0,0.0,0.0,0.0,0.0,0.0,0.0,0.0,0.0,0.0,0.0,0.0,0.0,0.0,0.0,0.0,-1.6957,-1.8364,-1.949,-2.0295,-2.0685,-2.0998,-2.125,-2.1259,-2.1102,-2.0706,0.0,0.0,0.0,0.0,0.0,0.0,0.0,0.0,0.0,0.0,0.0,0.0,0.0,0.0,0.0,0.0,0.0,0.0,0.0,0.0,0.0,0.0,0.0,0.0,0.0,0.0,0.0,0.0,0.0,0.0,0.0,0.0,0.0,0.0,0.0,0.0,0.0,0.0,0.0,0.0,0.0,0.0,0.0,0.0,0.0,0.0,0.0,0.0,0.0,0.0,0.0,0.0,0.0,0.0,0.0,0.0,0.0,0.0,0.0,0.0,-1.7167,0.0,0.0,0.0,0.0,0.0,0.0,0.0,0.0,0.0,0.0,0.0,0.0,0.0,0.0,0.0,0.0,0.0,0.0,0.0,0.0,0.0,0.0,0.0,0.0,0.0,0.0,0.0,0.0,0.0,0.0,0.0,0.0,0.0,0.0,0.0,0.0,0.0,0.0,0.0,0.0,0.0,-1.8185,-1.9488,-2.0567,-2.139,-2.1802,-2.2036,-2.2124,-2.2133,-2.1954,-2.1551,-2.1042,0.0,0.0,0.0,0.0,0.0,0.0,0.0,0.0,0.0,0.0,0.0,0.0,0.0,0.0,0.0,0.0,0.0,0.0,0.0,0.0,0.0,0.0,0.0,0.0,0.0,0.0,0.0,0.0,0.0,0.0,0.0,0.0,0.0,0.0,0.0,0.0,0.0,0.0,0.0,0.0,0.0,0.0,0.0,0.0,0.0,0.0,0.0,0.0,0.0,0.0,0.0,0.0,0.0,0.0,0.0,0.0,0.0,0.0,0.0,0.0,-1.7785,0.0,0.0,0.0,0.0,0.0,0.0,0.0,0.0,0.0,0.0,0.0,0.0,0.0,0.0,0.0,0.0,0.0,0.0,0.0,0.0,0.0,0.0,0.0,0.0,0.0,0.0,0.0,0.0,0.0,0.0,0.0,0.0,0.0,0.0,0.0,0.0,0.0,0.0,0.0,0.0,-1.9275,-2.0512,-2.1483,-2.2356,-2.2612,-2.282,-2.3019,-2.3128,-2.3038,-2.2627,-2.2284,0.0,0.0,0.0,0.0,0.0,0.0,0.0,0.0,0.0,0.0,0.0,0.0,0.0,0.0,0.0,0.0,0.0,0.0,0.0,0.0,0.0,0.0,0.0,0.0,0.0,0.0,0.0,0.0,0.0,0.0,0.0,0.0,0.0,0.0,0.0,0.0,0.0,0.0,0.0,0.0,0.0,0.0,0.0,0.0,0.0,0.0,0.0,0.0,0.0,0.0,0.0,0.0,0.0,-2.3482,-2.3803,-2.3803,-2.3378,-2.2997,-2.2652,-2.089,-1.9631,-1.8813,-1.9091,0.0,0.0,0.0,0.0,0.0,0.0,0.0,0.0,0.0,0.0,0.0,0.0,0.0,0.0,0.0,0.0,0.0,0.0,0.0,0.0,0.0,0.0,0.0,0.0,-2.0866,-2.0096,0.0,0.0,0.0,0.0,0.0,0.0,0.0,0.0,0.0,0.0,0.0,0.0,-2.0329,-2.1409,-2.2339,-2.3267,-2.3353,-2.3496,-2.383,-2.4054,-2.4002,-2.3644,-2.3309,-2.291,0.0,0.0,0.0,0.0,0.0,0.0,0.0,0.0,0.0,0.0,0.0,0.0,0.0,0.0,0.0,0.0,0.0,0.0,0.0,0.0,0.0,0.0,0.0,0.0,0.0,0.0,0.0,0.0,0.0,0.0,0.0,0.0,-1.8418,-1.825,0.0,0.0,0.0,0.0,0.0,0.0,0.0,0.0,0.0,0.0,0.0,0.0,0.0,-2.1192,-2.1517,-2.3289,-2.4262,-2.4408,-2.467,-2.4785,-2.4594,-2.4273,-2.4079,-2.4002,-2.347,0.0,-2.1125,-2.1637,0.0,0.0,0.0,0.0,0.0,0.0,0.0,0.0,0.0,0.0,0.0,0.0,0.0,0.0,0.0,0.0,0.0,0.0,0.0,0.0,0.0,0.0,-2.1849,-2.3257,-2.3286,-2.2907,0.0,-2.0596,-1.8584,-1.7858,-1.7379,0.0,0.0,0.0,0.0,0.0,0.0,0.0,-2.1274,-2.2188,-2.3034,-2.4147,-2.4244,-2.4263,-2.4312,-2.4322,-2.4302,-2.4244,-2.3935,-2.3486,-2.3018,-2.1748,0.0,0.0,0.0,0.0,0.0,0.0,0.0,0.0,0.0,0.0,0.0,0.0,0.0,0.0,0.0,0.0,0.0,0.0,0.0,0.0,0.0,0.0,0.0,0.0,0.0,0.0,0.0,0.0,0.0,-1.8329,-1.9248,-1.9729,-1.9823,-1.9405,0.0,0.0,0.0,0.0,0.0,0.0,0.0,0.0,0.0,-2.0413,-2.2065,-2.3052,-2.3229,-2.4593,-2.5346,-2.5371,-2.5975,-2.6189,-2.6021,-2.6111,-2.6037,-2.5883,-2.5742,-2.5264,-2.4447,-2.3715,-2.2983,-2.2376,0.0,0.0,0.0,0.0,-2.0531,-2.0591,-2.0794,-2.115,0.0,-2.154,0.0,0.0,0.0,0.0,0.0,0.0,0.0,0.0,0.0,0.0,-2.3835,-2.4633,-2.4603,-2.436,-2.4371,-2.3243,-2.1818,0.0,-1.9945,-1.959,-1.9443,0.0,0.0,0.0,0.0,-2.1742,-2.2565,-2.3428,-2.4193,-2.4717,-2.4972,-2.5071,-2.5317,-2.5526,-2.5426,-2.4992,-2.4569,-2.4136,-2.3535,-2.251,-2.1543,0.0,0.0,0.0,0.0,0.0,0.0,0.0,0.0,0.0,0.0,0.0,0.0,0.0,0.0,0.0,0.0,0.0,0.0,0.0,0.0,0.0,0.0,0.0,0.0,0.0,0.0,0.0,0.0,-1.956,-2.0248,-2.1097,-2.1237,-2.0871,0.0,0.0,0.0,0.0,0.0,0.0,-2.0494,-2.1693,-2.2426,-2.2533,-2.3862,-2.457,-2.4659,-2.5684,-2.6253,-2.6198,-2.6947,-2.7195,-2.7088,-2.7336,-2.736,-2.7198,-2.7136,-2.7146,-2.7095,-2.5625,-2.4932,-2.472,-2.472,-2.4401,-2.3881,-2.3692,-2.3616,-2.3682,-2.3971,-2.4122,-2.4244,-2.4244,0.0,-2.394,-2.3381,0.0,0.0,0.0,0.0,-2.4465,-2.5168,-2.535,-2.5463,-2.5812,-2.569,-2.5452,-2.5452,-2.5214,-2.4451,0.0,-2.232,-2.2012,-2.1865,0.0,0.0,0.0,0.0,-2.3507,-2.3869,-2.4585,-2.5139,-2.5376,-2.5625,-2.5849,-2.6167,-2.64,-2.626,-2.5739,-2.5099,-2.4562,-2.4055,-2.3027,-2.2158,-2.1497,0.0,0.0,0.0,0.0,0.0,0.0,0.0,0.0,0.0,0.0,0.0,0.0,0.0,0.0,0.0,0.0,0.0,0.0,0.0,0.0,0.0,0.0,0.0,0.0,0.0,0.0,0.0,0.0,0.0,-2.22,-2.3271,0.0,0.0,0.0,0.0,-2.099,-2.145,-2.2201,-2.3183,-2.394,-2.4577,-2.5115,-2.5665,-2.5932,-2.58,-2.6684,-2.7039,-2.6946,-2.7286,-2.7397,-2.7162,-2.7186,-2.7198,-2.7198,-2.6998,-2.7276,-2.7916,-2.732,-2.7089,-2.7003,-2.7101,-2.692,-2.6574,-2.6359,-2.6406,-2.6609,-2.6609,-2.6941,-2.7275,-2.7275,-2.7015,-2.651,-2.5968,-2.5795,0.0,0.0,-2.6322,-2.6335,-2.7244,-2.6988,-2.6508,-2.699,-2.6801,-2.6483,-2.6483,-2.6329,-2.5793,0.0,-2.4255,-2.4166,-2.4166,0.0,-2.4149,-2.417,-2.4395,-2.4684,-2.5058,-2.5335,-2.569,-2.632,-2.6167,-2.6177,-2.6496,-2.6496,-2.6496,-2.6466,-2.5361,-2.4792,-2.4772,-2.3271,-2.2389,-2.2175,-2.1313,0.0,0.0,0.0,0.0,0.0,0.0,0.0,0.0,0.0,0.0,0.0,0.0,0.0,0.0,0.0,0.0,0.0,0.0,0.0,0.0,0.0,0.0,0.0,0.0,0.0,0.0,0.0,0.0,-2.4324,-2.4552,0.0,-2.4028,-2.3782,-2.3622,-2.3418,-2.3651,-2.391,-2.4405,-2.5052,-2.5382,-2.531,-2.6214,-2.6621,-2.6412,-2.7073,-2.7286,-2.7152,-2.7616,-2.7733,-2.7529,-2.8216,-2.8518,-2.8542,-2.8811,-2.8952,-2.8863,-2.8749,-2.8536,-2.8232,-2.8244,-2.8277,-2.8233,-2.7952,-2.7891,-2.7903,-2.7715,-2.7715,-2.7865,-2.7865,-2.774,-2.7626,-2.7557,-2.7686,-2.8013,-2.8587,-2.8682,-2.8645,-2.9133,-2.8822,-2.8372,-2.8391,-2.8172,-2.7918,-2.7918,-2.7662,-2.722,-2.6863,-2.6105,-2.5616,-2.5838,-2.5658,-2.5586,-2.5586,-2.5792,-2.587,-2.5869,-2.6182,-2.6431,-2.6486,-2.6602,-2.6699,-2.6709,-2.688,-2.6853,-2.6378,-2.5706,-2.5149,-2.4666,-2.375,-2.3013,-2.2379,-2.2211,-2.1629,0.0,0.0,0.0,0.0,0.0,0.0,0.0,0.0,0.0,0.0,0.0,0.0,0.0,0.0,0.0,0.0,0.0,0.0,0.0,0.0,0.0,0.0,0.0,0.0,0.0,0.0,-2.474,-2.6087,-2.6023,-2.5758,-2.5445,-2.5207,-2.4964,-2.4805,-2.4948,-2.5027,-2.4981,-2.5598,-2.5784,-2.5558,-2.634,-2.6808,-2.6773,-2.7372,-2.7553,-2.7415,-2.7948,-2.8222,-2.827,-2.8979,-2.94,-2.9581,-2.9941,-2.9893,-2.9569,-2.9709,-2.9667,-2.9475,-2.9096,-2.9118,-2.9328,-2.911,-2.8973,-2.8999,-2.8725,-2.8674,-2.8674,-2.8674,-2.8875,-2.9101,-2.9225,-2.9618,-3.0074,-3.0454,-3.0503,-3.0449,-3.0406,-3.0074,-2.9579,-2.9335,-2.9079,-2.8798,-2.8798,-2.8355,-2.8051,-2.8219,-2.7481,-2.6941,-2.7087,-2.6987,-2.6901,-2.6901,-2.6888,-2.6806,-2.6629,-2.6812,-2.69,-2.6784,-2.689,-2.69,-2.6986,-2.7177,-2.7138,-2.665,-2.6115,-2.5483,-2.4946,-2.4303,-2.3649,-2.2929,-2.2855,-2.2401,-2.1471,0.0,0.0,0.0,0.0,0.0,0.0,0.0,0.0,0.0,0.0,0.0,0.0,0.0,0.0,0.0,0.0,0.0,0.0,0.0,0.0,0.0,0.0,0.0,-2.4881,-2.5873,-2.6831,-2.7469,-2.7669,-2.7349,-2.6409,-2.6051,-2.5625,-2.5051,-2.536,-2.5461,-2.5044,-2.5571,-2.5968,-2.608,-2.6311,-2.6565,-2.6872,-2.7617,-2.7883,-2.7675,-2.8282,-2.8799,-2.9304,-2.9328,-2.9629,-3.011,-3.0122,-3.0122,-3.011,-3.011,-3.0361,-3.0679,-2.9824,-2.9649,-2.9842,-2.9829,-2.9817,-2.9817,-2.9817,-2.9829,-2.9842,-2.9842,-3.035,-3.0938,-3.0938,-3.1478,-3.214,-3.214,-3.183,-3.1449,-3.1215,-3.0636,-3.0146,-2.9916,-2.9479,-2.9137,-2.9137,-2.8596,-2.8197,-2.8679,-2.833,-2.7967,-2.7967,-2.7979,-2.7998,-2.7998,-2.7631,0.0,-2.7262,-2.7081,-2.6996,-2.7262,-2.7081,-2.6986,-2.7262,-2.7262,-2.7251,-2.7241,-2.6619,-2.5992,-2.5675,-2.4936,-2.4354,-2.3867,-2.3302,-2.2805,-2.2385,0.0,0.0,0.0,0.0,0.0,0.0,0.0,0.0,0.0,0.0,0.0,0.0,0.0,0.0,0.0,0.0,0.0,0.0,0.0,0.0,0.0,0.0,-2.6596,-2.6535,-2.7403,-2.8278,-2.8927,-2.8401,-2.7831,-2.7455,-2.6789,-2.6202,-2.5661,-2.5591,-2.5557,-2.5589,-2.5757,-2.5934,-2.6233,-2.67,-2.6984,-2.7049,-2.7648,-2.7897,-2.7841,-2.8338,-2.8739,-2.9152,-2.9833,-3.0348,-3.0675,-3.106,-3.1011,-3.0663,-3.0663,-3.0701,-3.0753,-3.0528,-3.0636,-3.0896,-3.0532,-3.0394,-3.0394,-3.0394,-3.0633,-3.1027,-3.12,-3.1394,-3.1589,-3.1909,-3.2294,-3.2731,-3.2826,-3.2804,-3.2616,-3.2531,-3.1921,-3.1228,-3.1153,-3.0702,-3.0171,-3.0171,-2.9623,-2.9116,-2.9261,-2.8745,-2.8293,-2.8293,-2.81,-2.7904,-2.7726,-2.7452,0.0,-2.7262,-2.7262,-2.7262,-2.7262,-2.7262,-2.7262,-2.7262,-2.7262,-2.7117,-2.6786,-2.6744,-2.6566,-2.6107,-2.5727,-2.5295,-2.4859,-2.4353,-2.404,0.0,0.0,0.0,0.0,0.0,0.0,0.0,0.0,0.0,0.0,0.0,0.0,0.0,0.0,0.0,0.0,0.0,0.0,0.0,0.0,0.0,0.0,-2.6062,-2.7549,-2.7765,-2.8682,-2.9345,-2.9561,-2.8767,-2.7961,-2.7391,-2.6688,-2.6013,-2.5453,-2.5373,-2.5274,-2.5308,-2.5604,-2.5867,-2.6213,-2.6706,-2.717,-2.7602,-2.7976,-2.8316,-2.8539,-2.8821,-2.9164,-2.9569,-3.0174,-3.0739,0.0,-3.1529,-3.1492,-3.1204,-3.1204,-3.1295,0.0,0.0,0.0,0.0,0.0,-3.0947,-3.0947,-3.0947,-3.1216,-3.1562,-3.1737,-3.2064,-3.2487,-3.2743,-3.3131,-3.3571,-3.3584,-3.3482,-3.3313,-3.3154,-3.255,-3.1937,-3.1849,-3.1306,-3.0769,-3.0578,-3.0034,-2.9449,-2.9464,-2.9052,0.0,-2.8668,-2.8338,-2.8116,-2.7925,-2.79,-2.7821,-2.7821,-2.7655,-2.7541,-2.7541,-2.7365,-2.7262,-2.7262,-2.7262,0.0,0.0,0.0,-2.7125,-2.6732,-2.6445,0.0,0.0,0.0,-2.5605,-2.543,0.0,0.0,0.0,-2.2989,-2.2706,0.0,0.0,0.0,0.0,0.0,0.0,0.0,0.0,0.0,0.0,0.0,0.0,0.0,0.0,0.0,0.0,-2.6962,-2.778,-2.8417,-2.9216,-2.9696,-2.9358,-2.857,-2.7683,-2.6663,-2.5918,-2.5217,-2.4647,-2.4773,-2.4808,-2.465,0.0,0.0,0.0,0.0,-2.7313,-2.8229,-2.8526,-2.8867,-2.9347,-2.9406,-2.9675,-3.0121,-3.0418,-3.0866,-3.1306,-3.1572,-3.1661,-3.1661,-3.1661,-3.1886,-3.2025,-3.1271,-3.1232,-3.1486,-3.1486,-3.1486,-3.1486,-3.1486,0.0,0.0,-3.1996,-3.2667,-3.3325,-3.3407,-3.384,-3.4314,-3.4076,-3.381,-3.3556,-3.3154,-3.2736,-3.2325,-3.211,-3.1591,-3.0976,-3.0831,-3.0205,-2.9591,-2.9551,-2.9278,-2.9139,-2.9063,-2.8691,-2.8418,-2.831,-2.8458,-2.8618,-2.8618,-2.8255,-2.7997,-2.7997,0.0,0.0,-2.7513,-2.7461,-2.7525,-2.7715,-2.7662,-2.7609,-2.7398,-2.7162,-2.6986,-2.6757,-2.7197,-2.7251,-2.7144,-2.7309,-2.7621,-2.8012,-2.569,-2.4689,0.0,0.0,0.0,0.0,0.0,0.0,0.0,0.0,0.0,0.0,0.0,0.0,0.0,0.0,0.0,-2.6124,-2.685,-2.7377,-2.7218,-2.7223,-2.7494,-2.8163,-2.7472,-2.6582,-2.5652,-2.504,-2.4539,-2.4105,-2.4276,-2.4588,-2.4992,-2.5487,-2.6073,-2.6721,-2.7201,-2.7676,-2.8061,-2.8453,-2.8694,-2.8798,0.0,0.0,-2.9922,-3.0631,-3.1045,-3.1306,-3.1572,-3.1661,-3.1661,-3.1661,-3.2103,-3.2609,-3.2401,-3.2199,-3.2051,-3.2051,-3.2051,-3.2051,-3.2313,-3.2701,-3.3153,-3.3489,-3.365,-3.3643,-3.3907,-3.3888,0.0,-3.381,-3.3484,-3.324,-3.3167,-3.2562,-3.2147,-3.2573,-3.2129,-3.1597,-3.1728,-3.1244,-3.0611,-3.0143,-2.9677,-2.9317,-2.9016,-2.8953,-2.8791,-2.8582,-2.8556,-2.8618,-2.8618,-2.8535,-2.8483,-2.8483,-2.84,-2.8447,-2.8634,-2.831,-2.8198,-2.8476,-2.8316,-2.8179,-2.7876,-2.7858,-2.7754,-2.7698,-2.7774,-2.8,-2.8328,-2.8413,-2.8459,-2.8528,-2.6922,-2.649,0.0,0.0,0.0,0.0,0.0,0.0,0.0,0.0,0.0,0.0,0.0,-2.4178,-2.4938,0.0,-2.5742,-2.5631,-2.5813,-2.59,-2.5576,-2.5329,-2.5619,-2.6726,-2.6202,-2.5557,-2.4826,-2.4334,-2.3999,-2.3951,-2.4215,-2.4625,-2.5101,-2.6077,-2.6757,-2.7099,-2.7816,-2.8374,-2.8735,-2.8976,-2.9217,-2.9458,-2.9722,-2.9938,-3.0027,-3.0664,-3.1203,-3.1518,-3.1902,-3.2226,-3.2478,-3.2478,-3.2817,-3.3205,-3.3195,-3.3019,-3.2846,-3.2657,-3.2641,-3.2654,-3.2824,-3.3085,-3.3398,-3.3654,-3.3725,-3.3725,-3.3894,-3.381,-3.3628,-3.3484,-3.324,-3.3081,-3.2822,-3.2584,-3.241,-3.2587,-3.2385,-3.1985,-3.1769,-3.1349,-3.0849,-3.0219,-2.9974,-2.9748,-2.9484,-2.9515,-2.9341,-2.9001,-2.9156,-2.9301,-2.9301,-2.9104,-2.8959,-2.8959,-2.8842,-2.8896,-2.8995,-2.8781,-2.8721,-2.8914,-2.8748,-2.8555,-2.8407,-2.8396,-2.847,-2.8578,-2.8567,-2.8757,-2.9304,-2.9304,-2.9381,-2.9435,-2.8268,-2.7843,0.0,0.0,0.0,0.0,0.0,0.0,0.0,-2.3554,-2.3835,-2.4329,-2.4276,-2.4404,-2.5175,-2.4941,-2.4708,-2.4811,-2.4452,-2.4141,-2.4083,-2.3762,-2.3898,-2.5051,-2.4921,-2.449,-2.4107,-2.3812,-2.3727,-2.4073,-2.4412,-2.4825,-2.5365,-2.6568,-2.7346,-2.7532,-2.8339,-2.9056,-2.9493,-2.9596,-2.9837,-3.0216,-3.0216,-3.0273,-3.0365,-3.0933,-3.1395,-3.1866,-3.2452,-3.2899,-3.3203,-3.3299,-3.3428,-3.351,-3.3591,-3.3601,-3.36,-3.3333,-3.3308,-3.3283,-3.3269,-3.3391,-3.3538,-3.3522,-3.3556,-3.3641,-3.3641,-3.3556,-3.3471,-3.3154,-3.307,-3.2972,-3.2548,-3.2686,-3.2841,-3.2663,-3.2628,-3.2475,-3.1718,-3.145,-3.1074,-3.0482,-3.0264,-3.0176,-3.0141,-2.9994,-2.987,-2.9497,-2.9756,-2.9994,-2.9994,-2.9673,-2.9435,-2.9538,-2.9398,-2.9326,-2.9331,-2.9396,-2.9397,-2.9223,-2.9023,-2.8855,-2.8757,-2.8757,-2.885,-2.9128,-2.9128,-2.9324,-2.9886,-2.9886,-2.9966,-3.0204,-2.9376,-2.8835,-1.9925,-2.1568,-2.3245,-2.3833,-2.4671,-2.5257,0.0,-2.4828,-2.4747,-2.4751,-2.4487,-2.4297,-2.4359,-2.4081,-2.38,-2.3714,-2.3166,-2.287,-2.3375,-2.2797,-2.2528,-2.2999,-2.3287,-2.3538,-2.3765,-2.3722,-2.393,-2.4445,-2.4836,-2.5469,-2.6119,-2.6745,-2.7417,-2.8211,-2.8874,-2.9258,-2.9504,-2.9917,-3.017,-3.0216,-3.0216,-3.0468,-3.0928,-3.1367,-3.1913,-3.2406,-3.3002,-3.3143,-3.2947,-3.341,-3.3505,-3.3397,-3.3768,-3.3909,-3.3895,-3.3931,-3.3995,-3.409,-3.3859,-3.3859,-3.4045,-3.3807,-3.3556,-3.3398,-3.3398,-3.3142,-3.2797,-3.2797,-3.2808,-3.2832,-3.2743,-3.2974,-3.332,-3.3493,-3.3362,-3.3141,-3.2696,-3.2487,-3.2096,-3.1235,-3.0845,-3.066,-3.0391,-3.0193,-2.9973,-2.9922,-2.9963,-2.9994,-2.9994,-2.9953,-3.0016,-3.0214,-3.0265,-3.0271,-3.0364,-3.0578,-3.0384,-2.9532,-2.9434,-2.9205,-2.8779,-2.8757,-2.885,-2.9128,-2.9128,-2.9324,-2.9886,-2.9886,-2.9966,-3.0216,-2.9909,-2.9444,-2.2323,-2.3435,-2.4474,-2.5337,-2.5801,-2.6001,-2.5872,-2.5506,-2.5117,-2.4518,-2.3947,-2.3412,-2.289,-2.2469,-2.2171,-2.2198,-2.2021,-2.2082,-2.2457,-2.2302,-2.219,-2.2306,-2.2402,-2.2659,-2.3294,-2.3502,-2.3805,-2.4653,-2.4973,-2.5667,-2.6606,-2.7286,-2.8049,-2.8808,-2.9475,-2.9827,-2.9917,-3.0112,-3.0376,-3.0686,-3.0686,-3.095,-3.1456,-3.1985,-3.2641,-3.3434,-3.3756,-3.3899,-3.3815,-3.3847,-3.3856,-3.3844,-3.4124,-3.4209,-3.4198,-3.4039,-3.4089,-3.4144,-3.3999,-3.4015,-3.4068,-3.4085,-3.401,-3.3921,-3.3921,-3.3756,-3.3578,-3.331,-3.321,-3.3211,-3.3131,-3.3425,-3.3695,-3.3541,-3.3632,-3.3511,-3.2812,-3.2544,-3.224,-3.1333,-3.1127,-3.0931,-3.0713,-3.0516,-3.0516,-3.0516,-3.0203,-2.9994,-2.9994,-3.0099,-3.0401,-3.0817,-3.092,-3.0938,-3.1131,-3.0961,-3.0614,-2.9947,-2.9642,-2.927,-2.8779,-2.8757,-2.885,-2.8943,-2.8943,-2.9128,-2.9416,-2.9588,-2.9772,-3.0057,-2.9977,-2.9681,-2.4013,-2.4687,-2.5167,-2.6065,-2.6232,-2.6141,-2.5819,-2.5315,-2.459,-2.3586,-2.2855,-2.2091,-2.1369,-2.0974,-2.0826,-2.1185,-2.125,-2.1467,-2.2061,-2.2166,-2.2224,-2.2224,-2.2185,-2.2392,-2.304,-2.3307,-2.3849,-2.4945,-2.5326,-2.6023,-2.7114,-2.7886,-2.8643,-2.933,-2.9863,-3.0136,-3.0136,-3.0274,-3.0526,-3.0915,-3.1157,-3.1479,-3.1972,-3.2579,-3.3231,-3.4006,-3.4278,-3.4249,-3.415,-3.4064,-3.3977,-3.3878,-3.415,-3.4347,-3.435,-3.4265,-3.4255,-3.4335,-3.4188,-3.4139,-3.4207,-3.4218,-3.426,-3.426,-3.426,-3.4168,-3.4077,-3.3722,-3.3635,-3.3663,-3.3489,-3.3873,-3.4066,-3.3608,-3.3805,-3.3767,-3.2745,-3.2544,-3.224,-3.1424,-3.123,-3.1127,-3.0931,-3.0827,-3.0838,-3.0838,-3.0516,-3.0203,-3.0203,-3.0401,-3.0806,-3.1127,-3.123,-3.1424,-3.1618,-3.1302,-3.0898,-3.0428,-3.0067,-2.9598,-2.8986,-2.8953,-2.8888,-2.8757,-2.8757,-2.8943,-2.9128,-2.9393,-2.968,-2.9886,-2.9977,-2.9977,-2.464,-2.5364,-2.5893,-2.5992,-2.6089,-2.5887,-2.4743,-2.3813,-2.2987,-2.193,-2.1141,-2.0526,-1.9966,-1.9726,-1.9913,-2.0849,-2.0857,-2.1188,-2.2573,-2.2626,-2.248,-2.248,-2.2873,-2.3153,0.0,-2.3405,-2.4108,-2.5473,-2.598,-2.6715,-2.7645,-2.8411,-2.9083,-2.9852,-2.9886,-2.9886,-2.9886,-3.0351,-3.0589,-3.0612,-3.1407,-3.1995,-3.2489,-3.329,-3.3843,-3.4052,-3.4064,-3.3977,-3.3679,-3.3679,-3.358,-3.3381,-3.3878,-3.4075,-3.4162,-3.4605,-3.4981,-3.5101,-3.4579,-3.4597,-3.4699,-3.417,-3.401,-3.401,-3.401,-3.3814,-3.363,-3.363,-3.3808,-3.4018,-3.4018,-3.4414,-3.4617,-3.4139,-3.4064,-3.3767,-3.2745,-3.2544,-3.2342,-3.1732,-3.1424,-3.123,-3.123,-3.0931,-3.0838,-3.0838,-3.0838,-3.0734,-3.0734,-3.1034,-3.123,-3.123,-3.1424,-3.1629,-3.1618,-3.1607,-3.1389,-3.0908,-3.0865,-3.0428,-2.95,-2.9467,-2.9237,-2.8861,-2.8757,-2.8943,-2.9128,-2.9393,-2.968,-2.9886,-3.0136,-3.0216,-2.4739,-2.5058,-2.5142,-2.5087,-2.4735,-2.4147,-2.3119,-2.2421,-2.1705,-2.0643,-2.0074,-1.9628,-1.9198,-1.9075,-1.9375,-2.0427,-2.0573,-2.0907,-2.2128,-2.2244,-2.2357,-2.2664,-2.2838,0.0,0.0,0.0,0.0,-2.5073,-2.583,-2.6661,-2.7492,-2.8143,-2.8902,-2.9577,-2.9588,-2.9746,-3.0083,-3.0427,-3.0929,-3.1598,-3.2426,-3.2955,-3.3314,-3.3598,-3.3878,-3.4075,-3.3878,-3.3779,-3.3679,-3.3481,-3.3381,-3.3381,-3.3878,-3.4075,-3.4174,-3.464,-3.4726,-3.4702,-3.4631,-3.4763,-3.4823,-3.4844,-3.489,-3.508,-3.508,-3.4973,-3.4878,-3.4688,-3.4618,-3.4559,-3.4559,-3.4691,-3.464,-3.4162,-3.4075,-3.3878,-3.298,-3.2667,-3.2342,-3.1924,-3.1618,-3.1527,-3.1721,-3.1629,-3.1618,-3.1618,-3.1127,-3.0827,-3.1034,-3.1127,-3.123,-3.1424,-3.1527,-3.1618,-3.1618,-3.1618,-3.1422,-3.093,-3.0898,-3.0472,-2.9521,-2.9489,-2.9248,-2.8861,-2.8757,-2.885,-2.8943,-2.9301,-2.9588,-2.968,-3.0034,-3.0216,-2.4433,-2.4347,-2.4069,-2.4002,-2.3416,-2.2737,-2.183,-2.1376,-2.0764,-1.9911,-1.9518,-1.9253,-1.9008,-1.9008,-1.9307,-2.0346,-2.0637,-2.1145,-2.2295,-2.2633,-2.2848,-2.3145,-2.3309,-2.3608,0.0,0.0,0.0,-2.5091,-2.5815,-2.6646,-2.7477,-2.8217,-2.8884,-2.9661,-2.9673,-2.9907,-3.0494,-3.0852,-3.1553,-3.2579,-3.3021,-3.3381,-3.358,-3.358,-3.3679,-3.3779,-3.3679,-3.358,-3.358,-3.3381,-3.3281,-3.3381,-3.3779,-3.3977,-3.3977,-3.4445,-3.4531,-3.4433,-3.4726,-3.4738,-3.4726,-3.5126,-3.532,-3.5512,-3.562,-3.562,-3.5512,-3.532,-3.5126,-3.4932,-3.4823,-3.4726,-3.4543,-3.4162,-3.4075,-3.3779,-3.3092,-3.2779,-3.2555,-3.2229,-3.2026,-3.2026,-3.2128,-3.2229,-3.2128,-3.2015,-3.1527,-3.123,-3.1322,-3.1322,-3.1424,-3.1618,-3.1618,-3.1618,-3.1618,-3.1618,-3.1487,-3.1171,-3.1149,-3.0734,-2.9784,-2.974,-2.9434,-2.8768,-2.8757,-2.8757,-2.8757,-2.9209,-2.9393,-2.9485,-2.9954,-3.0045,-2.3717,-2.3286,-2.2808,-2.2733,-2.2286,-2.1639,-2.1019,-2.0593,-2.027,-1.9736,-1.9473,-1.9341,-1.9341,-1.9362,-1.9676,-2.0558,-2.1114,-2.1847,-2.2998,-2.3588,-2.3888,-2.3908,-2.4302,-2.4657,-2.4903,-2.5409,0.0,-2.5714,0.0,-2.6759,-2.7651,-2.8403,-2.9173,-2.988,-2.9891,-3.0219,-3.0998,-3.1502,-3.2293,-3.3281,-3.3281,-3.3281,-3.3281,-3.3281,-3.3281,-3.3281,-3.3281,-3.3281,-3.3281,-3.3281,-3.3281,-3.3281,-3.358,-3.3679,-3.3779,-3.4249,-3.4433,-3.4433,-3.4726,-3.4628,-3.4531,-3.503,-3.5223,-3.5223,-3.5524,-3.562,-3.5524,-3.532,-3.5223,-3.5126,-3.4823,-3.4628,-3.4347,-3.4174,-3.3878,-3.358,-3.298,-3.2891,-3.2779,-3.2555,-3.2544,-3.2544,-3.2544,-3.2544,-3.2443,-3.2128,-3.2015,-3.1913,-3.1618,-3.1618,-3.1618,-3.1618,-3.1618,-3.1618,-3.1618,-3.1618,-3.1618,-3.1618,-3.1618,-3.1203,-3.0253,-3.0209,-2.9751,-2.8779,-2.8757,-2.8757,-2.8757,-2.9035,-2.922,-2.9485,-2.9783,-2.9886,-2.2711,-2.2477,-2.2153,-2.1631,-2.1135,-2.0711,-2.0366,-2.0324,-2.0335,-2.0042,-2.0042,-2.0042,-1.9911,-2.0081,-2.0396,-2.0854,-2.1335,-2.1994,-2.2787,-2.3164,-2.3655,-2.4248,-2.4757,-2.5201,-2.5635,-2.608,0.0,0.0,-2.7153,-2.7463,-2.7672,-2.8403,-2.9162,-2.9847,-2.9869,-3.0459,-3.1513,-3.2228,-3.2855,-3.3281,-3.3281,-3.3281,-3.3281,-3.3281,-3.3281,-3.3281,-3.3281,-3.3281,-3.3281,-3.3281,-3.3281,-3.3281,-3.358,-3.3679,-3.3779,-3.4249,-3.4347,-3.4261,-3.464,-3.4726,-3.4726,-3.5126,-3.532,-3.5524,-3.5824,-3.5716,-3.562,-3.5524,-3.5223,-3.4823,-3.4531,-3.4433,-3.4347,-3.3878,-3.3779,-3.358,-3.3281,-3.3081,-3.2891,-3.2779,-3.2779,-3.2779,-3.2779,-3.2779,-3.2779,-3.2667,-3.224,-3.1913,-3.1618,-3.1618,-3.1618,-3.1618,-3.1618,-3.1618,-3.1618,-3.1618,-3.1618,-3.1618,-3.1618,-3.1203,-3.0253,-3.0209,-2.9751,-2.8779,-2.8757,-2.8757,-2.8757,-2.9035,-2.9128,-2.922,-2.9497,-2.9588,-2.2471,-2.2141,-2.1865,-2.1262,-2.0903,-2.0582,-2.0506,-2.0571,-2.07,-2.0741,-2.0933,-2.0996,-2.0794,-2.0848,-2.1019,-2.1322,-2.1796,-2.236,-2.3039,-2.3567,-2.4155,-2.4584,-2.5183,-2.5802,-2.6464,-2.6926,-2.7478,0.0,-2.778,-2.7667,-2.7985,-2.8511,-2.9261,-3.0157,-3.0359,-3.0935,-3.2239,-3.2833,-3.3181,-3.3281,-3.3281,-3.3281,-3.3281,-3.3281,-3.3381,-3.3481,0.0,-3.3481,-3.3481,-3.3481,-3.3381,-3.3281,-3.358,-3.3679,-3.3779,-3.4249,-3.4445,-3.4445,-3.4835,-3.503,-3.5223,-3.5332,-3.5524,-3.5824,-3.6086,-3.6003,-3.5716,-3.562,-3.532,-3.492,-3.4531,-3.4347,-3.415,-3.3679,-3.3381,-3.3281,-3.2969,-3.2869,-3.2779,-3.2891,-3.2992,-3.3092,-3.3092,-3.3092,-3.3092,-3.2891,-3.2555,-3.2128,-3.1823,-3.1618,-3.1618,-3.1618,-3.1618,-3.1618,-3.1618,-3.1618,-3.1618,-3.1618,-3.1618,-3.1203,-3.0253,-3.0209,-2.9751,-2.8779,-2.8757,-2.8757,-2.8757,-2.8943,-2.9035,-2.9128,-2.9209,-2.9301,-2.2604,-2.2211,-2.1815,-2.1411,-2.1094,-2.0955,-2.1019,-2.1135,-2.129,-2.1584,-2.1892,-2.1978,-2.172,-2.1639,-2.1654,-2.1799,-2.2252,-2.2798,-2.3446,-2.4282,-2.4882,-2.5031,-2.5679,-2.6431,-2.7382,-2.7728,-2.839,-2.9452,-2.8342,-2.7839,-2.8466,-2.8757,-2.9487,-3.0652,-3.1099,-3.1886,-3.298,-3.3181,-3.3281,-3.3281,-3.3212,-3.3289,-3.3277,-3.322,-3.3319,-3.3674,-3.3604,0.0,-3.3767,-3.3709,-3.3522,-3.3381,-3.3679,-3.3779,-3.3779,-3.4249,-3.4531,-3.4823,-3.5126,-3.5428,-3.562,-3.562,-3.5812,-3.6015,-3.6275,-3.6181,-3.5908,-3.562,-3.532,-3.503,-3.4531,-3.4162,-3.3878,-3.3381,-3.3081,-3.2779,-3.2544,-3.2544,-3.2555,-3.2891,-3.3092,-3.3281,-3.3281,-3.3281,-3.3181,-3.2992,-3.2667,-3.2342,-3.2015,-3.1721,-3.1629,-3.1527,-3.1462,-3.1429,-3.1429,-3.1429,-3.1429,-3.1429,-3.1483,-3.1102,-3.0253,-3.0209,-2.9751,-2.8779,-2.8757,-2.8757,-2.8757,-2.8757,-2.885,-2.9035,-2.9035,-2.9035,-2.2714,-2.2445,-2.2187,-2.1714,-2.1463,-2.1336,-2.1526,-2.1753,-2.1932,-2.1919,-2.2441,-2.2687,-2.2038,-2.2333,-2.2474,-2.1864,-2.2309,-2.2897,-2.3391,-2.3879,-2.4608,-2.56,-2.6584,-2.7327,-2.7832,-2.8656,0.0,0.0,-2.9223,-2.9212,-2.9301,-2.9301,-2.9956,-3.1253,-3.2286,-3.2998,-3.3181,-3.3281,-3.3281,-3.3281,-3.3053,-3.2955,-3.2943,-3.2707,-3.2934,-3.3309,-3.2887,0.0,-3.404,-3.352,-3.359,-3.3977,-3.3977,-3.4075,-3.4075,-3.4347,-3.4531,-3.4823,-3.5126,-3.5428,-3.562,-3.5824,-3.592,-3.6015,-3.6098,-3.5908,-3.562,-3.532,-3.4932,-3.4433,-3.4261,-3.3779,-3.3381,-3.3081,-3.2768,-3.2555,-3.2544,-3.2544,-3.2555,-3.2891,-3.2992,-3.3092,-3.3281,-3.3281,-3.3181,-3.2992,-3.2667,-3.2342,-3.2015,-3.1721,-3.1527,-3.1322,-3.0965,-3.0637,-3.0344,-3.0344,-3.0434,-3.0637,-3.1003,-3.09,-3.0253,-3.0209,-2.9751,-2.8779,-2.8757,-2.8757,-2.8757,-2.8757,-2.885,-2.885,-2.885,-2.885,-2.315,-2.2884,-2.2628,-2.2099,-2.1925,-2.1851,-2.1925,-2.1933,-2.2005,-2.2334,-2.2743,-2.2916,-2.2578,-2.2782,-2.287,-2.2562,-2.2857,-2.3285,-2.3649,-2.4388,-2.524,-2.588,-2.7097,-2.8128,-2.8551,-2.9363,-2.9943,-3.0227,0.0,-2.9943,-2.9485,-3.0176,-3.0891,-3.1928,-3.2891,-3.3281,-3.3281,-3.3281,-3.3281,-3.3281,-3.307,-3.2913,-3.2913,-3.2957,-3.3076,-3.3311,-3.3408,0.0,-3.4052,-3.3891,-3.3938,-3.4075,-3.4261,-3.4249,-3.4249,-3.4543,-3.4738,-3.503,-3.5126,-3.5428,-3.562,-3.5716,-3.5812,-3.5812,-3.5812,-3.562,-3.532,-3.503,-3.4726,-3.4335,-3.3779,-3.3481,-3.317,-3.2555,-3.224,-3.2037,-3.2037,-3.2128,-3.224,-3.2454,-3.2566,-3.2768,-3.2869,-3.2857,-3.2869,-3.2667,-3.2443,-3.2039,-3.1594,-3.1258,-3.0954,-3.0852,-3.0332,-2.9963,-2.9764,-2.9774,-2.9864,-2.9963,-3.0267,-3.0173,-2.9677,-2.9742,-2.9489,-2.8768,-2.8757,-2.8757,-2.8757,-2.8757,-2.8757,-2.8757,-2.8757,-2.8757,-2.3616,-2.339,-2.3078,-2.2432,-2.2309,-2.2371,-2.2371,-2.2175,-2.2143,-2.259,-2.2803,-2.2903,-2.2773,-2.2904,-2.2967,-2.2885,-2.3292,-2.3688,-2.3936,-2.5009,-2.5905,-2.6257,-2.7626,0.0,-2.9165,-2.9908,0.0,-3.0984,0.0,0.0,-2.976,-3.0827,-3.1746,-3.2317,-3.2948,-3.3281,-3.3281,-3.3281,-3.3281,-3.3281,-3.307,-3.2913,-3.2913,-3.3098,-3.3194,-3.3311,-3.3669,0.0,0.0,-3.3835,-3.387,-3.3997,-3.4169,-3.4267,-3.4278,-3.457,-3.4691,-3.4883,-3.4883,-3.5051,-3.5341,-3.5341,-3.5426,-3.562,-3.5524,-3.532,-3.5126,-3.4835,-3.4531,-3.415,-3.3469,-3.3181,-3.2969,-3.2128,-3.1721,-3.1618,-3.1618,-3.1721,-3.1913,-3.2015,-3.2229,-3.2443,-3.2443,-3.2544,-3.2443,-3.2443,-3.2128,-3.1748,-3.0985,-3.0532,-3.0224,-3.0117,-2.9597,-2.9285,-2.9186,-2.9186,-2.9186,-2.9285,-2.9556,-2.9493,-2.9138,-2.9393,-2.9248,-2.8861,-2.8757,-2.8757,-2.8757,-2.8757,-2.8757,-2.8757,-2.8757,-2.8757,-2.3794,-2.37,-2.339,-2.28,-2.2739,-2.286,-2.286,-2.2698,-2.2603,-2.2544,-2.2561,-2.247,-2.1917,-2.235,-2.27,-2.2201,-2.3091,-2.3831,-2.3909,-2.5094,-2.6221,-2.6933,0.0,0.0,-2.9579,-3.0449,-3.0972,-3.0984,0.0,0.0,-3.0487,-3.1297,-3.1789,-3.1834,-3.2776,-3.3281,-3.3281,-3.3281,-3.3281,-3.3281,-3.307,-3.2913,-3.2901,-3.2627,-3.2865,-3.3253,-3.2324,0.0,0.0,-3.2312,-3.2489,-3.3431,-3.3624,-3.3731,-3.3755,-3.403,-3.3908,-3.3776,-3.3776,-3.4092,-3.4494,-3.4494,-3.5025,-3.5512,-3.532,-3.5223,-3.5126,-3.4628,-3.4249,-3.3977,-3.3481,-3.2969,-3.2443,-3.1823,-3.1629,-3.1618,-3.1618,-3.1629,-3.1721,-3.1924,-3.2015,-3.2128,-3.2443,-3.2544,-3.2443,-3.2117,-3.2015,-3.1647,-3.0673,-2.9953,-2.9327,-2.8686,-2.8505,-2.8387,-2.8084,-2.8094,-2.8192,-2.8484,-2.908,-2.9309,-2.9138,-2.9393,-2.9248,-2.8861,-2.8757,-2.8757,-2.8757,-2.8757,-2.8757,-2.8757,-2.8757,-2.8757,-2.3568,-2.3606,-2.3582,-2.286,-2.28,-2.2809,-2.2414,-2.2266,-2.2159,-2.2062,-2.2115,-2.2101,-2.1849,-2.2494,-2.2941,-2.254,-2.3579,-2.4415,-2.4293,-2.5697,-2.6908,-2.7276,-2.8757,0.0,0.0,0.0,-3.1685,0.0,0.0,0.0,-3.1306,-3.147,-3.1877,-3.2395,-3.269,-3.296,-3.3281,-3.3281,-3.3281,-3.3281,-3.307,-3.2913,-3.2913,-3.3004,-3.3016,-3.3083,-3.2746,0.0,0.0,-3.2383,-3.2418,-3.2794,-3.2984,-3.309,-3.3196,-3.3279,-3.3347,-3.3458,-3.3458,-3.3603,-3.3739,-3.3958,-3.421,-3.4535,-3.4836,-3.4835,-3.464,-3.4347,-3.4075,-3.3679,-3.2969,-3.2342,-3.1936,-3.1629,-3.1618,-3.1618,-3.1618,-3.1618,-3.1618,-3.1721,-3.1721,-3.1823,-3.1936,-3.1936,-3.1924,-3.1823,-3.157,-3.1018,-3.0063,-2.9383,-2.872,-2.786,-2.7723,-2.7712,-2.7521,-2.7521,-2.7617,-2.7712,-2.8264,-2.8476,-2.8485,-2.8853,-2.8953,-2.8757,-2.8757,-2.8757,-2.8757,-2.8757,-2.8757,-2.8757,-2.8757,-2.8757,-2.3355,-2.341,-2.3482,-2.2932,-2.2784,-2.2668,-2.2268,-2.1982,-2.1848,-2.1785,-2.1714,-2.1696,-2.1645,-2.2405,-2.2932,-2.2596,-2.386,-2.4872,-2.4536,-2.6009,-2.7262,-2.757,0.0,-2.9997,0.0,-3.1491,-3.2213,0.0,0.0,0.0,-3.1761,-3.1636,-3.1891,-3.2532,-3.263,-3.2782,-3.3162,-3.3312,-3.3281,-3.3281,-3.3123,-3.3047,-3.3047,-3.3243,-3.3243,-3.3024,-3.2893,0.0,0.0,-3.2125,-3.1938,-3.2078,-3.2265,-3.2452,-3.2533,-3.273,-3.2843,-3.2815,-3.2723,-3.2819,-3.3035,-3.328,-3.3458,-3.3671,-3.4388,-3.4445,-3.4249,-3.4064,-3.3668,-3.317,-3.2544,-3.2026,-3.1618,-3.1618,-3.1618,-3.1618,-3.1618,-3.1618,-3.1618,-3.1618,-3.1618,-3.1618,-3.1618,-3.1618,-3.1575,-3.1433,-3.1015,-3.0381,-2.9394,-2.8923,-2.8242,-2.7398,-2.7262,-2.7262,-2.7262,-2.7262,-2.7262,-2.7262,-2.7631,-2.7904,-2.7998,-2.8477,-2.8757,-2.8757,-2.8757,-2.8757,-2.8757,-2.8757,-2.8757,-2.8757,-2.8757,-2.8757,-2.3241,-2.3223,-2.3026,-2.3059,-2.277,-2.247,-2.247,-2.2105,-2.1719,-2.186,-2.1546,-2.1193,-2.1046,-2.1877,-2.2454,-2.2018,-2.3833,-2.5116,-2.4601,-2.5908,-2.722,0.0,0.0,-2.9653,-3.0984,-3.1919,0.0,0.0,0.0,0.0,-3.2062,-3.2076,-3.1999,-3.1736,-3.2474,-3.2924,-3.2924,-3.3139,-3.3281,-3.3281,-3.3281,-3.3281,-3.3281,-3.3269,-3.3269,0.0,0.0,0.0,0.0,-3.0927,-3.0823,-3.1112,-3.1828,-3.1908,-3.1816,-3.2309,-3.2154,-3.1685,-3.1407,-3.1663,-3.2174,-3.2417,-3.2841,-3.3358,-3.3911,-3.4075,-3.4075,-3.3779,-3.3158,-3.2443,-3.2117,-3.1823,-3.1618,-3.1618,-3.1618,-3.1618,-3.1618,-3.1618,-3.1618,-3.1618,-3.1618,-3.1618,-3.1618,-3.1618,-3.1455,-3.0974,-3.0708,-3.0063,-2.8828,-2.8517,-2.8145,-2.7409,-2.7262,-2.7262,-2.7262,-2.7262,-2.7262,-2.7262,-2.7441,-2.7726,-2.7998,-2.829,-2.8488,-2.8757,-2.8757,-2.8757,-2.8757,-2.8757,-2.8757,-2.8757,-2.8757,-2.8757,-2.2312,-2.2456,-2.2646,-2.2211,-2.2122,-2.1992,-2.1584,-2.1601,-2.1639,-2.1342,-2.1314,-2.1399,-2.1703,-2.2285,-2.2735,-2.2674,-2.4137,-2.518,0.0,0.0,0.0,-2.7999,-2.9431,-3.0914,0.0,0.0,0.0,0.0,0.0,0.0,-3.3391,-3.2768,-3.2285,-3.1988,-3.2195,-3.2541,-3.2913,-3.3128,-3.3281,-3.3281,-3.3281,-3.3281,-3.3281,-3.3281,-3.3281,0.0,0.0,0.0,0.0,-3.1402,-3.1122,-3.1038,-3.1219,-3.1388,-3.1466,-3.1657,-3.1728,-3.1661,-3.1395,-3.1413,-3.1608,-3.2113,-3.2311,-3.2613,-3.3314,-3.3679,-3.3679,-3.3281,-3.2656,-3.2128,-3.2015,-3.1823,-3.1618,-3.1618,-3.1618,-3.1618,-3.1618,-3.1618,-3.1618,-3.1618,-3.1618,-3.152,-3.1181,-3.1127,-3.0963,-3.0493,-3.0046,-2.9537,-2.8839,-2.8328,-2.7883,-2.7367,-2.7262,-2.7262,-2.7262,-2.7262,-2.7262,-2.7262,-2.7441,-2.7631,-2.7726,-2.7998,-2.829,-2.8488,-2.8488,-2.8581,-2.8757,-2.8757,-2.885,-2.9035,-2.885,-2.885,-2.1459,-2.1811,-2.2166,-2.1898,-2.1741,-2.1594,-2.1221,-2.1277,-2.1321,-2.1063,-2.1403,-2.1821,-2.1985,-2.2644,-2.3107,-2.2946,-2.4253,-2.518,0.0,0.0,0.0,-2.8662,0.0,0.0,0.0,0.0,0.0,0.0,0.0,0.0,-3.3998,-3.3326,-3.2683,-3.2297,-3.2123,-3.2265,-3.2605,-3.3029,-3.329,-3.3192,-3.3388,-3.3381,-3.3281,-3.3281,-3.3281,0.0,0.0,0.0,0.0,-3.167,-3.1351,-3.0984,-3.1151,-3.1318,-3.1306,-3.1395,-3.1484,-3.1484,-3.1318,-3.1128,-3.1113,-3.1586,-3.1984,-3.2323,-3.2875,-3.3181,-3.3281,-3.2768,-3.224,-3.2026,-3.1924,-3.1721,-3.1618,-3.1618,-3.1618,-3.1618,-3.1618,-3.1618,-3.1618,-3.1618,-3.1476,-3.1247,-3.0952,-3.0756,-3.0482,-3.0013,-2.9589,-2.9137,-2.8551,-2.8084,-2.7715,-2.7357,-2.7262,-2.7262,-2.7262,-2.7262,-2.7262,-2.7262,-2.7452,-2.7536,-2.7631,-2.7726,-2.8008,-2.8196,-2.8395,-2.8488,-2.8664,-2.8757,-2.885,-2.8943,-2.885,-2.8943,0.0,-2.1212,-2.1681,-2.1951,-2.1639,-2.125,-2.125,-2.1143,0.0,-2.0997,-2.1699,-2.2218,-2.2016,-2.2911,-2.3556,-2.3,-2.4256,-2.5205,0.0,-2.6364,0.0,0.0,-3.0783,0.0,0.0,0.0,0.0,0.0,0.0,0.0,-3.4145,-3.39,-3.338,-3.2714,-3.2321,-3.217,-3.2079,-3.283,-3.318,-3.2924,-3.3401,-3.3545,-3.3281,-3.3281,-3.3281,0.0,0.0,0.0,0.0,-3.1832,-3.1419,-3.1062,-3.1496,-3.1484,-3.1306,-3.1572,-3.1484,-3.1217,-3.1062,-3.0781,-3.0649,-3.1126,-3.1788,-3.2443,-3.2387,-3.2633,-3.2679,-3.2128,-3.2015,-3.1913,-3.1618,-3.1618,-3.1618,-3.1618,-3.1618,-3.1618,-3.1618,-3.1618,-3.1607,-3.1575,-3.1203,-3.0876,-3.081,-3.0439,-2.9991,-2.95,-2.9254,-2.8795,-2.8145,-2.782,-2.7536,-2.7357,-2.7357,-2.7262,-2.7262,-2.7262,-2.7262,-2.7262,-2.7262,-2.7347,-2.7536,-2.7536,-2.7726,-2.7998,-2.829,-2.8395,-2.8395,-2.8664,-2.885,-2.885,-2.885,-2.8943,-1.9276,0.0,-2.0801,-2.1101,-2.1114,-2.1059,0.0,-2.1053,-2.1131,-2.1131,-2.1749,-2.2403,-2.2682,-2.3258,-2.3864,-2.4327,-2.4991,-2.5717,-2.6394,0.0,0.0,-3.0809,-3.1235,0.0,0.0,0.0,0.0,0.0,0.0,-3.5332,-3.5523,-3.4846,-3.447,-3.4255,-3.3357,-3.2647,-3.2091,-3.2476,-3.2816,-3.3215,-3.3332,-3.3492,-3.358,-3.358,-3.358,0.0,0.0,0.0,-3.2676,-3.2213,-3.1691,-3.1217,-3.1306,-3.1229,-3.1062,-3.1151,-3.1151,-3.0972,-3.0589,-3.0306,-3.0388,-3.0925,-3.1218,-3.139,-3.1584,-3.185,-3.2128,-3.2026,-3.1823,-3.1721,-3.1629,-3.1618,-3.1618,-3.1618,-3.1618,-3.1618,-3.1618,-3.1618,-3.1509,-3.1138,-3.0974,-3.0668,-2.9936,-2.9729,-2.9489,-2.8997,-2.8932,-2.8701,-2.8312,-2.8102,-2.7809,-2.7547,-2.7357,-2.7262,-2.7262,-2.7262,-2.7262,-2.7262,-2.7262,-2.7357,-2.7357,-2.7357,-2.7441,-2.7726,-2.8207,-2.8395,-2.8395,-2.8664,-2.885,-2.9035,-2.9035,-2.9128,-1.8906,-1.969,-2.0449,-2.0545,-2.0811,-2.0997,-2.0961,-2.1095,-2.118,-2.118,-2.2028,-2.2782,-2.2963,-2.362,-2.4262,-2.4839,-2.5454,0.0,0.0,0.0,-2.991,-3.136,0.0,0.0,0.0,0.0,0.0,0.0,0.0,-3.5525,-3.5991,-3.5387,-3.4891,-3.4809,-3.3998,-3.3362,-3.2986,-3.3116,-3.3349,-3.3576,-3.3922,-3.3891,-3.3679,-3.3878,-3.365,0.0,0.0,0.0,-3.2507,-3.2118,-3.1679,-3.1306,-3.1229,-3.1062,-3.0984,-3.0984,-3.0883,-3.0601,-3.0318,-3.0102,-3.012,-3.0376,-3.0604,-3.0632,-3.0712,-3.1119,-3.1482,-3.1482,-3.1556,-3.1618,-3.1618,-3.1721,-3.1823,-3.1823,-3.1924,-3.1936,-3.1823,-3.1658,-3.1326,-3.0952,-3.0548,-3.0078,-2.9576,-2.9292,-2.9063,-2.879,-2.8757,-2.8664,-2.8395,-2.8196,-2.7904,-2.7631,-2.7452,-2.7262,-2.7262,-2.7262,-2.7262,-2.7262,-2.7262,-2.7262,-2.7262,-2.7262,-2.7441,-2.782,-2.8102,-2.829,-2.8571,-2.8757,-2.885,-2.8943,-2.9035,-2.9209,-1.8987,-1.9759,-2.0419,-2.0281,-2.0703,-2.1109,-2.1153,-2.1265,-2.1439,-2.1484,-2.2488,-2.3324,-2.3165,-2.4021,0.0,0.0,0.0,0.0,-2.9442,-2.9815,-3.0381,-3.1754,0.0,0.0,0.0,0.0,0.0,0.0,0.0,-3.5699,-3.6073,-3.5543,-3.5201,-3.5026,-3.4379,-3.4133,-3.4207,-3.4072,-3.3991,-3.4042,-3.4499,-3.4374,-3.3779,-3.4075,-3.3695,-3.301,0.0,0.0,-3.2091,-3.1813,-3.1518,-3.1217,-3.1062,-3.0883,-3.0883,-3.0883,-3.0601,-3.0125,-3.0034,-2.9869,-2.9697,-2.9774,-2.9921,-3.0002,-3.0078,-3.0373,-3.069,-3.0766,-3.1192,-3.1618,-3.1618,-3.1823,-3.2015,-3.2015,-3.2275,-3.2331,-3.2017,-3.1539,-3.1086,-3.08,-3.0035,-2.9456,-2.939,-2.903,-2.8757,-2.8757,-2.8757,-2.8757,-2.8488,-2.8196,-2.7998,-2.7726,-2.7441,-2.7357,-2.7262,-2.7262,-2.7262,-2.7262,-2.7262,-2.7262,-2.7262,-2.7357,-2.7536,-2.7904,-2.7998,-2.8279,-2.8757,-2.8757,-2.8757,-2.885,-2.9035,-2.9301,-1.863,-1.9433,-2.0348,-2.0406,-2.107,-2.1739,-2.1911,-2.2119,-2.2419,-2.2796,-2.3446,-2.3933,-2.377,-2.4724,-2.566,0.0,0.0,-2.961,0.0,0.0,0.0,0.0,0.0,0.0,0.0,0.0,0.0,0.0,0.0,-3.5793,-3.6332,-3.6011,-3.5879,-3.5796,-3.5063,-3.4895,-3.5362,-3.4428,-3.4151,-3.4338,-3.4411,-3.4306,-3.4075,-3.4249,-3.3977,-3.318,0.0,-3.2778,-3.2364,-3.1615,-3.121,-3.1062,-3.0769,-3.0487,-3.0306,-3.0306,-3.0136,-2.9874,-2.9405,-2.9183,-2.9036,-2.9452,-2.9354,-2.9052,-2.9467,-2.9642,-2.9784,-3.0199,-3.0941,-3.1618,-3.1924,-3.2015,-3.2026,-3.2342,-3.2129,-3.1827,-3.1727,-3.1238,-3.0588,-3.0094,-2.9789,-2.9347,-2.8943,-2.8894,-2.8757,-2.8757,-2.8757,-2.8757,-2.8757,-2.8477,-2.8207,-2.7998,-2.7726,-2.7452,-2.7357,-2.7262,-2.7262,-2.7262,-2.7262,-2.7262,-2.7262,-2.7441,-2.7641,-2.7631,-2.8113,-2.8395,-2.8488,-2.8664,-2.8757,-2.885,-2.9209,-2.9485,-1.8697,-1.9565,-2.05,-2.0476,-2.1398,-2.2311,-2.2387,-2.3063,-2.3678,-2.3914,-2.4723,-2.5298,0.0,0.0,-2.6796,-2.7726,0.0,-3.099,0.0,0.0,0.0,0.0,0.0,0.0,0.0,0.0,0.0,0.0,0.0,0.0,-3.5719,-3.5949,-3.5784,-3.5392,-3.5038,-3.4932,-3.5178,-3.4674,-3.4605,-3.4858,-3.4858,-3.4607,-3.4064,-3.405,-3.3539,-3.2639,0.0,-3.2082,-3.1686,-3.1133,-3.0859,-3.0769,-3.0487,-3.0227,-2.9954,-2.968,-2.9588,-2.9416,-2.9035,-2.885,-2.879,-2.9019,-2.8943,-2.879,-2.9019,-2.927,-2.9532,-2.9751,-3.0504,-3.1392,-3.1847,-3.1928,-3.194,-3.225,-3.1965,-3.1712,-3.1506,-3.093,-3.0337,-2.9935,-2.9481,-2.9019,-2.879,-2.8757,-2.8757,-2.8757,-2.885,-2.8943,-2.8943,-2.8757,-2.8571,-2.8466,-2.8092,-2.7809,-2.7715,-2.7726,-2.7536,-2.7357,-2.7262,-2.7262,-2.7262,-2.7441,-2.7631,-2.7809,-2.8207,-2.8488,-2.8581,-2.8757,-2.8757,-2.885,-2.9301,-2.9485,-1.8912,-1.9807,-2.074,-2.0571,-2.1735,-2.2972,-2.3164,-2.4132,-2.5047,-2.5285,-2.6035,-2.6687,0.0,-2.7148,0.0,-2.9484,-3.0811,0.0,0.0,0.0,0.0,0.0,0.0,0.0,0.0,0.0,0.0,0.0,0.0,0.0,-3.5064,-3.5407,-3.5244,-3.4637,-3.4531,-3.4438,-3.4438,-3.4438,-3.4612,-3.5041,-3.5041,-3.4583,-3.3687,-3.3564,-3.2889,-3.1925,-3.1797,-3.1431,-3.0984,-3.0679,-3.0578,-3.0578,-3.0216,-2.9954,-2.9783,-2.9312,-2.9128,-2.9035,-2.885,-2.8757,-2.8757,-2.8757,-2.8757,-2.8757,-2.8757,-2.9019,-2.9336,-2.9551,-3.011,-3.0877,-3.1551,-3.1716,-3.1634,-3.1927,-3.1853,-3.1582,-3.1285,-3.0616,-3.009,-2.9808,-2.93,-2.8757,-2.8757,-2.8757,-2.885,-2.885,-2.9035,-2.9128,-2.922,-2.9035,-2.8943,-2.885,-2.8466,-2.8186,-2.8092,-2.8092,-2.7914,-2.7452,-2.7357,-2.7357,-2.7262,-2.7536,-2.782,-2.7998,-2.829,-2.8571,-2.8757,-2.8757,-2.8757,-2.885,-2.9301,-2.9485,-1.9139,-2.0005,-2.0922,-2.074,-2.2067,-2.37,-2.4624,-2.5438,-2.6283,-2.7342,-2.7563,-2.753,0.0,-2.8126,-2.9193,-3.0866,0.0,0.0,0.0,0.0,0.0,0.0,0.0,0.0,0.0,0.0,0.0,0.0,0.0,0.0,-3.466,-3.4371,-3.4109,-3.4059,-3.3611,-3.3437,-3.3437,-3.3437,-3.3784,-3.4481,-3.4481,-3.3837,-3.2594,-3.2841,-3.237,-3.1437,-3.1656,-3.1431,-3.0984,-3.0679,-3.0578,-3.0578,-3.0057,-2.9783,-2.9485,-2.922,-2.9128,-2.9035,-2.885,-2.8757,-2.8757,-2.8757,-2.8757,-2.8757,-2.8757,-2.8779,-2.9003,-2.9664,-2.9946,-3.0101,-3.0856,-3.1236,-3.1417,-3.1716,-3.1433,-3.1065,-3.1065,-3.0283,-2.9541,-2.9541,-2.915,-2.8757,-2.8757,-2.8757,-2.885,-2.9035,-2.9128,-2.922,-2.9393,-2.9485,-2.9301,-2.9128,-2.9035,-2.885,-2.8395,-2.8395,-2.8113,-2.7631,-2.7536,-2.7441,-2.7357,-2.7715,-2.7987,-2.7998,-2.8477,-2.8757,-2.8757,-2.8757,-2.8757,-2.885,-2.9301,-2.9485,-1.9885,-2.0587,-2.1415,-2.2133,-2.3385,-2.4572,-2.5095,-2.6375,-2.7683,-2.8509,-2.9259,-2.9789,-2.9919,0.0,-3.0925,-3.1809,0.0,0.0,0.0,0.0,0.0,0.0,0.0,0.0,0.0,0.0,0.0,0.0,0.0,0.0,0.0,-3.4074,-3.3929,-3.3235,-3.3053,-3.2974,-3.2803,-3.2803,-3.2899,-3.3184,-3.351,-3.3265,-3.2477,-3.2252,-3.182,-3.1182,-3.0836,-3.0673,-3.0499,-3.0397,-3.0318,-3.0148,-2.96,-2.9312,-2.922,-2.9035,-2.8943,-2.8943,-2.885,-2.8757,-2.8757,-2.8757,-2.8757,-2.8757,-2.8757,-2.885,-2.9068,-2.936,-2.9613,-3.0083,-3.0954,-3.1027,-3.0895,-3.1201,-3.0893,-3.0434,-3.0354,-2.9919,-2.9485,-2.9301,-2.9035,-2.8757,-2.8757,-2.8757,-2.885,-2.9035,-2.9209,-2.9405,-2.9691,-2.9783,-2.9691,-2.96,-2.9405,-2.922,-2.885,-2.8861,-2.8664,-2.8113,-2.782,-2.7536,-2.7357,-2.7631,-2.7809,-2.7998,-2.8384,-2.8664,-2.8757,-2.8757,-2.8757,-2.885,-2.9301,-2.9485,-2.0482,-2.1312,-2.2283,-2.3098,-2.4526,-2.5818,-2.6205,-2.736,-2.8613,-2.9475,-3.0373,-3.1169,-3.1664,0.0,0.0,0.0,0.0,0.0,0.0,0.0,0.0,0.0,0.0,0.0,0.0,0.0,0.0,0.0,0.0,0.0,0.0,-3.3541,-3.3399,-3.2686,-3.2483,-3.2406,-3.2238,-3.2238,-3.2238,-3.2238,-3.2599,-3.2492,-3.1995,-3.1539,-3.1112,-3.0744,-3.0297,-3.0136,-3.0136,-3.0034,-2.9863,-2.96,-2.922,-2.9035,-2.9035,-2.885,-2.8757,-2.8757,-2.8757,-2.8757,-2.8757,-2.8757,-2.8757,-2.885,-2.885,-2.9035,-2.9128,-2.9312,-2.9611,-3.0045,-3.0808,-3.0717,-3.0466,-3.0582,-3.04,-3.0045,-2.9783,-2.9588,-2.9312,-2.9128,-2.9035,-2.885,-2.885,-2.8932,-2.9128,-2.9312,-2.9497,-2.968,-2.9966,-2.9966,-2.9966,-2.9966,-2.9863,-2.9577,-2.9209,-2.922,-2.8943,-2.8395,-2.8008,-2.7631,-2.7452,-2.7547,-2.7726,-2.7987,-2.829,-2.8488,-2.8757,-2.8757,-2.885,-2.8943,-2.9301,-2.9588,-2.0775,-2.2143,-2.3566,-2.3378,-2.5313,-2.7395,-2.806,-2.8492,-2.9058,-3.0335,-3.0859,-3.1326,-3.2255,-3.2569,0.0,0.0,0.0,0.0,0.0,0.0,0.0,0.0,0.0,0.0,0.0,0.0,0.0,0.0,0.0,0.0,0.0,-3.2649,-3.24,-3.24,-3.1937,-3.1661,-3.1661,-3.1661,-3.1661,-3.1661,-3.1661,-3.1407,-3.0972,-3.0679,-3.0487,-3.0216,-2.9966,-2.9886,-2.9886,-2.9588,-2.9301,-2.9128,-2.9128,-2.8943,-2.8757,-2.8757,-2.8757,-2.8757,-2.8757,-2.8757,-2.8757,-2.8757,-2.8757,-2.885,-2.9035,-2.9128,-2.9231,-2.9794,-2.9886,-2.9977,-3.0136,-3.0216,-3.0136,-2.9977,-2.9886,-2.9794,-2.9577,-2.9312,-2.9128,-2.9128,-2.9128,-2.9128,-2.9128,-2.9301,-2.9588,-2.9886,-2.9886,-2.9977,-3.0125,-3.0216,-3.0216,-3.0216,-3.0216,-3.0034,-2.9566,-2.9474,-2.9209,-2.8477,-2.8175,-2.7893,-2.7631,-2.7631,-2.7726,-2.7998,-2.829,-2.8488,-2.8757,-2.8757,-2.8943,-2.9128,-2.9393,-2.968,-2.2762,-2.3527,0.0,-2.5576,0.0,0.0,-2.8875,-2.943,-3.0162,-3.174,-3.2312,-3.282,-3.3677,-3.3559,0.0,0.0,0.0,0.0,0.0,0.0,0.0,0.0,0.0,0.0,0.0,0.0,0.0,0.0,0.0,0.0,0.0,-3.2723,-3.2463,-3.2125,-3.1937,-3.1849,-3.1661,-3.1661,-3.1661,-3.1661,-3.133,-3.1151,-3.0972,-3.0679,-3.0408,-2.9977,-2.968,-2.9588,-2.9588,-2.9312,-2.9128,-2.9128,-2.8943,-2.885,-2.8757,-2.8757,-2.8757,-2.8757,-2.8757,-2.8757,-2.8757,-2.8757,-2.8943,-2.9035,-2.9128,-2.9324,-2.9703,-2.9897,-2.9966,-3.0136,-3.0216,-3.0216,-3.0136,-2.9977,-2.9886,-2.9794,-2.9312,-2.9128,-2.9035,-2.8943,-2.9035,-2.9128,-2.9128,-2.9301,-2.9588,-2.9886,-2.9886,-2.9977,-3.0125,-3.0216,-3.0216,-3.0216,-3.0216,-2.9897,-2.9116,-2.8992,-2.8565,-2.7673,-2.72,-2.7317,-2.7882,-2.7536,-2.7641,-2.829,-2.8186,-2.8373,-2.8757,-2.8757,-2.8943,-2.9128,-2.9393,-2.968,-2.3533,-2.4434,0.0,-2.7116,-2.8179,-2.91,-3.0453,0.0,0.0,0.0,-3.31,-3.3378,-3.4299,-3.4217,0.0,0.0,0.0,0.0,0.0,0.0,0.0,0.0,0.0,0.0,0.0,0.0,0.0,0.0,0.0,0.0,0.0,-3.2537,-3.2288,-3.2038,-3.1937,-3.1849,-3.1661,-3.1661,-3.1661,-3.1661,-3.1318,-3.105,-3.0871,-3.0499,-3.0148,-2.9886,-2.9497,-2.9301,-2.9209,-2.9035,-2.8943,-2.8943,-2.885,-2.8757,-2.8757,-2.8757,-2.8757,-2.8757,-2.8757,-2.8757,-2.885,-2.885,-2.9035,-2.9128,-2.9324,-2.96,-2.9886,-2.9966,-3.0136,-3.0216,-3.0216,-3.0216,-3.0136,-2.9977,-2.9886,-2.9794,-2.9231,-2.9128,-2.9035,-2.8943,-2.9128,-2.9312,-2.9416,-2.9588,-2.9852,-2.9966,-3.0057,-3.0057,-3.0216,-3.0216,-3.0125,-3.0045,-2.9863,-2.9443,-2.8712,-2.8511,-2.7999,-2.7249,-2.6793,-2.687,-2.7434,-2.7085,-2.7262,-2.8114,-2.8,-2.819,-2.8757,-2.885,-2.9035,-2.9312,-2.9497,-2.9681,-2.3483,-2.5071,-2.6824,-2.8184,-2.9423,0.0,-3.2415,-3.2347,-3.2273,-3.344,0.0,-3.33,-3.4299,-3.4437,0.0,0.0,0.0,0.0,0.0,0.0,0.0,0.0,0.0,0.0,0.0,0.0,0.0,0.0,0.0,0.0,0.0,-3.2201,-3.195,-3.195,-3.1761,-3.1661,-3.1661,-3.1661,-3.1661,-3.1661,-3.1395,-3.1026,-3.0578,-3.0148,-2.9886,-2.9794,-2.9324,-2.8943,-2.8757,-2.8757,-2.8757,-2.8757,-2.8757,-2.8757,-2.8757,-2.8757,-2.8757,-2.8757,-2.8757,-2.8757,-2.885,-2.9035,-2.9128,-2.922,-2.9703,-2.9886,-2.9977,-3.0136,-3.0216,-3.0216,-3.0216,-3.0216,-3.0136,-2.9977,-2.9886,-2.9794,-2.922,-2.9128,-2.9128,-2.9128,-2.9312,-2.9588,-2.9886,-3.0045,-3.0216,-3.0216,-3.0216,-3.0216,-3.0216,-3.0216,-3.0136,-2.9886,-2.9443,-2.8936,-2.8421,-2.79,-2.7426,-2.692,-2.6566,-2.6498,-2.6608,-2.6293,-2.6615,-2.7597,-2.7618,-2.8028,-2.8691,-2.8969,-2.9154,-2.9418,-2.9715,-2.9636,-2.477,-2.5928,0.0,0.0,-3.032,-3.1597,-3.3256,-3.3245,-3.3051,-3.3592,-3.3633,-3.373,-3.4199,0.0,0.0,0.0,0.0,0.0,0.0,0.0,0.0,0.0,0.0,0.0,0.0,0.0,0.0,0.0,0.0,0.0,-3.2201,-3.2025,-3.195,-3.1749,-3.1749,-3.1661,-3.1661,-3.1484,-3.1395,0.0,-3.0937,-3.0668,-3.0578,-3.0148,-2.96,-2.9035,-2.8943,-2.885,-2.8757,-2.8757,-2.8757,-2.8757,-2.8757,-2.8757,-2.8757,-2.8757,-2.8757,-2.8757,-2.8757,-2.8757,-2.885,-2.9035,-2.9209,-2.9485,-2.9794,-2.9966,-3.0136,-3.0216,-3.0216,-3.0216,-3.0216,-3.0216,-3.0216,-3.0136,-2.9966,-2.9794,-2.9497,-2.9393,-2.9393,-2.9393,-2.9588,-2.9794,-2.9886,-3.0045,-3.0216,-3.0216,-3.0216,-3.0216,-3.0216,-3.0057,-2.9977,-2.9886,-2.9263,-2.8623,-2.7878,-2.7206,-2.6594,-2.5968,-2.5509,-2.5337,-2.5509,-2.5935,-2.6468,-2.7112,-2.7133,-2.7461,-2.8189,-2.8462,-2.8643,-2.8914,-2.9184,-2.909,-2.4477,0.0,0.0,-2.9684,0.0,-3.2078,-3.3224,-3.3306,-3.3166,-3.3492,-3.3614,-3.3775,0.0,0.0,0.0,0.0,0.0,0.0,0.0,0.0,0.0,0.0,0.0,0.0,0.0,0.0,0.0,0.0,0.0,-3.2288,-3.2038,-3.1937,-3.1849,-3.1661,-3.1661,-3.1661,-3.1484,-3.1395,-3.1217,-3.1139,-3.0769,-3.0397,-3.0034,-2.9863,-2.9416,-2.8757,-2.8757,-2.8757,-2.8757,-2.8757,-2.8757,-2.8757,-2.8757,-2.8757,-2.8757,-2.8757,-2.8757,-2.8757,-2.8757,-2.8757,-2.885,-2.9209,-2.9405,-2.9577,-2.9954,-3.0136,-3.0216,-3.0216,-3.0216,-3.0216,-3.0216,-3.0216,-3.0216,-3.0216,-3.0136,-2.9966,-2.9783,-2.968,-2.968,-2.968,-2.9794,-2.9886,-3.0057,-3.0136,-3.0216,-3.0216,-3.0216,-3.0216,-3.0216,-3.0057,-2.9794,-2.9508,-2.8678,-2.7877,-2.727,-2.6401,-2.5711,-2.5317,-2.5031,-2.4861,-2.4871,-2.5409,-2.603,-2.6627,-2.6736,-2.7151,-2.7887,-2.8044,-2.831,-2.8587,-2.8839,-2.874,-2.3702,0.0,-2.8041,-3.0195,-3.1482,0.0,-3.2831,-3.296,-3.3118,-3.3296,-3.3411,0.0,0.0,0.0,0.0,0.0,0.0,0.0,0.0,0.0,0.0,0.0,0.0,0.0,0.0,0.0,0.0,0.0,0.0,-3.1794,-3.1804,-3.1616,-3.1565,-3.1661,-3.1661,-3.1572,-3.1306,-3.1306,-3.1139,-3.0883,-3.0679,-3.0216,-2.9588,-2.9485,-2.9209,-2.8757,-2.8757,-2.8757,-2.8757,-2.8757,-2.8757,-2.8757,-2.8757,-2.8757,-2.8757,-2.8757,-2.8757,-2.8757,-2.8757,-2.885,-2.8932,-2.9393,-2.9485,-2.968,-3.0034,-3.0216,-3.0216,-3.0216,-3.0216,-3.0216,-3.0216,-3.0216,-3.0216,-3.0216,-3.0216,-3.0136,-2.9966,-2.9977,-2.9977,-2.9977,-2.9977,-2.9966,-3.0125,-3.0216,-3.0216,-3.0216,-3.0216,-3.0216,-3.0136,-2.9966,-2.96,-2.9128,-2.7995,-2.716,-2.6615,-2.5743,-2.5115,-2.4946,-2.4861,-2.47,-2.454,-2.4956,-2.5477,-2.6066,-2.6324,-2.6823,-2.7568,-2.7808,-2.7981,-2.8264,-2.85,-2.831,-2.35,0.0,-2.9474,0.0,-3.1321,-3.2262,0.0,0.0,-3.3151,0.0,0.0,0.0,0.0,0.0,0.0,0.0,0.0,0.0,0.0,0.0,0.0,0.0,0.0,0.0,0.0,0.0,0.0,0.0,-3.0615,-3.0737,-3.105,-3.0975,-3.1192,-3.1649,-3.1661,-3.1572,-3.1306,-3.1139,-3.0871,-3.0668,-3.0397,-3.0136,-2.9886,-2.9588,-2.9209,-2.8757,-2.8757,-2.8757,-2.8757,-2.8757,-2.8757,-2.8757,-2.8757,-2.8757,-2.8757,-2.8757,-2.8757,-2.8757,-2.8757,-2.8943,-2.9128,-2.9393,-2.968,-2.9886,-3.0136,-3.0216,-3.0216,-3.0216,-3.0216,-3.0216,-3.0216,-3.0216,-3.0216,-3.0216,-3.0216,-3.0216,-3.0125,-3.0125,-3.0125,-3.0125,-3.0125,-3.0125,-3.0216,-3.0216,-3.0216,-3.0216,-3.0216,-3.0136,-2.9977,-2.968,-2.9393,-2.885,-2.7804,-2.6961,-2.6615,-2.5569,-2.4946,-2.4861,-2.47,-2.454,-2.454,-2.4786,-2.5062,-2.5381,-2.573,-2.6308,-2.7037,-2.7305,-2.7487,-2.7753,-2.7996,-2.7805,-2.4445,-2.657,-2.846,0.0,-3.013,-3.1257,-3.1273,0.0,-3.2698,0.0,0.0,0.0,0.0,0.0,0.0,0.0,0.0,0.0,0.0,0.0,0.0,0.0,0.0,0.0,0.0,0.0,0.0,0.0,-3.0313,-3.0266,-3.0422,-3.0434,-3.0543,-3.0771,-3.0783,-3.0599,-3.0253,-3.0178,-2.9904,-2.9542,-2.9454,-2.9289,-2.9046,-2.8757,-2.8778,-2.8943,-2.885,-2.8757,-2.8757,-2.8757,-2.8593,-2.8353,-2.8353,-2.8189,-2.7949,-2.814,-2.8305,-2.8616,-2.8719,-2.8987,-2.9393,-2.96,-2.9794,-2.9977,-3.0136,-3.0216,-3.0216,-3.0216,-3.0216,-3.0216,-3.0216,-3.0216,-3.0216,-3.0216,-3.0216,-3.0216,-3.0216,-3.0216,-3.0216,-3.0216,-3.0216,-3.0216,-3.0216,-3.0216,-3.0125,-3.0057,-3.0057,-2.9966,-2.9691,-2.9312,-2.8833,-2.8294,-2.719,-2.6419,-2.5899,-2.5086,-2.47,-2.47,-2.454,-2.454,-2.454,-2.4786,-2.5031,-2.52,-2.5549,-2.6078,-2.6696,-2.6875,-2.7054,-2.7398,-2.7481,-2.7438,0.0,0.0,-2.7116,-2.7746,-2.8959,-2.9993,0.0,0.0,0.0,0.0,0.0,0.0,0.0,0.0,0.0,0.0,0.0,0.0,0.0,0.0,0.0,0.0,0.0,0.0,0.0,0.0,0.0,0.0,-2.976,-2.9749,-2.9798,-2.9881,-2.9953,-3.0001,-3.0086,-2.9917,-2.9482,-2.9397,-2.913,-2.8786,-2.87,-2.8626,-2.8562,-2.8279,-2.8421,-2.8945,-2.8569,-2.8386,-2.8386,-2.8386,-2.8178,-2.785,-2.785,-2.7632,-2.7315,-2.7602,-2.7922,-2.8221,-2.8478,-2.8813,-2.9229,-2.9557,-2.9693,-2.9806,-3.0091,-3.0216,-3.0216,-3.0216,-3.0216,-3.0216,-3.0216,-3.0216,-3.0216,-3.0216,-3.0216,-3.0216,-3.0216,-3.0216,-3.0216,-3.0216,-3.0125,-3.0136,-3.0136,-3.0034,-2.9954,-2.9783,-2.9794,-2.9646,-2.9226,-2.8837,-2.8294,-2.7554,-2.6631,-2.5863,-2.5264,-2.4809,-2.454,-2.454,-2.454,-2.454,-2.454,-2.47,-2.4946,-2.52,-2.538,-2.5812,-2.6479,-2.6561,-2.6809,-2.7149,-2.7149,-2.7231,0.0,-2.5308,0.0,-2.736,-2.8077,0.0,0.0,0.0,0.0,0.0,0.0,0.0,0.0,0.0,0.0,0.0,0.0,0.0,0.0,0.0,0.0,0.0,0.0,0.0,0.0,0.0,0.0,0.0,-2.8595,-2.873,-2.9058,-2.9258,-2.9498,-2.9857,-3.0013,-3.0001,-2.9664,-2.9227,-2.9056,-2.8958,-2.8786,-2.8786,-2.897,-2.8551,-2.8423,-2.8381,-2.7657,-2.7392,-2.7392,-2.7392,-2.737,-2.7348,-2.7348,-2.7337,-2.7315,-2.7602,-2.7712,-2.7734,-2.7997,-2.8184,-2.8536,-2.899,-2.9338,-2.9619,-3.0078,-3.0216,-3.0216,-3.0216,-3.0216,-3.0216,-3.0216,-3.0216,-3.0216,-3.0216,-3.0216,-3.0216,-3.0216,-3.0216,-3.0216,-3.0216,-3.0057,-2.9886,-2.9886,-2.968,-2.9485,-2.9485,-2.9485,-2.9226,-2.8577,-2.825,-2.7793,-2.679,-2.6055,-2.5507,-2.5233,-2.4809,-2.454,-2.454,-2.454,-2.454,-2.454,-2.454,-2.47,-2.52,-2.52,-2.5549,-2.6229,-2.6479,-2.6727,-2.6891,-2.7149,-2.7231,0.0,0.0,0.0,-2.5508,-2.6564,-2.7586,-2.7596,0.0,0.0,0.0,0.0,0.0,0.0,0.0,0.0,0.0,0.0,0.0,0.0,0.0,0.0,0.0,0.0,0.0,0.0,0.0,0.0,0.0,0.0,-2.8515,-2.8694,-2.8787,-2.8802,-2.8994,-2.9076,-2.8913,-2.8516,-2.8245,-2.8068,-2.8068,-2.8162,-2.8162,-2.8068,-2.7736,-2.7581,-2.7436,-2.6992,-2.7189,-2.7778,-2.7778,-2.7589,-2.73,-2.7105,-2.6832,-2.6664,-2.6919,-2.7205,-2.7484,-2.7912,-2.8288,-2.866,-2.8832,-2.9118,-2.9527,-2.9711,-2.9975,-3.0147,-2.9848,-2.9757,-2.9757,-2.9757,-2.9757,-2.9837,-3.0147,-3.0136,-2.9966,-2.9966,-2.9966,-2.9966,-2.9966,-2.9783,-2.968,-2.968,-2.9588,-2.9485,-2.9301,-2.8943,-2.8676,-2.8239,-2.7583,-2.6858,-2.6211,-2.5581,-2.5021,-2.4559,-2.4385,-2.4292,-2.4292,-2.4454,-2.454,-2.454,-2.454,-2.47,-2.52,-2.52,-2.5538,-2.624,-2.6479,-2.6727,-2.6891,-2.7149,-2.7231,-2.448,0.0,0.0,0.0,0.0,-2.6205,-2.6433,0.0,0.0,0.0,0.0,0.0,0.0,0.0,0.0,0.0,0.0,0.0,0.0,0.0,0.0,0.0,0.0,0.0,0.0,0.0,0.0,0.0,0.0,0.0,-2.8155,-2.8167,-2.833,-2.8498,-2.8419,-2.8271,-2.8042,-2.7777,-2.7696,-2.7765,-2.7869,-2.78,-2.7615,-2.7429,-2.7196,-2.6974,-2.6891,-2.711,-2.7547,-2.7547,-2.7357,-2.7054,-2.6863,-2.659,-2.6396,-2.6644,-2.6941,-2.7223,-2.7558,-2.7943,-2.8241,-2.8402,-2.87,-2.9022,-2.9183,-2.9458,-2.9642,-2.932,-2.9228,-2.9228,-2.9228,-2.9366,-2.9619,-3.0022,-2.9966,-2.9886,-2.9794,-2.9794,-2.9794,-2.9794,-2.9588,-2.9393,-2.9393,-2.9301,-2.9154,-2.8815,-2.8517,-2.8096,-2.761,-2.684,-2.62,-2.5721,-2.5082,-2.4533,-2.4227,-2.4206,-2.4206,-2.4206,-2.4368,-2.454,-2.454,-2.4625,-2.4786,-2.52,-2.5295,-2.5549,-2.6074,-2.6479,-2.6644,-2.6809,-2.7056,-2.7313,0.0,0.0,0.0,0.0,0.0,0.0,-2.6087,0.0,0.0,0.0,0.0,0.0,0.0,0.0,0.0,0.0,0.0,0.0,0.0,0.0,0.0,0.0,0.0,0.0,0.0,0.0,0.0,0.0,-2.7288,-2.7076,-2.7347,-2.7538,-2.7945,-2.8474,-2.8235,-2.8155,-2.8167,-2.795,-2.8042,-2.8179,-2.8042,-2.7893,-2.7881,-2.7615,-2.7371,-2.7231,-2.7231,-2.6985,-2.6644,-2.6644,-2.6644,-2.6644,-2.6644,-2.6644,-2.6644,-2.6809,-2.6891,-2.6891,-2.7149,-2.7231,-2.7311,-2.7805,-2.7966,-2.8069,-2.854,-2.8689,-2.87,-2.8677,-2.8677,-2.8677,-2.8677,-2.9079,-2.9507,-2.9818,-2.9852,-2.9749,-2.9543,-2.9441,-2.9452,-2.9474,-2.9301,-2.9128,-2.9106,-2.8921,-2.8571,-2.8091,-2.8003,-2.7676,-2.6747,-2.6163,-2.5711,-2.5243,-2.4615,-2.4206,-2.4206,-2.4206,-2.4206,-2.4206,-2.4368,-2.454,-2.454,-2.4786,-2.5031,-2.52,-2.5464,-2.5728,-2.5895,-2.6396,-2.6644,-2.6644,-2.6974,-2.7476,-2.4966,0.0,0.0,0.0,0.0,0.0,0.0,0.0,0.0,0.0,0.0,0.0,0.0,0.0,0.0,0.0,0.0,0.0,0.0,0.0,0.0,0.0,0.0,0.0,0.0,0.0,0.0,0.0,-2.7083,-2.692,-2.7064,-2.7076,-2.7316,-2.7675,-2.7475,-2.7493,-2.7684,-2.7788,-2.7962,-2.7962,-2.8203,-2.8203,-2.7893,-2.78,-2.7557,-2.7231,-2.7231,-2.7149,-2.7056,-2.7056,-2.7056,-2.6974,-2.6891,-2.6809,-2.6809,-2.6891,-2.6891,-2.6891,-2.7149,-2.7231,-2.7254,-2.7392,-2.7679,-2.8,-2.8138,-2.8425,-2.8632,-2.8276,-2.8184,-2.8184,-2.8184,-2.8477,-2.8726,-2.8774,-2.8543,-2.8277,-2.8177,-2.8077,-2.8186,-2.9076,-2.9035,-2.874,-2.839,-2.8233,-2.8069,-2.7588,-2.7228,-2.6835,-2.6401,-2.5787,-2.5179,-2.4721,-2.4186,-2.3841,-2.3677,-2.3851,-2.3927,-2.3927,-2.4282,-2.454,-2.454,-2.4786,-2.5031,-2.52,-2.5464,-2.5728,-2.5895,-2.6396,-2.6644,-2.6644,-2.6974,-2.7383,-2.5203,-2.4806,-2.4441,-2.4009,0.0,0.0,-2.3725,-2.4404,0.0,0.0,0.0,0.0,0.0,0.0,0.0,0.0,0.0,0.0,0.0,0.0,0.0,0.0,0.0,0.0,0.0,-2.7311,-2.703,-2.687,-2.6456,-2.6222,-2.6375,-2.6502,-2.6752,-2.6895,-2.6842,-2.7011,-2.7437,-2.762,-2.7829,-2.8122,-2.8271,-2.8191,-2.7893,-2.7788,-2.7545,-2.7231,-2.7231,-2.7231,-2.7231,-2.7231,-2.7231,-2.7149,-2.7067,-2.7067,-2.7067,-2.7067,-2.7067,-2.7067,-2.7149,-2.7231,-2.7231,-2.7231,-2.7426,-2.7667,-2.7667,-2.7862,-2.8023,-2.7748,-2.7667,-2.7713,-2.7824,-2.7929,-2.803,-2.8083,-2.7876,-2.7701,-2.7602,-2.7403,-2.7479,-2.8228,-2.8247,-2.8058,-2.7785,-2.7741,-2.7577,-2.7097,-2.6715,-2.6379,-2.6012,-2.5392,-2.4786,-2.454,-2.4013,-2.359,-2.3503,-2.359,-2.3667,-2.3754,-2.4196,-2.4368,-2.454,-2.4871,-2.5115,-2.52,-2.5549,-2.5812,-2.599,-2.6313,-2.6561,-2.6727,-2.7067,-2.7301,-2.5623,-2.5131,-2.4782,-2.4338,-2.3934,0.0,-2.3853,-2.3688,-2.392,0.0,0.0,0.0,0.0,0.0,0.0,0.0,0.0,0.0,0.0,0.0,0.0,0.0,0.0,0.0,-2.7299,-2.6651,-2.6239,-2.6311,-2.5529,-2.5194,-2.5533,-2.5894,-2.6153,-2.6212,-2.6212,-2.6535,-2.7299,-2.737,-2.771,-2.8347,-2.8235,-2.8111,-2.7881,-2.7615,-2.7371,-2.7231,-2.7231,-2.7231,-2.7231,-2.7231,-2.7231,-2.7231,-2.7231,-2.7231,-2.7231,-2.7231,-2.7231,-2.7231,-2.7231,-2.7231,-2.7231,-2.7231,-2.7231,-2.7231,-2.7149,-2.7149,-2.7149,-2.7149,-2.7138,-2.7158,-2.7413,-2.7442,-2.7471,-2.7511,-2.7535,-2.7436,-2.7162,-2.7151,-2.7151,-2.7162,-2.7239,-2.7293,-2.7239,-2.7151,-2.6998,-2.653,-2.6282,-2.6044,-2.554,-2.4882,-2.4454,-2.4368,-2.3851,-2.3503,-2.3503,-2.3503,-2.359,-2.3754,-2.4024,-2.4292,-2.4454,-2.4956,-2.52,-2.52,-2.5644,-2.599,-2.6157,-2.6229,-2.649,-2.6891,-2.7149,-2.7301,-2.7211,-2.6783,-2.6358,-2.5876,-2.5002,0.0,-2.3815,-2.364,-2.3549,0.0,0.0,0.0,0.0,0.0,0.0,0.0,0.0,0.0,0.0,0.0,0.0,0.0,0.0,0.0,-2.6218,-2.5671,-2.5314,-2.5527,-2.5111,-2.4908,-2.4942,-2.5036,-2.5271,-2.5671,-2.5683,-2.593,-2.6523,-2.7103,-2.7442,-2.7639,-2.7977,-2.8111,-2.7881,-2.7615,-2.7371,-2.7231,-2.7231,-2.7231,-2.7231,-2.7231,-2.7231,-2.7231,-2.7231,-2.7231,-2.7231,-2.7231,-2.7231,-2.7231,-2.7231,-2.7231,-2.7231,-2.7231,-2.7231,-2.7149,-2.6985,-2.6974,-2.6891,-2.6727,-2.6727,-2.6749,-2.6757,-2.6613,-2.6479,-2.6495,-2.6348,-2.6264,-2.6168,-2.6179,-2.6095,-2.5925,-2.6704,-2.7107,-2.6563,-2.6509,-2.6249,-2.5583,-2.5423,-2.5232,-2.4807,-2.4625,-2.4282,-2.3764,-2.359,-2.3406,-2.3232,-2.3406,-2.3503,-2.359,-2.3937,-2.4206,-2.4292,-2.4871,-2.52,-2.52,-2.5644,-2.5906,-2.599,-2.6313,-2.6644,-2.6891,-2.7149,-2.7231,-2.7777,-2.7306,0.0,-2.5947,0.0,0.0,0.0,-2.3166,-2.3018,0.0,0.0,0.0,0.0,0.0,0.0,0.0,0.0,0.0,0.0,0.0,0.0,0.0,0.0,0.0,-2.4554,-2.4336,-2.4117,-2.4117,-2.4225,-2.4248,-2.4118,-2.4434,-2.4751,-2.4996,-2.5227,-2.5536,-2.6068,-2.6554,-2.6947,-2.7406,-2.7589,-2.7702,-2.7708,-2.7452,-2.7301,-2.7231,-2.7231,-2.7231,-2.7231,-2.7231,-2.7231,-2.7231,-2.7231,-2.7231,-2.7231,-2.7231,-2.7231,-2.7231,-2.7231,-2.7231,-2.7231,-2.7231,-2.7149,-2.7056,-2.6891,-2.6809,-2.6727,-2.6644,-2.6644,-2.6561,-2.6479,-2.6313,-2.6157,-2.6063,-2.5979,-2.5895,-2.5895,-2.5812,-2.5728,-2.5654,-2.5937,-2.6174,-2.5776,-2.5733,-2.5658,-2.5243,-2.5031,-2.4786,-2.454,-2.4196,-2.3851,-2.3503,-2.3406,-2.3232,-2.3135,-2.3232,-2.3319,-2.3503,-2.3764,-2.3947,-2.4206,-2.4615,-2.5041,-2.538,-2.5728,-2.5895,-2.5895,-2.6229,-2.6561,-2.6727,-2.6974,-2.7056,0.0,0.0,0.0,0.0,0.0,-2.4522,0.0,0.0,0.0,0.0,0.0,0.0,0.0,0.0,0.0,0.0,0.0,0.0,0.0,0.0,0.0,0.0,0.0,0.0,0.0,-2.3179,-2.3103,-2.2889,-2.3259,-2.3456,-2.3431,-2.4047,-2.4457,-2.4634,-2.4909,-2.5314,-2.567,-2.5985,-2.6512,-2.724,-2.7136,-2.7217,-2.7522,-2.7219,-2.7149,-2.7231,-2.7149,-2.7149,-2.7231,-2.7231,-2.7231,-2.7231,-2.7149,-2.7149,-2.7149,-2.7149,-2.7149,-2.7149,-2.7149,-2.7149,-2.7149,-2.7149,-2.6985,-2.6738,-2.6738,-2.6644,-2.6479,-2.6479,-2.6479,-2.6396,-2.624,-2.6157,-2.6074,-2.5895,-2.5895,-2.5906,-2.5812,-2.5728,-2.5559,-2.5475,-2.5295,-2.5115,-2.5115,-2.5115,-2.5115,-2.5031,-2.47,-2.4454,-2.4368,-2.3851,-2.3503,-2.3416,-2.3232,-2.3135,-2.3135,-2.3135,-2.3232,-2.3416,-2.3503,-2.3677,-2.4034,-2.4368,-2.4882,-2.557,-2.5728,-2.5822,-2.5895,-2.6063,-2.6229,-2.6561,-2.6809,-2.6974,0.0,0.0,0.0,0.0,-2.6336,0.0,0.0,0.0,-2.2491,-2.2175,0.0,0.0,0.0,0.0,0.0,0.0,0.0,0.0,0.0,0.0,0.0,0.0,0.0,0.0,0.0,-2.2678,-2.2673,-2.2469,-2.2525,-2.2811,-2.3478,-2.3688,-2.4202,-2.504,-2.5052,-2.5206,-2.5337,-2.5865,-2.6332,-2.6705,-2.6971,-2.7217,-2.7522,-2.7126,-2.7056,-2.7149,-2.6985,-2.7067,-2.7231,-2.7231,-2.7231,-2.7149,-2.6974,-2.6891,-2.6891,-2.6891,-2.6891,-2.6974,-2.7149,-2.7067,-2.6891,-2.6891,-2.6644,-2.6313,-2.6313,-2.6157,-2.5979,-2.5979,-2.5979,-2.5979,-2.5895,-2.5895,-2.5895,-2.5906,-2.5895,-2.5812,-2.5644,-2.5654,-2.5475,-2.5041,-2.4946,-2.4946,-2.4946,-2.4946,-2.4861,-2.4625,-2.4368,-2.411,-2.3927,-2.3677,-2.3416,-2.3135,-2.3135,-2.3135,-2.3135,-2.3135,-2.3135,-2.3144,-2.3416,-2.3503,-2.359,-2.4196,-2.4882,-2.557,-2.5654,-2.5728,-2.5895,-2.5895,-2.6063,-2.624,-2.6738,-2.6891,0.0,0.0,0.0,0.0,0.0,0.0,-2.3681,0.0,-2.2463,0.0,0.0,0.0,0.0,0.0,0.0,0.0,-1.975,0.0,0.0,0.0,0.0,0.0,0.0,0.0,0.0,0.0,0.0,0.0,-2.0873,-2.1441,-2.2154,-2.3012,-2.3847,-2.4704,-2.5015,-2.5324,-2.5465,-2.5469,-2.585,-2.6458,-2.631,-2.6609,-2.7126,-2.6891,-2.6809,-2.6809,-2.6891,-2.6974,-2.7056,-2.7149,-2.7231,-2.7149,-2.6985,-2.6891,-2.6891,-2.6891,-2.6809,-2.6727,-2.6809,-2.6809,-2.6727,-2.6561,-2.6324,-2.6157,-2.6063,-2.599,-2.5895,-2.5895,-2.5895,-2.5895,-2.5895,-2.5812,-2.5738,-2.5738,-2.5644,-2.5464,-2.538,-2.5295,-2.5126,-2.4946,-2.4775,-2.4615,-2.454,-2.4625,-2.4625,-2.4368,-2.411,-2.3937,-2.3677,-2.3406,-2.3232,-2.3135,-2.3135,-2.3135,-2.3135,-2.3135,-2.3135,-2.3135,-2.3319,-2.359,-2.3667,-2.4196,-2.4711,-2.5211,-2.5475,-2.5644,-2.5738,-2.5812,-2.5895,-2.6063,-2.6313,-2.6644,-2.9576,0.0,0.0,0.0,0.0,0.0,0.0,0.0,0.0,0.0,0.0,0.0,0.0,0.0,-2.0321,-1.985,0.0,-1.9032,0.0,0.0,0.0,0.0,0.0,0.0,0.0,0.0,0.0,-1.8717,-1.9343,-2.0023,-2.0722,-2.2163,-2.3364,-2.4357,-2.4888,-2.5308,-2.5535,-2.5253,-2.5429,-2.6153,-2.5858,-2.6086,-2.6809,-2.6561,-2.6561,-2.6727,-2.6809,-2.6891,-2.6974,-2.7149,-2.7231,-2.7149,-2.7067,-2.6891,-2.6809,-2.6809,-2.6727,-2.6644,-2.6644,-2.6561,-2.6479,-2.624,-2.6146,-2.6063,-2.5895,-2.5895,-2.5895,-2.5895,-2.5895,-2.5906,-2.5822,-2.5738,-2.5559,-2.5475,-2.538,-2.52,-2.5115,-2.5031,-2.4861,-2.4775,-2.4625,-2.4378,-2.4206,-2.4292,-2.4368,-2.411,-2.3841,-2.358,-2.3406,-2.3144,-2.2969,-2.2969,-2.3057,-2.3057,-2.3135,-2.3135,-2.3135,-2.3135,-2.3319,-2.3493,-2.3754,-2.41,-2.4529,-2.4861,-2.5211,-2.5475,-2.5559,-2.5728,-2.5822,-2.5895,-2.6074,-2.6396,0.0,0.0,0.0,-2.7456,0.0,0.0,0.0,0.0,-2.2463,0.0,0.0,0.0,0.0,-2.0871,-2.0409,-1.9901,-1.9436,0.0,0.0,0.0,0.0,0.0,0.0,0.0,0.0,0.0,0.0,-1.7512,-1.808,-1.8755,-1.9725,-2.1134,-2.2603,-2.4001,-2.456,-2.4933,-2.5312,-2.5182,-2.5283,-2.5716,-2.5716,-2.6007,-2.6644,-2.6313,-2.6479,-2.6891,-2.6727,-2.6809,-2.7149,-2.7231,-2.7231,-2.7231,-2.7231,-2.6974,-2.6644,-2.6644,-2.6644,-2.6644,-2.6644,-2.6396,-2.6157,-2.599,-2.5895,-2.5895,-2.5895,-2.5895,-2.5895,-2.5895,-2.5895,-2.5822,-2.5644,-2.5559,-2.5559,-2.5285,-2.52,-2.5115,-2.4946,-2.4861,-2.4775,-2.454,-2.4368,-2.4206,-2.4206,-2.4206,-2.411,-2.3841,-2.3406,-2.3135,-2.3135,-2.2696,-2.253,-2.2803,-2.2794,-2.2882,-2.3047,-2.3135,-2.3135,-2.3135,-2.3144,-2.3319,-2.3754,-2.3841,-2.4176,-2.4861,-2.4946,-2.5126,-2.5559,-2.5654,-2.5738,-2.5895,-2.6074,-2.624,0.0,0.0,-2.837,-2.744,0.0,0.0,0.0,0.0,0.0,0.0,0.0,0.0,0.0,-2.0908,-2.0459,-2.0118,-1.9357,-1.8666,0.0,0.0,0.0,0.0,0.0,0.0,0.0,0.0,0.0,-1.6253,-1.666,-1.7438,-1.8654,-2.0006,-2.168,-2.3622,-2.4274,-2.4921,-2.5523,-2.5123,-2.4973,-2.5187,-2.5213,-2.5487,-2.5835,-2.592,-2.6146,-2.6396,-2.6561,-2.6727,-2.6985,-2.7149,-2.7231,-2.7149,-2.7067,-2.6891,-2.6809,-2.6644,-2.6396,-2.6146,-2.6146,-2.6074,-2.599,-2.5906,-2.5895,-2.5906,-2.5738,-2.5728,-2.5644,-2.5464,-2.5464,-2.538,-2.538,-2.5211,-2.5126,-2.5031,-2.4871,-2.47,-2.4615,-2.4625,-2.4529,-2.4368,-2.4292,-2.4024,-2.358,-2.3493,-2.3406,-2.3319,-2.3057,-2.2882,-2.2696,-2.252,-2.2432,-2.253,-2.253,-2.253,-2.2618,-2.2608,-2.2706,-2.2882,-2.2882,-2.3144,-2.358,-2.3754,-2.4013,-2.4454,-2.4775,-2.4956,-2.5126,-2.5475,-2.5644,-2.5738,-2.5895,-2.6063,-2.8936,-2.8684,0.0,-2.7491,-2.6849,0.0,-2.5255,0.0,-2.368,0.0,0.0,0.0,0.0,0.0,-2.056,-2.0233,-1.9522,-1.8795,0.0,-1.6824,0.0,0.0,0.0,0.0,0.0,0.0,-1.5103,-1.5153,-1.5615,-1.6413,0.0,0.0,-2.0864,-2.2776,-2.3789,-2.4575,-2.5105,-2.4898,-2.4746,-2.471,-2.4723,-2.4904,-2.5234,-2.5392,-2.5628,-2.5965,-2.6116,-2.6278,-2.6542,-2.6806,-2.6874,-2.6793,-2.6905,-2.6809,-2.6644,-2.6479,-2.6229,-2.5895,-2.5895,-2.5895,-2.5906,-2.5822,-2.5812,-2.5728,-2.5559,-2.5464,-2.538,-2.5285,-2.52,-2.52,-2.5115,-2.5031,-2.4861,-2.4786,-2.4625,-2.454,-2.454,-2.4454,-2.4368,-2.4206,-2.4024,-2.3677,-2.3144,-2.2882,-2.2794,-2.2872,-2.2706,-2.2451,-2.2353,-2.2176,-2.2176,-2.2264,-2.2264,-2.2353,-2.2344,-2.2441,-2.2441,-2.2618,-2.2715,-2.2979,-2.3319,-2.358,-2.3851,-2.4206,-2.454,-2.47,-2.4861,-2.5211,-2.5391,-2.5464,-2.5549,-2.5728]}]]